[[{"header":{"parameterUnit":"m.s-1","parameterCategory":1,"la1":30.6,"la2":29.2853,"lo1":-89.7004,"lo2":-87.6739,"dx":0.0162,"dy":0.0183,"nx":112,"ny":82,"refTime":"2023-01-26T06:00:00:Z","depth":0,"parameterNumber":2,"parameterNumberName":"U-component_of_WINDS"},"data":[0.0,0.0,0.0,0.0,0.0,0.0,0.0,0.0,0.0,0.0,0.0,0.0,0.0,0.0,0.0,0.0,0.0,0.0,0.0,0.0,0.0,0.0,0.0,0.0,0.0,0.0,0.0,0.0,0.0,0.0,0.0,0.0,0.0,0.0,0.0,0.0,0.0,0.0,0.0,0.0,0.0,0.0,0.0,0.0,0.0,0.0,0.0,0.0,0.0,0.0,0.0,0.0,0.0,0.0,0.0,0.0,0.0,0.0,0.0,0.0,0.0,0.0,0.0,0.0,0.0,0.0,0.0,0.0,0.0,0.0,0.0,0.0,0.0,0.0,0.0,0.0,0.0,0.0,0.0,0.0,0.0,0.0,0.0,0.0,0.0,0.0,0.0,0.0,0.0,0.0,0.0,0.5694,0.6805,0.7584,0.7792,0.8138,0.7993,0.7281,0.0,0.0,0.0,0.0,0.0,0.0,0.0,0.0,0.0,0.0,0.0,0.0,0.0,0.0,0.0,0.0,0.0,0.0,0.0,0.0,0.0,0.0,0.0,0.0,0.0,0.0,0.0,0.0,0.0,0.0,0.0,0.0,0.0,0.0,0.0,0.0,0.0,0.0,0.0,0.0,0.0,0.0,0.0,0.0,0.0,0.0,0.0,0.0,0.0,0.0,0.0,0.0,0.0,0.0,0.0,0.0,0.0,0.0,0.0,0.0,0.0,0.0,0.0,0.0,0.0,0.0,0.0,0.0,0.0,0.0,0.0,0.0,0.0,0.0,0.0,0.0,0.0,0.0,0.0,0.0,0.0,0.0,0.0,0.0,0.0,0.0,0.0,0.0,0.0,0.0,0.0,0.0,0.0,0.0,0.0,0.0,0.0,0.0,0.0,0.0,0.0,0.0,0.0,0.0,0.5168,0.6243,0.7031,0.7739,0.8334,0.7814,0.7559,0.7759,0.0,0.0,0.0,0.0,0.0,0.0,0.0,0.0,0.0,0.0,0.0,0.0,0.0,0.0,0.0,0.0,0.0,0.0,0.0,0.0,0.0,0.0,0.0,0.0,0.0,0.0,0.0,0.0,0.0,0.0,0.0,0.0,0.0,0.0,0.0,0.0,0.0,0.0,0.0,0.0,0.0,0.0,0.0,0.0,0.0,0.0,0.0,0.0,0.0,0.0,0.0,0.0,0.0,0.0,0.0,0.0,0.0,0.0,0.0,0.0,0.0,0.0,0.0,0.0,0.0,0.0,0.0,0.0,0.0,0.0,0.0,0.0,0.0,0.0,0.0,0.0,0.0,0.0,0.0,0.0,0.0,0.0,0.0,0.0,0.0,0.0,0.0,0.0,0.0,0.0,0.0,0.0,0.0,0.0,0.0,0.0,0.0,0.0,0.0,0.0,0.0,0.0,0.0,0.5221,0.5689,0.6577,0.7158,0.7705,0.8228,0.769,0.7422,0.7703,0.7466,0.0,0.0,0.0,0.0,0.0,0.0,0.0,0.0,0.0,0.0,0.0,0.0,0.0,0.0,0.0,0.0,0.0,0.0,0.0,0.0,0.0,0.0,0.0,0.0,0.0,0.0,0.0,0.0,0.0,0.0,0.0,0.0,0.0,0.0,0.0,0.0,0.0,0.0,0.0,0.0,0.0,0.0,0.0,0.0,0.0,0.0,0.0,0.0,0.0,0.0,0.0,0.0,0.0,0.0,0.0,0.0,0.0,0.0,0.0,0.0,0.0,0.0,0.0,0.0,0.0,0.0,0.0,0.0,0.0,0.0,0.0,0.0,0.0,0.0,0.0,0.0,0.0,0.0,0.0,0.0,0.0,0.0,0.0,0.0,0.0,0.0,0.0,0.0,0.0,0.0,0.0,0.0,0.0,0.0,0.0,0.0,0.0,0.0,0.0,0.0,0.0,0.0,0.585,0.6106,0.6655,0.7102,0.7533,0.7983,0.7541,0.734,0.7575,0.7097,0.0,0.0,0.0,0.0,0.0,0.0,0.0,0.0,0.0,0.0,0.0,0.0,0.0,0.0,0.0,0.0,0.0,0.0,0.0,0.0,0.0,0.0,0.0,0.0,0.0,0.0,0.0,0.0,0.0,0.0,0.0,0.0,0.0,0.0,0.0,0.0,0.0,0.0,0.0,0.0,0.0,0.0,0.0,0.0,0.0,0.0,0.0,0.0,0.0,0.0,0.0,0.0,0.0,0.0,0.0,0.0,0.0,0.0,0.0,0.0,0.0,0.0,0.0,0.0,0.0,0.0,0.0,0.0,0.0,0.0,0.0,0.0,0.0,0.0,0.0,0.0,0.0,0.0,0.0,0.0,0.0,0.0,0.0,0.0,0.0,0.0,0.0,0.0,0.0,0.0,0.0,0.0,0.0,0.0,0.0,0.0,0.0,0.0,0.0,0.0,0.0,0.0,0.567,0.605,0.6478,0.6732,0.7125,0.7768,0.7325,0.7179,0.7588,0.7097,0.0,0.0,0.0,0.0,0.0,0.0,0.0,0.0,0.0,0.0,0.0,0.0,0.0,0.0,0.0,0.0,0.0,0.0,0.0,0.0,0.0,0.0,0.0,0.0,0.0,0.0,0.0,0.0,0.0,0.0,0.0,0.0,0.0,0.0,0.0,0.0,0.0,0.0,0.0,0.0,0.0,0.0,0.0,0.0,0.0,0.0,0.0,0.0,0.0,0.0,0.0,0.0,0.0,0.0,0.0,0.0,0.0,0.0,0.0,0.0,0.0,0.0,0.0,0.0,0.0,0.0,0.0,0.0,0.0,0.0,0.0,0.0,0.0,0.0,0.0,0.0,0.0,0.0,0.0,0.0,0.0,0.0,0.0,0.0,0.0,0.0,0.0,0.0,0.0,0.0,0.0,0.0,0.0,0.0,0.0,0.0,0.0,0.0,0.0,0.0,0.0,0.0,0.5736,0.604,0.0,0.6665,0.6948,0.7273,0.6975,0.6833,0.7033,0.0,0.0,0.0,0.0,0.0,0.0,0.0,0.0,0.0,0.0,0.0,0.0,0.0,0.0,0.0,0.0,0.0,0.0,0.0,0.0,0.0,0.0,0.0,0.0,0.0,0.0,0.0,0.0,0.0,0.0,0.0,0.0,0.0,0.0,0.0,0.0,0.0,0.0,0.0,0.0,0.0,0.0,0.0,0.0,0.0,0.0,0.0,0.0,0.0,0.0,0.0,0.0,0.0,0.0,0.0,0.0,0.0,0.0,0.0,0.0,0.0,0.0,0.0,0.0,0.0,0.0,0.0,0.0,0.0,0.0,0.0,0.0,0.0,0.0,0.0,0.0,0.0,0.0,0.0,0.0,0.0,0.0,0.0,0.0,0.0,0.0,0.0,0.0,0.0,0.0,0.0,0.0,0.0,0.0,0.0,0.0,0.0,0.0,0.0,0.0,0.0,0.0,0.5557,0.5727,0.5946,0.0,0.6539,0.6683,0.69,0.666,0.6609,0.6813,0.0,0.0,0.0,0.0,0.0,0.0,0.0,0.0,0.0,0.0,0.0,0.0,0.0,0.0,0.0,0.0,0.0,0.0,0.0,0.0,0.0,0.0,0.0,0.0,0.0,0.0,0.0,0.0,0.0,0.0,0.0,0.0,0.0,0.0,0.0,0.0,0.0,0.0,0.0,0.0,0.0,0.0,0.0,0.0,0.0,0.0,0.0,0.0,0.0,0.0,0.0,0.0,0.0,0.0,0.0,0.0,0.0,0.0,0.0,0.0,0.0,0.0,0.0,0.0,0.0,0.0,0.0,0.0,0.0,0.0,0.0,0.0,0.0,0.0,0.0,0.0,0.0,0.0,0.0,0.0,0.0,0.0,0.0,0.0,0.0,0.0,0.0,0.0,0.0,0.0,0.0,0.0,0.0,0.0,0.0,0.0,0.0,0.0,0.0,0.0,0.0,0.0,0.5532,0.5609,0.5744,0.6158,0.6205,0.6337,0.6674,0.6451,0.6536,0.0,0.0,0.0,0.0,0.0,0.0,0.0,0.0,0.0,0.0,0.0,0.0,0.0,0.0,0.0,0.0,0.0,0.0,0.0,0.0,0.0,0.0,0.0,0.0,0.0,0.0,0.0,0.0,0.0,0.0,0.0,0.0,0.0,0.0,0.0,0.0,0.0,0.0,0.0,0.0,0.0,0.0,0.0,0.0,0.0,0.0,0.0,0.0,0.0,0.0,0.0,0.0,0.0,0.0,0.0,0.0,0.0,0.0,0.0,0.0,0.0,0.0,0.0,0.0,0.0,0.0,0.0,0.0,0.0,0.0,0.0,0.0,0.0,0.0,0.0,0.0,0.0,0.0,0.0,0.0,0.0,0.0,0.0,0.0,0.0,0.0,0.0,0.0,0.0,0.0,0.0,0.0,0.0,0.0,0.0,0.0,0.0,0.0,0.0,0.0,0.0,0.0,0.0,0.5289,0.5408,0.5608,0.6018,0.6146,0.6228,0.6337,0.6329,0.6438,0.6801,0.0,0.0,0.0,0.0,0.0,0.0,0.0,0.0,0.0,0.0,0.0,0.0,0.0,0.0,0.0,0.0,0.0,0.0,0.0,0.0,0.0,0.0,0.0,0.0,0.0,0.0,0.0,0.0,0.0,0.0,0.0,0.0,0.0,0.0,0.0,0.0,0.0,0.0,0.0,0.0,0.0,0.0,0.0,0.0,0.0,0.0,0.0,0.0,0.0,0.0,0.0,0.0,0.0,0.0,0.0,0.0,0.0,0.0,0.0,0.0,0.0,0.0,0.0,0.0,0.0,0.0,0.0,0.0,0.0,0.0,0.0,0.0,0.0,0.0,0.0,0.0,0.0,0.0,0.0,0.0,0.0,0.0,0.0,0.0,0.0,0.0,0.0,0.0,0.0,0.0,0.0,0.0,0.0,0.0,0.0,0.0,0.0,0.0,0.0,0.0,0.0,0.0,0.5268,0.5354,0.5553,0.5959,0.6119,0.6167,0.6083,0.6127,0.6314,0.6724,0.0,0.0,0.0,0.0,0.0,0.0,0.0,0.0,0.0,0.0,0.0,0.0,0.0,0.0,0.0,0.0,0.0,0.0,0.0,0.0,0.0,0.0,0.0,0.0,0.0,0.0,0.0,0.0,0.0,0.0,0.0,0.0,0.0,0.0,0.0,0.0,0.0,0.0,0.0,0.0,0.0,0.0,0.0,0.0,0.0,0.0,0.0,0.0,0.0,0.0,0.0,0.0,0.0,0.0,0.0,0.0,0.0,0.0,0.0,0.0,0.0,0.0,0.0,0.0,0.0,0.0,0.0,0.0,0.0,0.0,0.0,0.0,0.0,0.0,0.0,0.0,0.0,0.0,0.0,0.0,0.0,0.0,0.0,0.0,0.0,0.0,0.0,0.0,0.0,0.0,0.0,0.0,0.0,0.0,0.0,0.0,0.0,0.0,0.0,0.0,0.0,0.0,0.5396,0.5426,0.5553,0.5959,0.6119,0.6125,0.5954,0.5926,0.6171,0.6756,0.0,0.0,0.0,0.0,0.0,0.0,0.0,0.0,0.0,0.0,0.0,0.0,0.0,0.0,0.0,0.0,0.0,0.0,0.0,0.0,0.0,0.0,0.0,0.0,0.0,0.0,0.0,0.0,0.0,0.0,0.0,0.0,0.0,0.0,0.0,0.0,0.0,0.0,0.0,0.0,0.0,0.0,0.0,0.0,0.0,0.0,0.0,0.0,0.0,0.0,0.0,0.0,0.0,0.0,0.0,0.0,0.0,0.0,0.0,0.0,0.2757,0.0,0.0,0.0,0.0,0.0,0.0,0.0,0.0,0.0,0.0,0.0,0.0,0.0,0.0,0.0,0.0,0.0,0.0,0.0,0.0,0.0,0.0,0.0,0.0,0.0,0.0,0.0,0.0,0.0,0.0,0.0,0.0,0.0,0.0,0.0,0.0,0.0,0.0,0.0,0.0,0.0,0.5293,0.5325,0.5503,0.5959,0.6119,0.6186,0.6139,0.6176,0.637,0.67,0.0,0.0,0.0,0.0,0.0,0.0,0.0,0.0,0.0,0.0,0.0,0.0,0.0,0.0,0.0,0.0,0.0,0.0,0.0,0.0,0.0,0.0,0.0,0.0,0.0,0.0,0.0,0.0,0.0,0.0,0.0,0.0,0.0,0.0,0.0,0.0,0.0,0.0,0.0,0.0,0.0,0.0,0.0,0.0,0.0,0.0,0.0,0.0,0.0,0.0,0.0,0.0,0.0,0.0,0.0,0.0,0.0,0.0,0.0,0.0,0.0,0.2594,0.0,0.0,0.0,0.0,0.0,0.0,0.0,0.0,0.0,0.0,0.0,0.0,0.0,0.0,0.0,0.0,0.0,0.0,0.0,0.0,0.0,0.0,0.0,0.0,0.0,0.0,0.0,0.0,0.0,0.0,0.0,0.0,0.0,0.0,0.0,0.0,0.0,0.0,0.0,0.0,0.5237,0.5306,0.5452,0.5855,0.6091,0.6163,0.6059,0.6077,0.6214,0.6486,0.6649,0.0,0.0,0.0,0.0,0.0,0.0,0.0,0.0,0.0,0.0,0.0,0.0,0.0,0.0,0.0,0.0,0.0,0.0,0.0,0.0,0.0,0.0,0.0,0.0,0.0,0.0,0.0,0.0,0.0,0.0,0.0,0.0,0.0,0.0,0.0,0.0,0.0,0.0,0.0,0.0,0.0,0.0,0.0,0.0,0.0,0.0,0.0,0.0,0.0,0.0,0.0,0.0,0.0,0.0,0.0291,0.0413,0.0629,0.0883,0.1163,0.1558,0.1635,0.1537,0.0,0.0,0.0,0.0,0.0,0.0,0.0,0.0,0.0,0.0,0.0,0.0,0.0,0.0,0.0,0.0,0.0,0.0,0.0,0.0,0.0,0.0,0.0,0.0,0.0,0.3448,0.3667,0.0,0.0,0.0,0.0,0.0,0.0,0.0,0.0,0.0,0.0,0.0,0.0,0.5112,0.5169,0.5327,0.5831,0.6092,0.6159,0.6007,0.602,0.608,0.628,0.6292,0.6629,0.0,0.0,0.0,0.0,0.0,0.0,0.0,0.0,0.0,0.0,0.0,0.0,0.0,0.0,0.0,0.0,0.0,0.0,0.0,0.0,0.0,0.0,0.0,0.0,0.0,0.0,0.0,0.0,0.0,0.0,0.0,0.0,-0.0921,-0.1209,0.0,0.0,0.0,0.0,0.0,0.0,0.0,0.0,0.0,0.0,0.0,0.0,0.0,0.0,-0.1269,-0.1274,-0.0984,-0.0395,-0.0383,-0.0102,0.0398,0.0425,0.0475,0.0522,0.0585,0.0,0.1892,0.138,0.0,0.0,0.0,0.0,0.0,0.0,0.0,0.0,0.0,0.0,0.0,0.0,0.0,0.0,0.0,0.0,0.0,0.0,0.0,0.0,0.0,0.0,0.1847,0.1925,0.2032,0.2128,0.0,0.318,0.4014,0.3866,0.0,0.0,0.0,0.0,0.0,0.0,0.0,0.0,0.4583,0.4602,0.4965,0.6115,0.6274,0.6317,0.6426,0.6421,0.6374,0.6226,0.6273,0.6446,0.6804,0.7089,0.0,0.0,0.0,0.0,0.0,0.0,0.0,0.0,0.0,0.0,0.0,0.0,0.0,0.0,0.0,0.0,0.0,0.0,0.0,0.0,0.0,0.0,0.0,0.0,0.0,0.0,0.0,0.0,0.0,-0.1584,-0.1984,-0.2334,-0.2411,-0.2467,0.0,0.0,0.0,0.0,0.0,0.0,0.0,0.0,0.0,-0.3056,-0.3061,-0.2882,-0.2532,-0.2403,-0.2078,-0.1568,-0.1454,-0.127,-0.0991,-0.0496,-0.0262,-0.0255,0.0198,0.0654,0.1073,0.0822,0.0927,0.1254,0.0,0.0,0.0,0.0,0.0,0.1444,0.1679,0.0,0.0,0.0,0.0,0.0,0.0,0.0,0.0,0.0,0.0,0.0,0.0,0.0,0.0,0.156,0.1595,0.1647,0.1668,0.2196,0.265,0.0,0.2691,0.2768,0.3042,0.0,0.0,0.0,0.0,0.0,0.3974,0.3983,0.4357,0.5412,0.5639,0.5923,0.6344,0.6396,0.6337,0.6214,0.6223,0.6369,0.6701,0.6844,0.711,0.0,0.0,0.0,0.0,0.0,0.0,0.0,0.0,0.0,0.0,0.0,0.0,0.0,0.0,0.0,0.0,0.0,0.0,0.0,0.0,0.0,0.0,0.0,0.0,0.0,0.0,0.0,0.0,-0.2428,-0.2833,-0.3208,-0.3351,-0.3411,0.0,0.0,0.0,0.0,0.0,0.0,-0.3565,-0.3547,-0.3673,-0.3998,-0.4007,-0.3905,-0.3687,-0.3522,-0.3218,-0.27,-0.2546,-0.2364,-0.2151,-0.15,-0.1187,-0.1106,-0.0485,-0.024,-0.0206,0.0286,0.0535,0.0644,0.0724,0.0844,0.0931,0.0925,0.0938,0.0979,0.1033,0.1043,0.1047,0.1057,0.0,0.1073,0.0987,0.0,0.0,0.0,0.0,0.1202,0.1351,0.0,0.1364,0.1478,0.153,0.153,0.153,0.1522,0.1555,0.0,0.1812,0.1921,0.2409,0.0,0.0,0.0,0.0,0.3043,0.3342,0.3398,0.3765,0.4657,0.5072,0.5502,0.6052,0.6272,0.6335,0.6192,0.6153,0.6252,0.6571,0.6541,0.677,0.73,0.0,0.0,0.0,0.0,0.0,0.0,0.0,0.0,0.0,0.0,0.0,0.0,0.0,0.0,0.0,0.0,0.0,0.0,0.0,0.0,0.0,0.0,0.0,0.0,0.0,0.0,0.0,0.0,0.0,-0.3384,-0.3398,0.0,0.0,0.0,0.0,-0.3769,-0.3769,-0.3859,-0.4059,-0.3932,-0.4007,-0.4259,-0.4268,-0.433,-0.443,-0.443,-0.413,-0.3524,-0.3535,-0.3122,-0.2371,-0.2346,-0.2204,-0.203,-0.1992,-0.1984,-0.1856,-0.0249,0.0405,0.0414,0.0412,0.0419,0.0442,0.0429,0.0514,0.0613,0.0642,0.0753,0.0924,0.0924,0.0952,0.1,0.0939,0.0901,0.0,0.0,0.1117,0.1163,0.1336,0.1389,0.1439,0.1556,0.161,0.161,0.161,0.1543,0.1532,0.0,0.1718,0.1762,0.1915,0.0,0.1897,0.1808,0.1887,0.2169,0.2691,0.2861,0.3281,0.4236,0.4915,0.5362,0.554,0.6194,0.6483,0.6229,0.6012,0.6015,0.6223,0.609,0.6263,0.6723,0.7062,0.0,0.0,0.0,0.0,0.0,0.0,0.0,0.0,0.0,0.0,0.0,0.0,0.0,0.0,0.0,0.0,0.0,0.0,0.0,0.0,0.0,0.0,0.0,0.0,0.0,0.0,0.0,0.0,-0.3889,-0.4034,0.0,0.0,-0.4858,-0.5096,-0.5562,-0.5589,-0.5677,-0.582,-0.5801,-0.589,-0.6146,-0.6158,-0.603,-0.573,-0.5606,-0.5192,-0.4549,-0.4436,-0.4238,-0.3938,-0.3489,-0.3251,-0.3158,-0.2694,-0.2428,-0.2237,-0.1633,-0.1008,-0.0374,0.0193,0.0412,0.0393,0.0397,0.0523,0.0659,0.0581,0.0638,0.0773,0.0721,0.0806,0.0928,0.0917,0.0913,0.0922,0.1021,0.1025,0.106,0.119,0.0827,0.0438,0.0481,0.0138,-0.0069,0.0414,0.0507,0.0726,0.134,0.1488,0.1507,0.1581,0.1579,0.1567,0.1504,0.1557,0.1692,0.2028,0.2133,0.2545,0.3437,0.3783,0.4329,0.5303,0.5597,0.5835,0.606,0.5972,0.5887,0.581,0.5883,0.6094,0.6435,0.6733,0.719,0.0,0.0,0.0,0.0,0.0,0.0,0.0,0.0,0.0,0.0,0.0,0.0,0.0,0.0,0.0,0.0,0.0,0.0,0.0,0.0,0.0,0.0,0.0,0.0,0.0,0.0,-0.4531,-0.4734,-0.5176,-0.5655,-0.6106,-0.6112,-0.6308,-0.6886,-0.6896,-0.6933,-0.7061,-0.7071,-0.7143,-0.7266,-0.7275,-0.7086,-0.6728,-0.6601,-0.6305,-0.5877,-0.5517,-0.5289,-0.5223,-0.4556,-0.4189,-0.4125,-0.3618,-0.3316,-0.3113,-0.2859,-0.2372,-0.1647,-0.0797,-0.044,-0.0449,-0.0453,-0.034,-0.0191,-0.0195,-0.0161,-0.0095,-0.0121,-0.006,0.006,0.006,0.006,0.009,0.0188,0.0222,0.0225,0.0303,-0.0069,-0.0491,-0.0495,-0.0887,-0.1099,-0.0603,-0.0454,-0.0275,0.0341,0.0953,0.1395,0.1413,0.1441,0.1437,0.1392,0.1433,0.1504,0.172,0.1798,0.2093,0.2712,0.3053,0.3561,0.4464,0.4999,0.5392,0.5616,0.5887,0.595,0.5749,0.5897,0.6127,0.636,0.6536,0.7101,0.8078,0.0,0.0,0.0,0.0,0.0,0.0,0.0,0.0,0.0,0.0,0.0,0.0,0.0,0.0,0.0,0.0,0.0,0.0,0.0,0.0,0.0,0.0,0.0,-0.4058,-0.4953,-0.5789,-0.5954,-0.6831,-0.7438,-0.744,-0.7355,-0.7375,-0.7648,-0.7544,-0.7533,-0.7665,-0.767,-0.7609,-0.7484,-0.7451,-0.7451,-0.7419,-0.7419,-0.7419,-0.7386,-0.6728,-0.6334,-0.6112,-0.5484,-0.5057,-0.4894,-0.4867,-0.4764,-0.4592,-0.3861,-0.3517,-0.3362,-0.2456,-0.2112,-0.2112,-0.2117,-0.2031,-0.1878,-0.1678,-0.1611,-0.1611,-0.161,-0.161,-0.1611,-0.1609,-0.1609,-0.1575,-0.1375,-0.1308,-0.1318,-0.1253,-0.1229,-0.1272,-0.1339,-0.1382,-0.1382,-0.1346,-0.1345,-0.1299,-0.1232,0.0103,0.1267,0.1426,0.1483,0.147,0.14,0.1459,0.0,0.1774,0.1852,0.1951,0.2154,0.2785,0.3148,0.3102,0.4415,0.5114,0.4882,0.5741,0.6177,0.5964,0.6105,0.629,0.6497,0.6502,0.6993,0.8,0.0,0.0,0.0,0.0,0.0,0.0,0.0,0.0,0.0,0.0,0.0,0.0,0.0,0.0,0.0,0.0,0.0,0.0,0.0,0.0,0.0,0.0,-0.6348,-0.6018,-0.6433,-0.6954,-0.7358,-0.7755,-0.82,-0.8728,-0.8751,-0.8946,-0.9518,-0.9357,-0.9217,-0.9252,-0.9087,-0.8958,-0.8926,-0.8926,-0.8689,-0.8199,-0.8199,-0.7939,-0.7386,-0.7223,-0.7088,-0.7027,-0.6863,-0.6732,-0.6675,-0.6273,-0.5955,-0.5634,-0.5139,-0.4833,-0.449,-0.2861,-0.2315,-0.2377,-0.228,-0.217,-0.2052,-0.1991,-0.197,-0.1964,-0.1856,-0.1801,-0.1721,-0.1619,-0.1609,-0.1616,-0.1649,-0.1658,-0.1669,-0.1752,-0.2226,-0.2631,-0.2499,-0.2838,-0.3028,-0.2394,-0.2176,-0.1914,-0.1303,-0.0835,-0.0309,0.03,0.0863,0.1193,0.1185,0.0,0.0,0.1429,0.1572,0.1749,0.1951,0.2287,0.2671,0.3148,0.3556,0.3864,0.0,0.484,0.5167,0.4929,0.5596,0.6139,0.6497,0.6733,0.7177,0.0,0.0,0.0,0.0,0.0,0.0,0.0,0.0,0.0,0.0,0.0,0.0,0.0,0.0,0.0,0.0,0.0,0.0,0.0,0.0,0.0,0.0,-0.7714,-0.8227,-0.8553,-0.8338,-0.8353,-0.8816,-0.919,-0.9599,-1.0007,-0.9952,-1.0031,-1.0454,-1.0214,-1.0021,-0.9913,-0.9763,-0.9663,-0.9612,-0.9651,-0.9509,-0.9204,-0.9241,-0.9025,-0.8619,-0.822,-0.8042,-0.8004,-0.7587,-0.7466,0.0,-0.7234,-0.7027,-0.6848,-0.6294,-0.5929,0.0,0.0,0.0,0.0,0.0,-0.3272,-0.3199,-0.318,-0.3139,-0.3105,-0.3092,-0.2991,-0.2931,-0.2917,-0.2855,-0.2811,-0.2889,-0.2854,-0.2821,-0.293,-0.3326,-0.3636,-0.3444,-0.3683,-0.384,-0.3224,-0.3035,-0.2834,-0.2291,0.0,0.0,-0.1066,-0.0068,0.0638,0.0638,0.0908,0.1143,0.0,0.1412,0.158,0.1884,0.2018,0.2242,0.2706,0.3017,0.0,0.0,0.0,0.4647,0.4877,0.5471,0.0,0.0,0.0,0.737,0.0,0.0,0.0,0.0,0.9509,0.9837,0.0,0.0,0.0,0.0,0.0,0.0,0.0,0.0,0.0,0.0,0.0,0.0,0.0,0.0,0.0,0.0,-0.951,-1.0268,-1.1093,-1.0333,-0.9888,-1.0278,-1.0773,-1.1123,-1.1154,-1.0894,-1.0683,-1.0683,-1.0412,-1.0148,-0.9919,0.0,0.0,0.0,0.0,-0.9956,-1.0124,-1.022,-1.0238,-1.0202,-0.9383,-0.8969,-0.893,-0.8088,-0.7806,-0.7996,-0.8001,-0.8043,-0.8042,-0.7298,-0.6985,-0.6812,-0.5755,-0.5231,-0.5044,-0.4834,-0.4748,0.0,0.0,0.0,0.0,-0.4654,-0.4616,-0.4545,-0.4657,-0.4613,-0.4515,-0.4455,-0.4347,-0.4285,-0.4353,-0.4369,-0.4353,-0.4174,-0.4118,-0.4077,-0.3843,-0.3802,-0.3775,-0.3644,-0.3136,-0.2645,-0.2481,-0.1168,-0.0135,-0.0134,0.0504,0.0,0.1143,0.1244,0.1446,0.1783,0.0,0.0,0.2078,0.2713,0.3015,0.2824,0.3538,0.436,0.5231,0.5482,0.5936,0.6673,0.7144,0.7476,0.7673,0.7859,0.8117,0.8479,0.9703,1.0218,0.0,0.0,0.0,0.0,0.0,0.0,0.0,0.0,0.0,0.0,0.0,0.0,0.0,0.0,0.0,-0.9859,-1.0292,-1.0815,-1.1615,-1.1376,-1.1221,-1.153,-1.1262,-1.1164,-1.1387,-1.0966,-1.0683,-1.0683,-1.0244,-0.9955,-0.9907,-0.9703,0.0,-0.9548,-0.9769,-0.9805,-0.9627,-0.9847,-0.9877,-0.9666,0.0,0.0,-0.9394,-0.9416,-0.9338,-0.9163,-0.9163,-0.9006,-0.8709,-0.8441,-0.8341,-0.8141,-0.6252,-0.5494,-0.5371,-0.5249,-0.5081,-0.4923,-0.4802,-0.4719,-0.4657,-0.4681,-0.4673,-0.4657,-0.4681,-0.4673,0.0,-0.4725,-0.4707,-0.4726,-0.4829,-0.4866,-0.4792,-0.4421,-0.4345,-0.4229,-0.388,-0.3802,-0.3775,-0.3644,-0.3513,-0.3369,-0.3272,-0.198,-0.0966,-0.091,-0.0269,0.0235,0.0235,0.0874,0.1344,0.1412,0.1715,0.1913,0.1936,0.2213,0.2353,0.2273,0.29,0.3646,0.4405,0.4729,0.5231,0.5985,0.6413,0.6926,0.7529,0.7567,0.7754,0.8117,0.8635,0.8861,0.0,0.0,0.0,0.0,0.0,0.0,0.0,0.0,0.0,0.0,0.0,-0.8269,0.0,0.0,-1.0112,-1.0785,-1.1116,-1.1513,-1.2222,-1.1826,-1.1543,-1.167,-1.1447,-1.1285,-1.1285,-1.1075,-1.0773,-1.0509,-1.0244,-1.0039,-0.9913,-0.9781,-0.9802,-1.0034,-1.0228,-1.0266,-1.0236,-1.026,-1.0232,-1.01,-0.9835,-0.9709,-0.9715,-0.9847,-0.9907,-0.9904,-1.0025,-1.0056,-0.997,-0.9505,-0.9046,-0.8585,-0.7553,-0.7076,-0.6935,-0.667,-0.6396,-0.6185,-0.6153,-0.5723,-0.5213,-0.5384,-0.5124,-0.4754,-0.4817,-0.4792,-0.4768,-0.4855,-0.4844,-0.4825,-0.4947,-0.5018,-0.4937,-0.4621,-0.4543,-0.4426,-0.4038,-0.396,-0.3906,-0.3742,-0.3695,-0.3667,-0.3577,-0.29,-0.2237,-0.1827,-0.1108,-0.0483,-0.0105,0.0376,0.0845,0.1302,0.1492,0.1681,0.1884,0.2087,0.2161,0.2099,0.2415,0.2888,0.3575,0.3888,0.4356,0.5052,0.5564,0.6141,0.6752,0.6982,0.733,0.7754,0.7922,0.8182,0.0,0.0,0.0,0.0,0.0,0.0,0.0,0.0,-0.8237,-0.8339,-0.8764,-0.9239,-0.9727,-1.0418,-1.1074,-1.1567,-1.182,-1.2125,-1.2499,-1.2125,-1.1758,-1.1654,-1.1526,-1.1415,-1.1427,-1.1168,-1.0894,-1.0645,-1.0426,-1.0202,-0.9991,-0.9979,-1.0143,-1.0528,-1.0651,-1.0767,-1.0861,-1.0767,-1.0659,-1.0605,-1.0178,-0.9979,-0.9985,-1.0033,-1.0142,-1.031,-1.0569,-1.0833,-1.1037,-1.04,-0.9765,-0.9155,-0.9155,-0.9069,-0.8832,-0.8185,-0.7744,-0.753,-0.7563,-0.6884,-0.603,-0.6152,-0.5686,-0.5043,-0.5018,-0.4909,-0.4852,-0.4988,-0.4906,-0.4855,-0.4952,-0.5018,-0.4937,-0.474,-0.4701,-0.4582,-0.4233,-0.4155,-0.4116,-0.3882,-0.3843,-0.3818,-0.3665,-0.3652,-0.339,-0.2706,-0.1932,-0.1209,-0.0617,-0.0246,0.0275,0.1014,0.1237,0.1488,0.185,0.2052,0.2132,0.2117,0.2113,0.2323,0.2815,0.3128,0.3537,0.4118,0.4734,0.5291,0.5837,0.6234,0.6681,0.714,0.714,0.7529,-0.7958,-0.7622,0.0,-0.8283,-0.8173,-0.8195,0.0,0.0,-0.9468,-0.9937,-1.0262,-1.0586,-1.0882,-1.1363,-1.1844,-1.2174,-1.2252,-1.221,-1.1994,-1.2519,-1.2732,-1.2263,-1.1571,-1.1502,-1.2431,-1.1439,-1.1025,-1.1682,-1.0845,-1.028,-1.025,-1.025,-1.0262,-1.0327,-1.0586,-1.061,-1.0375,-1.0604,-1.0569,-1.0334,-1.028,-1.025,-1.0256,-1.0491,-1.0485,-1.031,-1.0569,-1.0833,-1.1074,-1.0999,-1.0925,-1.085,-1.085,-1.0807,-1.0619,-0.8945,-0.8214,-0.8011,-0.7833,-0.7484,-0.7027,-0.6416,-0.6101,-0.5823,-0.5209,-0.5007,-0.4999,-0.5012,-0.5007,-0.4999,-0.5012,-0.5018,-0.4937,-0.474,-0.4701,-0.4621,-0.4423,-0.4384,-0.4309,-0.4116,-0.4079,-0.3997,-0.3828,-0.3787,-0.3691,-0.3414,-0.2761,-0.2249,-0.2147,-0.0942,-0.0036,0.007,0.0873,0.152,0.1854,0.1918,0.2016,0.2178,0.2177,0.2204,0.229,0.2599,0.2994,0.35,0.3879,0.4442,0.5206,0.5356,0.5594,0.5887,0.5887,0.643,-0.8531,0.0,0.0,0.0,-0.9119,-0.945,-1.0003,-1.0166,-1.0304,-1.0707,-1.1086,-1.1459,-1.1763,-1.2119,-1.2415,0.0,-1.2866,-1.3044,-1.2881,-1.3284,-1.3445,-1.2935,-1.2435,-1.2406,-1.3114,-1.2654,-1.2398,-1.2579,-1.2165,-1.1747,-1.1262,-1.1381,-1.1471,-1.1471,-1.1273,-1.1242,-1.1471,-1.0959,-1.0629,-1.0521,-1.0364,-1.0292,-1.0304,-1.0563,-1.0707,-1.0755,-1.0863,-1.1009,-1.1111,-1.1111,-1.1111,-1.1111,-1.1111,-1.1111,-1.0999,-1.0126,-0.9595,-0.9315,-0.9213,-0.8627,-0.7862,-0.7715,-0.7305,-0.684,-0.6566,-0.6472,-0.6472,-0.6472,-0.6089,-0.5705,-0.5705,-0.5362,-0.4979,-0.4898,-0.4859,-0.4779,-0.4462,-0.4384,-0.4307,-0.3999,-0.3921,-0.3899,-0.3874,-0.3839,-0.3795,-0.3736,-0.3374,-0.2955,-0.2505,-0.1854,-0.1088,-0.0179,0.0789,0.1464,0.1589,0.1835,0.1964,0.2036,0.2138,0.2174,0.2138,0.23,0.2468,0.2573,0.2965,0.3452,0.4047,0.4316,0.4652,0.5054,0.5246,0.5502,-0.8776,0.0,0.0,-0.9372,-0.9973,-1.0551,-1.0701,-1.0936,-1.1232,-1.1498,-1.1866,-1.2198,-1.2385,-1.2578,0.0,-1.3039,-1.3458,-1.3824,-1.3892,-1.4108,-1.4126,-1.3717,-1.3492,-1.3546,-1.3938,-1.3582,-1.338,-1.3515,-1.3331,-1.2941,-1.2378,-1.2513,-1.2519,-1.2305,-1.1916,-1.1809,-1.1972,-1.1217,-1.0828,-1.0828,-1.0599,-1.0509,-1.0515,-1.0707,-1.093,-1.1111,-1.1111,-1.1111,-1.1111,-1.1111,-1.1111,-1.1111,-1.1111,-1.1111,-1.1074,-1.0925,-1.0627,-1.0279,-1.0232,-0.9574,-0.8751,-0.8727,-0.8313,-0.777,-0.7579,-0.7502,-0.7502,-0.7502,-0.7042,-0.6546,-0.6546,-0.6128,-0.5631,-0.5398,-0.5323,-0.5165,-0.4618,-0.4501,-0.4345,-0.396,-0.3901,-0.3901,-0.3887,-0.3867,-0.3852,-0.3893,-0.3787,-0.3484,-0.2937,-0.2608,-0.1949,-0.0589,0.0402,0.1021,0.1057,0.1531,0.1845,0.1917,0.2042,0.2136,0.2117,0.2172,0.2138,0.203,0.2329,0.2666,0.3042,0.3322,0.3686,0.4166,0.4378,0.4427,0.0,0.0,-0.9281,-1.0063,-1.0659,-1.1226,-1.1712,-1.2077,-1.2337,-1.2602,-1.2668,-1.2681,-1.2693,-1.2699,-1.2997,-1.3837,-1.3993,-1.422,-1.4852,-1.4965,-1.4867,-1.4577,-1.4611,-1.4771,0.0,-1.3805,-1.3374,-1.4454,-1.3875,-1.3484,-1.3448,-1.3455,-1.3098,-1.2335,-1.2274,-1.1905,-1.1149,-1.1099,-1.1099,-1.1099,-1.1093,-1.1087,-1.1087,-1.1093,-1.1105,-1.1111,-1.1111,-1.1111,-1.1111,-1.1111,-1.1111,-1.1111,-1.1111,-1.1111,-1.1111,-1.1074,-1.0844,-1.047,-1.0255,-1.0062,-0.9722,-0.8965,-0.8699,-0.8508,-0.7732,-0.7502,-0.7502,-0.7502,-0.7498,-0.7464,-0.7464,-0.7425,-0.7195,-0.6356,-0.6163,-0.5893,-0.4893,-0.4701,-0.4584,-0.4157,-0.4157,-0.4142,-0.394,-0.3971,-0.3956,-0.3912,-0.3893,-0.3861,-0.3775,-0.3069,-0.2265,-0.1358,-0.0554,0.0036,0.0219,0.0948,0.1567,0.1967,0.1957,0.1998,0.2204,0.2184,0.2157,0.2094,0.2095,0.2224,0.2436,0.2497,0.2711,0.3044,0.2981,0.2968,0.0,0.0,-1.0521,-1.0972,-1.1483,-1.1999,-1.2361,-1.2506,-1.2548,-1.2463,-1.2481,-1.2449,-1.2265,-1.2647,-1.3165,-1.3729,-1.47,-1.539,-1.5412,-1.591,-1.5946,-1.5115,-1.501,0.0,0.0,0.0,0.0,-1.5735,-1.5515,-1.515,-1.4636,-1.4987,-1.4912,-1.4245,-1.4148,-1.4103,-1.4146,-1.2931,-1.2277,-1.2277,-1.149,-1.1111,-1.1111,-1.1111,-1.1111,-1.1111,-1.1111,-1.1111,-1.1111,-1.1111,-1.1111,-1.1111,-1.1111,-1.1111,-1.1074,-1.0962,-1.0812,-1.0663,-1.0481,-1.0255,-1.003,-0.9614,-0.9609,-0.9668,-0.9238,-0.9221,-0.931,-0.9156,-0.8694,-0.8313,-0.8313,-0.7889,-0.7454,-0.7305,-0.7254,-0.7008,-0.6109,-0.5885,-0.5563,-0.4512,-0.4337,-0.4296,-0.4113,-0.4057,-0.3962,-0.3914,-0.3848,-0.3837,-0.3806,-0.3075,-0.2402,-0.213,-0.1384,-0.0574,0.0191,0.065,0.114,0.1835,0.2045,0.2108,0.2,0.2117,0.2178,0.2157,0.2076,0.2055,0.2127,0.2072,0.2089,0.2203,0.2375,0.2446,0.0,-1.043,-1.1315,-1.1676,-1.2131,-1.2493,-1.2662,-1.2632,-1.2487,-1.2228,-1.2211,-1.2192,-1.1905,-1.2332,-1.2849,-1.3307,-1.426,-1.508,-1.5613,-1.5794,-1.5891,-1.5831,-1.5463,0.0,0.0,0.0,0.0,-1.6167,-1.6396,-1.626,-1.5638,-1.6119,-1.6071,-1.5415,-1.5281,-1.5279,-1.5296,-1.4125,-1.3286,-1.2871,-1.1983,-1.1372,-1.1111,-1.1111,-1.1111,-1.1111,-1.1111,-1.1111,-1.1111,-1.1111,-1.1111,-1.1111,-1.1111,-1.1111,-1.1074,-1.0962,-1.085,-1.0775,-1.0475,-1.0331,-1.018,-0.996,-1.0089,-1.025,-0.9997,-1.0094,-1.0245,-0.9992,-0.9539,-0.9137,-0.9259,-0.8889,-0.8467,-0.8387,-0.8351,-0.8019,-0.6781,-0.6513,-0.6102,-0.4782,-0.4477,-0.4395,-0.4333,-0.4165,-0.4055,-0.3963,-0.3871,-0.3839,-0.3806,-0.3294,-0.2979,-0.2979,-0.2234,-0.145,-0.0744,-0.0157,0.0506,0.1304,0.1672,0.1919,0.2029,0.2129,0.2177,0.2154,0.2077,0.2024,0.2002,0.1875,0.1827,0.1827,0.2001,0.2046,-1.0448,-1.1128,-1.167,-1.221,-1.2524,-1.2699,-1.2729,-1.2511,-1.2233,-1.1994,-1.1993,-1.1936,0.0,0.0,-1.2272,-1.2825,-1.2978,-1.3669,-1.5623,-1.4958,-1.4932,0.0,0.0,0.0,0.0,0.0,0.0,-1.5882,0.0,-1.6744,-1.6376,-1.6727,-1.6611,-1.5827,-1.5805,-1.5466,-1.4777,-1.4723,-1.412,-1.2974,-1.2533,-1.1911,-1.1204,-1.1117,-1.1111,-1.1111,-1.1111,-1.1111,-1.1111,-1.1111,-1.1111,-1.1111,-1.1111,-1.1111,-1.1111,-1.1074,-1.0962,-1.0738,-1.0331,-1.0218,-1.018,-0.996,-1.0089,-1.025,-1.0013,-1.0116,-1.0261,-1.0024,-0.9922,-1.0013,-1.025,-1.0309,-1.0166,-0.9604,-0.9486,-0.8955,-0.7071,-0.6619,-0.6248,-0.505,-0.4628,-0.4519,-0.4476,-0.435,-0.4148,-0.4014,-0.3969,-0.3877,-0.3814,-0.3806,-0.3808,-0.3802,-0.3062,-0.2553,-0.247,-0.1371,-0.0313,0.0509,0.0861,0.1386,0.2153,0.2181,0.2124,0.2068,0.2091,0.2059,0.2002,0.1937,0.1907,0.1905,0.1823,0.1797,-1.1158,-1.1814,-1.2439,-1.2572,-1.2656,-1.282,-1.3188,-1.2806,-1.2389,-1.2469,-1.2301,-1.2062,0.0,0.0,0.0,-1.4472,-1.5319,0.0,-1.6961,-1.6827,0.0,0.0,0.0,-1.6559,-1.6756,-1.7021,0.0,0.0,-1.7064,-1.7287,-1.7184,-1.7543,-1.7494,-1.7049,-1.7271,-1.7334,-1.7135,-1.6301,-1.5279,-1.4173,-1.321,-1.2656,-1.2416,-1.1496,-1.1111,-1.1111,-1.1111,-1.1111,-1.1111,-1.1111,-1.1111,-1.1111,-1.1111,-1.1111,-1.1074,-1.0925,-1.085,-1.0738,-1.0331,-1.0218,-1.018,-0.996,-1.0089,-1.0283,-1.0218,-1.0363,-1.0495,-1.0431,-1.041,-1.0426,-1.0495,-1.0506,-1.0525,-1.0584,-1.0595,-1.0304,-0.9273,-0.8488,-0.7667,-0.6499,-0.5393,-0.4577,-0.4398,-0.4309,-0.4238,-0.4151,-0.4118,-0.4062,-0.3833,-0.3864,-0.3838,-0.381,-0.3665,-0.3195,-0.2352,-0.1995,-0.1291,-0.0157,0.015,0.0437,0.0802,0.129,0.1509,0.1496,0.1809,0.1972,0.2002,0.1868,0.1819,0.1817,0.1804,0.1797,-1.1799,-1.2373,-1.2862,-1.2735,-1.2614,-1.2594,-1.2954,-1.2497,-1.2035,-1.203,-1.2024,0.0,0.0,0.0,0.0,0.0,0.0,0.0,-1.6379,-1.6482,-1.6713,0.0,-1.7261,0.0,-1.7359,-1.7595,-1.7638,0.0,-1.7603,-1.7646,-1.7514,-1.7826,-1.7897,-1.7723,-1.788,-1.8,-1.8,-1.7211,-1.6323,-1.5334,-1.4386,-1.3554,-1.2871,-1.2381,-1.1774,-1.1111,0.0,-1.1446,-1.1111,-1.1111,-1.1111,-1.1111,-1.1111,-1.1111,-1.1074,-1.0962,-1.0964,-1.0901,-1.0483,-1.036,-1.0318,-0.9987,-1.0089,-1.0277,-1.0164,-1.0369,-1.0576,-1.0474,-1.0517,-1.0619,-1.0762,-1.0789,-1.0848,-1.1085,-1.1144,-1.0921,-1.0096,-0.9506,-0.8627,-0.6949,-0.5672,-0.4701,-0.4342,-0.43,-0.4271,-0.4229,-0.4216,-0.413,-0.3892,-0.3869,-0.3879,-0.3868,-0.3834,-0.3578,-0.2938,-0.2702,-0.2105,-0.0887,-0.0595,-0.0181,0.0394,0.0779,0.092,0.089,0.1364,0.1594,0.1601,0.1727,0.1797,0.1797,0.1797,0.1797,-1.2349,-1.2765,-1.3023,-1.2819,-1.2536,-1.2325,-1.2473,-1.2045,-1.1559,-1.1392,0.0,0.0,-1.111,0.0,-1.2886,-1.2344,0.0,-1.4213,-1.5352,-1.5514,-1.6139,-1.7795,-1.774,-1.7672,-1.7965,-1.8,-1.8,-1.8,-1.8,-1.7854,-1.756,-1.786,-1.8,-1.8,-1.8,-1.8,-1.8,-1.7706,-1.7195,-1.6459,-1.5637,-1.4546,-1.3206,-1.3418,-1.2689,-1.1298,0.0,0.0,-1.1111,-1.1111,-1.1135,-1.1166,-1.1166,-1.1166,-1.1166,-1.1128,-1.1132,-1.1144,-1.0648,-1.0548,-1.0584,-1.0046,-1.0067,-1.0213,-1.0024,-1.0243,-1.056,-1.0433,-1.0552,-1.0737,-1.0977,-1.1031,-1.1085,-1.1257,-1.1305,-1.1089,-1.025,-0.9946,-0.9104,-0.677,-0.5669,-0.4921,-0.4389,-0.43,-0.4273,-0.4243,-0.4233,-0.4128,-0.3957,-0.3924,-0.3908,-0.3883,-0.3859,-0.3816,-0.3804,-0.3413,-0.2761,-0.1787,-0.1369,-0.0757,0.0247,0.0341,0.0364,0.0324,0.0811,0.106,0.1008,0.1429,0.16,0.1628,0.1685,0.1713,-1.291,-1.3011,-1.3109,-1.3017,-1.2681,-1.2432,-1.2883,-1.2277,0.0,0.0,0.0,-1.1873,-1.2068,0.0,0.0,-1.4463,0.0,0.0,0.0,0.0,-1.7312,0.0,0.0,0.0,0.0,0.0,0.0,0.0,0.0,0.0,-1.7906,-1.7957,-1.8,-1.8,-1.8,-1.8,-1.8,-1.7931,-1.7695,-1.7262,-1.6146,-1.5328,-1.4762,-1.3902,-1.2989,-1.2114,0.0,0.0,-1.1111,-1.1111,-1.1244,-1.1417,-1.1417,-1.1417,-1.1417,-1.123,-1.1182,-1.1105,-1.0458,-1.0556,-1.0823,-1.0138,-0.9949,-1.0013,-1.018,-1.0417,-1.063,-1.0821,-1.1036,-1.1193,-1.1236,-1.1241,-1.1257,-1.1295,-1.1305,-1.1262,-1.1084,-1.0159,-0.8619,-0.629,-0.5675,-0.5322,-0.4431,-0.43,-0.4293,-0.4279,-0.4277,-0.424,-0.4181,-0.4059,-0.3955,-0.3843,-0.384,-0.3844,-0.3808,-0.3724,-0.3444,-0.2848,-0.2391,-0.1925,-0.1412,-0.0643,-0.023,-0.0167,0.0278,0.057,0.0613,0.0636,0.0645,0.0645,0.1038,0.1234,-1.3091,-1.3083,-1.3083,-1.3083,-1.2512,-1.2004,-1.242,0.0,0.0,0.0,0.0,-1.2124,-1.2079,0.0,0.0,0.0,0.0,0.0,0.0,0.0,0.0,0.0,0.0,0.0,0.0,0.0,0.0,0.0,0.0,0.0,-1.8,-1.8,-1.8,-1.8,-1.8,-1.8,-1.8,-1.8,-1.7906,-1.7757,-1.7013,-1.6207,-1.5433,-1.5165,-1.4246,-1.2952,-1.331,0.0,-1.1706,-1.1706,-1.1658,-1.1489,-1.1379,-1.1423,-1.1536,-1.1299,-1.1301,-1.1318,-1.0623,-1.0739,-1.1026,-1.0344,-1.0196,-1.0254,-1.0293,-1.0536,-1.0837,-1.095,-1.1118,-1.1305,-1.1305,-1.1305,-1.1305,-1.1305,-1.1305,-1.1219,-1.0992,-1.0024,-0.8755,-0.7265,-0.6296,-0.5542,-0.4968,-0.4567,-0.43,-0.43,-0.43,-0.4269,-0.4227,-0.4093,-0.3944,-0.3848,-0.383,-0.3849,-0.3806,-0.3802,-0.3569,-0.3066,-0.2843,-0.241,-0.1716,-0.128,-0.0929,-0.0706,-0.0255,0.0031,0.0093,0.0295,0.0399,0.0393,0.0617,0.0729,-1.3212,-1.3212,-1.3212,-1.3212,-1.2325,-1.1594,-1.204,-1.145,0.0,0.0,0.0,-1.2235,-1.2079,0.0,0.0,0.0,0.0,0.0,0.0,0.0,0.0,0.0,0.0,0.0,0.0,0.0,0.0,0.0,0.0,0.0,-1.8,-1.8,-1.8,-1.8,-1.8,-1.8,-1.8,-1.8,-1.7957,-1.7871,-1.7612,-1.6901,-1.5826,-1.6206,-1.5397,-1.3789,-1.4436,0.0,0.0,-1.2384,-1.2063,-1.15,-1.1343,-1.1426,-1.156,-1.1358,-1.1437,-1.1498,-1.0868,-1.0994,-1.1275,-1.0599,-1.0487,-1.056,-1.0423,-1.0654,-1.0982,-1.0982,-1.1118,-1.1305,-1.1305,-1.1305,-1.1305,-1.1305,-1.1305,-1.1132,-1.0598,-0.9893,-0.9109,-0.8241,-0.6871,-0.5766,-0.546,-0.479,-0.43,-0.43,-0.43,-0.4269,-0.4227,-0.411,-0.403,-0.3938,-0.383,-0.3802,-0.3802,-0.3802,-0.3627,-0.3191,-0.2983,-0.2554,-0.1817,-0.1599,-0.1353,-0.1109,-0.072,-0.0509,-0.0463,-0.006,0.0116,0.0112,0.0224,0.028,-1.3477,-1.3477,-1.3477,-1.3477,-1.2457,-1.1682,-1.2386,0.0,0.0,0.0,-1.2054,-1.2071,-1.2749,-1.3017,0.0,0.0,0.0,0.0,0.0,0.0,0.0,0.0,0.0,0.0,0.0,0.0,0.0,0.0,0.0,0.0,0.0,-1.8,-1.8,-1.8,-1.8,-1.8,-1.8,-1.8,-1.786,-1.7557,-1.7523,-1.7043,-1.6269,-1.6272,-1.5643,-1.451,0.0,0.0,0.0,-1.2707,-1.2348,-1.1575,-1.1575,-1.1592,-1.1609,-1.1568,-1.1585,-1.1521,-1.1052,-1.1208,-1.154,-1.0803,-1.0576,-1.0592,-1.0571,-1.0783,-1.0982,-1.0982,-1.1118,-1.1305,-1.1305,-1.1305,-1.1305,-1.1305,-1.1305,-1.1089,-1.0255,-0.9946,-0.9375,-0.7841,-0.6915,-0.6121,-0.5505,-0.479,-0.43,-0.43,-0.43,-0.4269,-0.4227,-0.4208,-0.4126,-0.399,-0.3867,-0.3802,-0.3802,-0.3802,-0.3795,-0.374,-0.2974,-0.2493,-0.2315,-0.1555,-0.1138,-0.111,-0.0982,-0.0955,-0.0927,-0.0838,-0.0782,-0.0757,-0.0336,-0.014,-1.3059,-1.3157,-1.3067,-1.3236,-1.2394,-1.1674,-1.2137,0.0,0.0,-1.1873,-1.2097,-1.2398,-1.316,-1.3297,-1.3476,0.0,0.0,0.0,0.0,0.0,0.0,0.0,0.0,0.0,0.0,0.0,0.0,0.0,0.0,0.0,0.0,-1.8,-1.8,-1.8,-1.8,-1.8,-1.8,-1.8,-1.7923,-1.7809,-1.7809,-1.7415,-1.665,-1.665,-1.617,-1.5328,0.0,0.0,0.0,-1.3811,-1.3226,-1.223,-1.2064,-1.1866,-1.1629,-1.1501,-1.1416,-1.1383,-1.1053,-1.1195,-1.1381,-1.0997,-1.0903,-1.1,-1.0891,-1.1015,-1.116,-1.116,-1.123,-1.1305,-1.1305,-1.1305,-1.1305,-1.1305,-1.1305,-1.1046,-1.0168,-0.9994,-0.9602,-0.838,-0.758,-0.6827,-0.6121,-0.5413,-0.479,-0.4387,-0.43,-0.4285,-0.4253,-0.4204,-0.4159,-0.4122,-0.3955,-0.3844,-0.3844,-0.3835,-0.3779,-0.3683,-0.3343,-0.2933,-0.2353,-0.2009,-0.1592,-0.111,-0.1065,-0.1035,-0.0988,-0.0976,-0.0945,-0.0898,-0.0716,-0.0636,-1.2524,-1.2795,-1.2856,-1.297,-1.2165,-1.1465,0.0,0.0,0.0,-1.179,-1.2045,-1.2352,-1.3207,-1.3283,-1.3353,0.0,0.0,0.0,0.0,0.0,0.0,0.0,0.0,0.0,0.0,0.0,0.0,0.0,0.0,0.0,0.0,-1.8,-1.8,-1.8,-1.8,-1.8,-1.8,-1.8,-1.8,-1.8,-1.788,-1.7595,-1.7081,-1.697,-1.6567,-1.5977,0.0,0.0,0.0,-1.4607,-1.3944,-1.2731,-1.2312,-1.2062,-1.1866,-1.1435,-1.1305,-1.1284,-1.1155,-1.1166,-1.1278,-1.1149,-1.1166,-1.1278,-1.1144,-1.1171,-1.1305,-1.1305,-1.1305,-1.1305,-1.1305,-1.1305,-1.1305,-1.1305,-1.1305,-1.1046,-1.0168,-0.9994,-0.9738,-0.8784,-0.8025,-0.7356,-0.6827,-0.5988,-0.5238,-0.4701,-0.4433,-0.43,-0.43,-0.4246,-0.421,-0.421,-0.4071,-0.3959,-0.3903,-0.384,-0.3765,-0.3673,-0.3514,-0.3113,-0.2373,-0.221,-0.1821,-0.1123,-0.1114,-0.1051,-0.1001,-0.1001,-0.0975,-0.0925,-0.0917,-0.0926,-1.1892,-1.247,-1.3011,-1.2777,-1.1709,-1.0968,0.0,0.0,-1.0451,-1.2047,-1.1872,-1.1732,-1.2816,-1.2718,-1.2726,-1.339,0.0,0.0,0.0,0.0,0.0,0.0,0.0,0.0,0.0,0.0,0.0,0.0,0.0,0.0,0.0,-1.8,-1.8,-1.8,-1.8,-1.8,-1.8,-1.8,-1.8,-1.7991,-1.7655,-1.7505,-1.7488,-1.7081,-1.6713,0.0,0.0,0.0,0.0,-1.4887,-1.4284,-1.2848,-1.2141,-1.2092,-1.2277,-1.1559,-1.1305,-1.1305,-1.1305,-1.1305,-1.1305,-1.1305,-1.1305,-1.1305,-1.1305,-1.1305,-1.1305,-1.1305,-1.1305,-1.1305,-1.1305,-1.1305,-1.1305,-1.1305,-1.1305,-1.1046,-1.0168,-0.9994,-0.9738,-0.8784,-0.8025,-0.7489,-0.7489,-0.6343,-0.5416,-0.5371,-0.4746,-0.43,-0.43,-0.4297,-0.4297,-0.4297,-0.4222,-0.4095,-0.3916,-0.3897,-0.3859,-0.3806,-0.3374,-0.291,-0.2497,-0.2068,-0.1585,-0.1121,-0.1091,-0.1061,-0.1001,-0.1001,-0.0985,-0.0987,-0.0988,-0.0988,-1.0647,-1.0984,-1.1158,-1.1068,-1.0628,-1.0411,-1.1076,0.0,-1.0498,-1.1274,-1.1258,-1.1467,-1.2584,-1.2708,-1.2923,-1.3769,-1.4444,0.0,0.0,0.0,0.0,0.0,0.0,0.0,0.0,0.0,0.0,0.0,0.0,0.0,0.0,-1.8,-1.8,-1.8,-1.8,-1.8,-1.8,-1.8,-1.8,-1.8,-1.7871,-1.7723,-1.7505,-1.7385,0.0,0.0,0.0,0.0,0.0,-1.5141,-1.4509,-1.3539,-1.2842,-1.2511,-1.232,-1.1559,-1.1305,-1.1305,-1.1305,-1.1305,-1.1305,-1.1305,-1.1305,-1.1305,-1.1305,-1.1305,-1.1305,-1.1305,-1.1305,-1.1305,-1.1305,-1.1305,-1.1305,-1.1305,-1.1305,-1.1046,-1.0168,-0.9994,-0.9738,-0.8784,-0.8432,-0.8072,-0.7577,-0.6694,-0.5944,-0.546,-0.479,-0.43,-0.43,-0.43,-0.43,-0.43,-0.4275,-0.4212,-0.4095,-0.3971,-0.3887,-0.3859,-0.3679,-0.3258,-0.2536,-0.2364,-0.1906,-0.1122,-0.1112,-0.1082,-0.1001,-0.1001,-0.0996,-0.0987,-0.0987,-0.1029,0.0,-1.0036,-1.0205,-1.0172,-0.9877,0.0,0.0,0.0,0.0,-1.0427,-1.062,-1.1073,-1.2086,-1.2262,-1.2599,-1.3712,-1.4512,0.0,0.0,0.0,0.0,0.0,0.0,0.0,0.0,0.0,0.0,0.0,0.0,0.0,0.0,0.0,-1.8,-1.8,-1.8,-1.7919,-1.7797,-1.7757,-1.7757,-1.7757,-1.7605,-1.7539,-1.7505,-1.7321,0.0,0.0,0.0,0.0,0.0,-1.5433,-1.4871,-1.4095,-1.3212,-1.2678,-1.232,-1.1559,-1.1305,-1.1305,-1.1305,-1.1305,-1.1305,-1.1305,-1.1305,-1.1305,-1.1305,-1.1305,-1.1305,-1.1305,-1.1305,-1.1305,-1.1305,-1.1375,-1.1439,-1.1439,-1.1439,-1.1242,-1.0391,-1.0108,-0.9756,-0.8871,-0.8657,-0.8476,-0.7984,-0.7316,-0.6694,-0.6254,-0.5366,-0.4701,-0.4701,-0.4478,-0.43,-0.43,-0.43,-0.4277,-0.4226,-0.4055,-0.3936,-0.3901,-0.3853,-0.3428,-0.2532,-0.2508,-0.2077,-0.1139,-0.1127,-0.1063,-0.1049,-0.1049,-0.1049,-0.1049,-0.1049,-0.1059,0.0,0.0,0.0,0.0,0.0,0.0,0.0,0.0,0.0,0.0,0.0,-1.0514,-1.1318,-1.1465,-1.1889,-1.3221,-1.4155,0.0,0.0,0.0,0.0,0.0,0.0,0.0,0.0,0.0,0.0,0.0,0.0,0.0,0.0,0.0,-1.8,-1.7959,-1.7959,-1.7797,-1.7432,-1.7392,-1.7392,-1.7392,-1.6997,-1.7013,-1.7419,-1.7064,0.0,0.0,0.0,0.0,0.0,-1.5639,-1.5169,-1.446,-1.3294,-1.2643,-1.232,-1.1559,-1.1305,-1.1305,-1.1305,-1.1305,-1.1305,-1.1305,-1.1305,-1.1305,-1.1305,-1.1305,-1.1305,-1.1305,-1.1321,-1.1332,-1.1332,-1.1493,-1.1704,-1.172,-1.1665,-1.1444,-1.0738,-1.0244,-0.9719,-0.8951,-0.8674,-0.8612,-0.8612,-0.7984,-0.7489,-0.7489,-0.6299,-0.5416,-0.5416,-0.4746,-0.43,-0.43,-0.43,-0.43,-0.43,-0.4142,-0.3964,-0.3916,-0.3864,-0.3417,-0.255,-0.2495,-0.2099,-0.1207,-0.114,-0.111,-0.1116,-0.1113,-0.1113,-0.1113,-0.1111,-0.1109,0.0,0.0,0.0,0.0,0.0,0.0,0.0,0.0,0.0,0.0,0.0,-0.9255,-1.0002,-1.071,-1.1533,-1.2564,0.0,0.0,0.0,0.0,0.0,0.0,0.0,0.0,0.0,0.0,0.0,0.0,0.0,0.0,0.0,0.0,-1.7878,-1.7554,-1.7554,-1.7635,-1.7878,-1.7554,-1.7392,-1.7392,-1.6936,-1.667,-1.6523,-1.6685,0.0,0.0,0.0,0.0,-1.556,-1.4743,-1.4262,-1.394,-1.263,-1.226,-1.232,-1.1559,-1.1305,-1.1305,-1.1305,-1.1305,-1.1305,-1.1305,-1.1305,-1.1305,-1.1305,-1.1305,-1.1305,-1.1305,-1.1434,-1.1618,-1.1618,-1.1661,-1.1747,-1.197,-1.1557,-1.095,-1.045,-0.9979,-0.9437,-0.8774,-0.8641,-0.8612,-0.8612,-0.7984,-0.7489,-0.7489,-0.6299,-0.5416,-0.5416,-0.4746,-0.43,-0.43,-0.43,-0.43,-0.43,-0.4202,-0.4102,-0.3968,-0.3918,-0.3478,-0.2552,-0.2496,-0.2077,-0.1202,-0.1171,-0.1188,-0.1181,-0.1122,-0.111,-0.111,-0.1087,-0.1109,0.0,0.0,0.0,0.0,0.0,0.0,0.0,0.0,0.0,0.0,0.0,0.0,-0.9707,0.0,0.0,0.0,0.0,0.0,0.0,0.0,0.0,0.0,0.0,0.0,0.0,0.0,0.0,0.0,0.0,0.0,0.0,0.0,-1.731,-1.7106,-1.7066,-1.7106,-1.7147,-1.6902,-1.6787,-1.6787,-1.6541,-1.6266,-1.5975,-1.6333,0.0,0.0,0.0,0.0,-1.58,-1.5014,-1.4396,-1.3856,-1.2948,-1.2282,-1.186,-1.1435,-1.1305,-1.1305,-1.1305,-1.1305,-1.1305,-1.1305,-1.1305,-1.1305,-1.1305,-1.1305,-1.1305,-1.1305,-1.1477,-1.1698,-1.1698,-1.186,-1.2032,-1.2089,-1.1764,-1.1293,-1.0661,-1.0089,-0.9562,-0.8931,-0.8722,-0.8612,-0.8612,-0.8252,-0.8025,-0.8025,-0.6786,-0.5858,-0.5858,-0.4966,-0.43,-0.43,-0.43,-0.43,-0.43,-0.4257,-0.4104,-0.3803,-0.3682,-0.3189,-0.2273,-0.2208,-0.19,-0.1213,-0.1182,-0.1203,-0.1203,-0.115,-0.1142,-0.1141,-0.111,-0.1097,0.0,0.0,0.0,0.0,0.0,0.0,0.0,0.0,0.0,0.0,0.0,0.0,0.0,0.0,0.0,0.0,0.0,0.0,0.0,0.0,0.0,0.0,0.0,0.0,0.0,0.0,0.0,0.0,0.0,0.0,0.0,0.0,0.0,-1.6607,-1.6615,-1.6409,-1.6004,-1.6046,-1.6087,-1.6087,-1.6046,-1.584,-1.5576,-1.5929,-1.5701,0.0,0.0,0.0,-1.5967,-1.544,-1.4705,-1.3772,-1.3322,-1.2382,-1.1305,-1.1305,-1.1305,-1.1305,-1.1305,-1.1305,-1.1316,-1.1348,-1.1359,-1.137,-1.1402,-1.1391,-1.137,-1.1402,-1.1575,-1.1698,-1.1698,-1.2,-1.2264,-1.2137,-1.2021,-1.1681,-1.0895,-1.0281,-0.9739,-0.9146,-0.8771,-0.8612,-0.8612,-0.8633,-0.8641,-0.8616,-0.7473,-0.6542,-0.6432,-0.5277,-0.4433,-0.43,-0.43,-0.43,-0.43,-0.43,-0.4045,-0.3451,-0.3347,-0.2888,-0.194,-0.1823,-0.1632,-0.1219,-0.1231,-0.1217,-0.1217,-0.1212,-0.121,-0.1209,-0.1142,-0.1128,0.0,0.0,0.0,0.0,0.0,0.0,0.0,0.0,0.0,0.0,0.0,0.0,0.0,0.0,0.0,0.0,0.0,0.0,0.0,0.0,0.0,0.0,0.0,0.0,0.0,0.0,0.0,0.0,0.0,0.0,0.0,0.0,0.0,-1.6211,-1.6211,-1.5963,-1.5514,-1.5888,-1.6087,-1.6087,-1.5714,-1.5356,-1.5035,-1.5368,-1.5309,0.0,0.0,-1.5309,-1.5054,-1.4393,-1.3729,-1.2994,-1.2367,-1.1795,-1.1305,-1.1305,-1.1305,-1.1305,-1.1305,-1.1305,-1.1337,-1.158,-1.1645,-1.1682,-1.1927,-1.1806,-1.1688,-1.1932,-1.1822,-1.1698,-1.1698,-1.1752,-1.1849,-1.2056,-1.1575,-1.095,-1.0479,-0.9957,-0.9419,-0.8799,-0.8649,-0.8612,-0.8612,-0.8686,-0.8731,-0.8633,-0.8016,-0.7285,-0.6488,-0.5725,-0.5015,-0.4387,-0.43,-0.43,-0.43,-0.43,-0.3935,-0.3032,-0.3254,-0.2956,-0.1935,-0.1573,-0.1372,-0.1289,-0.1284,-0.1282,-0.1282,-0.1217,-0.1204,-0.1204,-0.1174,-0.1196,-0.7112,-0.7539,0.0,0.0,0.0,0.0,0.0,0.0,0.0,0.0,0.0,0.0,0.0,0.0,0.0,0.0,0.0,0.0,0.0,0.0,0.0,0.0,0.0,0.0,0.0,0.0,0.0,0.0,0.0,0.0,0.0,0.0,0.0,0.0,-1.5446,-1.5283,-1.4911,-1.5283,-1.5535,-1.5714,-1.5514,-1.5214,-1.4915,-1.5236,-1.5206,-1.4922,0.0,-1.5199,-1.4874,-1.4755,-1.422,-1.3389,-1.2881,-1.239,-1.186,-1.1435,-1.1305,-1.1305,-1.1305,-1.1305,-1.1327,-1.1434,-1.1466,-1.1532,-1.1639,-1.1596,-1.1488,-1.1639,-1.1682,-1.1731,-1.19,-1.1932,-1.1927,-1.191,-1.1415,-1.0806,-1.0353,-0.9817,-0.926,-0.8787,-0.8629,-0.8612,-0.8612,-0.871,-0.8792,-0.8714,-0.8185,-0.7521,-0.6686,-0.59,-0.5104,-0.4389,-0.43,-0.43,-0.43,-0.4076,-0.3595,-0.2907,-0.2535,-0.2096,-0.1603,-0.1402,-0.1281,-0.1281,-0.1305,-0.1296,-0.1296,-0.1282,-0.1228,-0.1211,-0.1217,-0.1194,-0.7112,-0.7435,0.0,0.0,0.0,0.0,0.0,0.0,0.0,0.0,0.0,0.0,0.0,0.0,0.0,0.0,0.0,0.0,0.0,0.0,0.0,0.0,0.0,0.0,0.0,0.0,0.0,0.0,0.0,0.0,0.0,0.0,0.0,0.0,-1.4944,-1.4783,-1.4582,-1.4783,-1.5024,-1.5272,-1.5352,-1.5258,-1.5024,-1.5272,-1.525,-1.5024,-1.5199,-1.509,-1.4805,-1.5021,-1.4565,-1.377,-1.3448,-1.2877,-1.2238,-1.1709,-1.1435,-1.1316,-1.137,-1.1354,-1.1327,-1.1434,-1.1472,-1.1493,-1.1606,-1.1557,-1.1482,-1.1541,-1.1563,-1.1661,-1.1838,-1.1932,-1.1838,-1.1661,-1.1264,-1.0771,-1.0236,-0.9716,-0.9169,-0.8824,-0.8658,-0.8624,-0.8621,-0.8771,-0.8885,-0.8885,-0.8459,-0.7859,-0.7057,-0.6232,-0.5399,-0.4659,-0.4389,-0.4255,-0.4166,-0.3719,-0.3221,-0.2677,-0.1843,-0.1356,-0.1305,-0.1303,-0.1299,-0.1292,-0.1309,-0.1296,-0.1296,-0.1296,-0.1284,-0.1222,-0.1236,-0.1171,-0.7112,-0.7435,0.0,0.0,0.0,0.0,0.0,0.0,0.0,0.0,0.0,0.0,0.0,0.0,0.0,0.0,0.0,0.0,0.0,0.0,0.0,0.0,0.0,0.0,0.0,0.0,0.0,0.0,0.0,0.0,0.0,0.0,0.0,0.0,0.0,-1.4893,-1.4863,-1.4893,-1.4915,-1.4944,-1.5243,-1.5374,-1.5352,-1.5374,-1.5374,-1.5338,-1.5061,-1.4794,-1.4518,-1.424,-1.3846,-1.3416,-1.3126,-1.2573,-1.1951,-1.2074,-1.1774,-1.1337,-1.1596,-1.1532,-1.138,-1.19,-1.2046,-1.2127,-1.2575,-1.2397,-1.2094,-1.2274,-1.1831,-1.1337,-1.1354,-1.1359,-1.1354,-1.1337,-1.0975,-1.0531,-1.0101,-0.9616,-0.9178,-0.8712,-0.862,-0.8617,-0.8775,-0.8954,-0.908,-0.908,-0.9214,-0.891,-0.7861,-0.7086,-0.6258,-0.5426,-0.4701,-0.4121,-0.3676,-0.3227,-0.2708,-0.2171,-0.162,-0.1295,-0.1304,-0.1303,-0.1289,-0.13,-0.1298,-0.1296,-0.1296,-0.1296,-0.1295,-0.1293,-0.1291,-0.1273,-0.7112,-0.7435,0.0,0.0,0.0,0.0,0.0,0.0,0.0,0.0,0.0,0.0,0.0,0.0,0.0,0.0,0.0,0.0,0.0,0.0,0.0,0.0,0.0,0.0,0.0,0.0,0.0,0.0,0.0,0.0,0.0,0.0,0.0,0.0,0.0,-1.4245,-1.4048,-1.4245,-1.4348,-1.4348,-1.4677,-1.4831,-1.4831,-1.4831,-1.494,-1.5068,-1.4787,-1.4582,-1.4496,-1.4372,-1.4115,-1.3736,-1.3374,-1.2935,-1.2508,-1.2275,-1.2118,-1.1997,-1.1964,-1.1763,-1.1623,-1.1986,-1.2094,-1.21,-1.2091,-1.1973,-1.1822,-1.1724,-1.1514,-1.1343,-1.1532,-1.1418,-1.1305,-1.1305,-1.0733,-1.0207,-1.0038,-0.9482,-0.8913,-0.8633,-0.8653,-0.8743,-0.8808,-0.8974,-0.9133,-0.929,-0.9222,-0.8906,-0.8027,-0.7517,-0.6754,-0.551,-0.4746,-0.3987,-0.3226,-0.3002,-0.2546,-0.1729,-0.1452,-0.1338,-0.1291,-0.1289,-0.1316,-0.1286,-0.1307,-0.1296,-0.1296,-0.1296,-0.1286,-0.1229,-0.1229,-0.1213,-0.7112,-0.7381,0.0,0.0,0.0,0.0,0.0,0.0,0.0,0.0,0.0,0.0,0.0,0.0,0.0,0.0,0.0,0.0,0.0,0.0,0.0,0.0,0.0,0.0,0.0,0.0,0.0,0.0,0.0,0.0,0.0,0.0,0.0,0.0,0.0,0.0,-1.3653,-1.391,-1.3968,-1.3828,-1.4055,-1.4313,-1.4511,-1.4511,-1.464,-1.4885,-1.4611,-1.4511,-1.4496,-1.4401,-1.4121,-1.3835,-1.3772,-1.3405,-1.293,-1.302,-1.2734,-1.2365,-1.2513,-1.2184,-1.1736,-1.2019,-1.2046,-1.197,-1.1883,-1.1758,-1.1682,-1.1596,-1.1418,-1.1321,-1.1462,-1.1258,-1.1041,-1.0911,-1.0304,-0.9795,-0.9812,-0.9312,-0.8804,-0.8747,-0.8828,-0.8926,-0.8982,-0.9092,-0.9238,-0.9417,-0.934,-0.9049,-0.8509,-0.7982,-0.7062,-0.5557,-0.4746,-0.3941,-0.3001,-0.2911,-0.2465,-0.148,-0.1391,-0.1365,-0.1308,-0.1305,-0.1288,-0.1289,-0.1307,-0.1296,-0.1296,-0.1296,-0.1285,-0.1226,-0.1226,-0.121,-0.7112,0.0,0.0,0.0,0.0,0.0,0.0,0.0,0.0,0.0,0.0,0.0,0.0,0.0,0.0,0.0,0.0,0.0,0.0,0.0,0.0,0.0,0.0,0.0,0.0,0.0,0.0,0.0,0.0,0.0,0.0,0.0,0.0,0.0,0.0,0.0,-1.402,-1.402,-1.3814,-1.3499,-1.3499,-1.3843,-1.4504,-1.4504,-1.464,-1.4885,-1.4611,-1.4511,-1.4482,-1.4114,-1.3784,-1.3558,-1.4247,-1.3867,-1.3149,-1.4349,-1.37,-1.2351,-1.3262,-1.278,-1.1736,-1.2019,-1.1937,-1.1747,-1.2019,-1.1927,-1.1747,-1.2019,-1.1709,-1.1234,-1.1018,-1.0769,-1.0511,-1.0081,-0.965,-0.9358,-0.945,-0.9137,-0.8881,-0.906,-0.91,-0.9153,-0.9371,-0.9404,-0.9465,-0.96,-0.9575,-0.9555,-0.942,-0.8568,-0.7323,-0.5573,-0.4746,-0.3896,-0.3001,-0.2911,-0.2465,-0.148,-0.1391,-0.1365,-0.1309,-0.1306,-0.132,-0.1298,-0.1297,-0.1297,-0.1297,-0.1297,-0.1297,-0.1296,-0.1296,-0.128,-0.7112,0.0,0.0,0.0,0.0,0.0,0.0,0.0,0.0,0.0,0.0,0.0,0.0,0.0,0.0,0.0,0.0,0.0,0.0,0.0,0.0,0.0,0.0,0.0,0.0,0.0,0.0,0.0,0.0,0.0,0.0,0.0,0.0,0.0,0.0,0.0,-1.3638,-1.3638,-1.3704,-1.3836,-1.3836,-1.3976,-1.4166,-1.4166,-1.4421,-1.4885,-1.4611,-1.4511,-1.4467,-1.3865,-1.3587,-1.3514,-1.3711,-1.3752,-1.3727,-1.4014,-1.3786,-1.3374,-1.33,-1.2897,-1.2387,-1.215,-1.2046,-1.197,-1.1833,-1.1752,-1.1677,-1.1585,-1.1184,-1.074,-1.0479,-1.0121,-0.986,-0.9984,-0.9707,-0.9468,-0.9476,-0.9338,-0.9177,-0.9112,-0.9198,-0.9343,-0.9396,-0.9404,-0.9465,-0.96,-0.9417,-0.9145,-0.8886,-0.7705,-0.6697,-0.6174,-0.4743,-0.354,-0.2957,-0.2599,-0.2108,-0.1436,-0.1391,-0.1374,-0.1379,-0.1378,-0.1359,-0.128,-0.128,-0.1311,-0.1289,-0.1289,-0.1318,-0.1296,-0.1296,-0.1291,0.0,0.0,0.0,0.0,0.0,0.0,0.0,0.0,0.0,0.0,0.0,0.0,0.0,0.0,0.0,0.0,0.0,0.0,0.0,0.0,0.0,0.0,0.0,0.0,0.0,0.0,0.0,0.0,0.0,0.0,0.0,0.0,0.0,0.0,0.0,0.0,-1.3492,-1.3492,-1.366,-1.3982,-1.3982,-1.4114,-1.4355,-1.4231,-1.4457,-1.4893,-1.4743,-1.4655,-1.4604,-1.3953,-1.3689,-1.3689,-1.3689,-1.3733,-1.3849,-1.4139,-1.4076,-1.3851,-1.3798,-1.3312,-1.2674,-1.2434,-1.2108,-1.1747,-1.1602,-1.1558,-1.1553,-1.1455,-1.106,-1.0581,-1.04,-0.9903,-0.9478,-0.9611,-0.9422,-0.924,-0.932,-0.9225,-0.9153,-0.9194,-0.9331,-0.9424,-0.9449,-0.9453,-0.9441,-0.9502,-0.9279,-0.8995,-0.8706,-0.7678,-0.6802,-0.6435,-0.4964,-0.3717,-0.2957,-0.2466,-0.1974,-0.1436,-0.1391,-0.1382,-0.1409,-0.1396,-0.1377,-0.1306,-0.1294,-0.1286,-0.132,-0.1296,-0.1281,-0.1314,-0.1303,-0.1296,0.0,0.0,0.0,0.0,0.0,0.0,0.0,0.0,0.0,0.0,0.0,0.0,0.0,0.0,0.0,0.0,0.0,0.0,0.0,0.0,0.0,0.0,0.0,0.0,0.0,0.0,0.0,0.0,0.0,0.0,0.0,0.0,0.0,0.0,0.0,0.0,-1.3448,-1.3418,-1.3572,0.0,-1.3894,-1.4231,-1.4805,-1.4589,-1.464,-1.49,-1.49,-1.49,-1.4856,-1.4282,-1.4064,-1.4026,-1.3996,-1.3799,-1.3645,-1.4491,-1.4425,-1.3961,-1.452,-1.3859,-1.2748,-1.2698,-1.2034,-1.1305,-1.1305,-1.1305,-1.1354,-1.1607,-1.111,-1.0562,-1.0575,-0.9908,-0.9252,-0.9128,-0.8978,-0.8893,-0.906,-0.8978,-0.8966,-0.9339,-0.9404,-0.9457,-0.9575,-0.9466,-0.9392,-0.9359,-0.9173,-0.9007,-0.882,-0.8208,-0.7427,-0.6488,-0.5272,-0.4113,-0.3001,-0.2422,-0.193,-0.1436,-0.1391,-0.1391,-0.1391,-0.1409,-0.1382,-0.1314,-0.1326,-0.1323,-0.1305,-0.129,-0.1316,-0.1302,-0.1311,-0.1298,0.0,0.0,0.0,0.0,0.0,0.0,0.0,0.0,0.0,0.0,0.0,0.0,0.0,0.0,0.0,0.0,0.0,0.0,0.0,0.0,0.0,0.0,0.0,0.0,0.0,0.0,0.0,0.0,0.0,0.0,0.0,0.0,0.0,0.0,0.0,-1.3111,-1.3111,-1.2855,-1.2892,0.0,-1.3221,-1.3558,-1.4194,-1.4423,-1.464,-1.49,-1.49,-1.49,-1.4871,-1.4523,-1.4401,-1.4379,-1.4084,-1.3976,-1.3901,-1.4114,-1.427,-1.4302,-1.4138,-1.3703,-1.3181,-1.266,-1.1942,-1.1305,-1.1305,-1.1305,-1.1321,-1.137,-1.0773,-1.0139,-1.0267,-0.9588,-0.8989,-0.9261,-0.9165,-0.9047,-0.9088,-0.9173,-0.931,-0.9388,-0.9404,-0.9416,-0.9457,-0.9429,-0.9306,-0.8978,-0.8905,-0.8816,-0.8645,-0.7989,-0.7262,-0.6479,-0.5006,-0.3758,-0.2956,-0.2062,-0.1525,-0.1391,-0.1391,-0.1391,-0.1391,-0.1384,-0.1378,-0.1372,-0.1386,-0.1363,-0.1305,-0.1311,-0.1296,-0.1302,-0.1311,-0.131,0.0,0.0,0.0,0.0,0.0,0.0,0.0,0.0,0.0,0.0,0.0,0.0,0.0,0.0,0.0,0.0,0.0,0.0,0.0,0.0,0.0,0.0,0.0,0.0,0.0,0.0,0.0,0.0,0.0,0.0,0.0,0.0,0.0,0.0,-1.2775,-1.2775,-1.2775,-1.2606,-1.2767,-1.3243,-1.3082,-1.3265,-1.377,-1.4291,-1.4599,-1.4721,-1.4721,-1.4761,-1.4878,-1.4596,-1.4599,-1.4648,-1.4165,-1.4115,-1.4218,-1.3865,-1.4055,-1.4487,-1.4251,-1.3933,-1.3625,-1.3425,-1.2662,-1.1817,-1.1817,-1.1564,-1.1305,-1.1305,-1.0824,-1.0256,-1.0211,-0.9678,-0.9158,-0.9259,-0.9165,-0.912,-0.9202,-0.9273,-0.9302,-0.9388,-0.9335,-0.9306,-0.9388,-0.9335,-0.9137,-0.8861,-0.882,-0.8759,-0.8633,-0.8252,-0.7628,-0.6517,-0.5225,-0.4024,-0.3001,-0.1973,-0.1391,-0.1391,-0.1391,-0.1391,-0.1391,-0.1391,-0.1391,-0.1391,-0.1406,-0.139,-0.1346,-0.1304,-0.1331,-0.1343,-0.1314,-0.1309,0.0,0.0,0.0,0.0,0.0,0.0,0.0,0.0,0.0,0.0,0.0,0.0,0.0,0.0,0.0,0.0,0.0,0.0,0.0,0.0,0.0,0.0,0.0,0.0,0.0,0.0,0.0,0.0,0.0,0.0,0.0,0.0,-1.2434,-1.2485,-1.2434,-1.2456,-1.2606,-1.2456,-1.2738,-1.3323,-1.3111,-1.3119,-1.3353,-1.3945,-1.4313,-1.443,-1.4482,-1.4618,-1.4805,-1.4633,-1.4706,-1.4849,-1.4355,-1.4311,-1.4472,-1.3821,-1.396,-1.4496,-1.4445,-1.4141,-1.3872,-1.4213,-1.3403,-1.233,-1.2291,-1.1783,-1.1209,-1.1203,-1.0776,-1.0333,-1.0213,-0.9759,-0.9313,-0.9095,-0.9051,-0.9088,-0.9277,-0.9153,-0.91,-0.9322,-0.9198,-0.9141,-0.9335,-0.9165,-0.8999,-0.8844,-0.882,-0.8759,-0.8633,-0.8612,-0.8076,-0.6741,-0.5622,-0.4465,-0.3179,-0.2061,-0.1391,-0.1391,-0.1391,-0.1391,-0.1391,-0.1391,-0.1391,-0.1391,-0.1406,-0.1402,-0.1383,-0.1331,-0.1319,-0.1389,-0.1318,-0.1308,0.0,0.0,0.0,0.0,0.0,0.0,0.0,0.0,0.0,0.0,0.0,0.0,0.0,0.0,0.0,0.0,0.0,0.0,0.0,0.0,0.0,0.0,0.0,0.0,0.0,0.0,0.0,0.0,0.0,0.0,0.0,-1.1948,-1.2193,-1.2477,-1.2215,-1.2339,-1.2943,-1.2353,-1.2251,-1.2658,-1.2892,-1.2884,-1.2665,-1.3031,-1.3514,-1.4062,-1.4386,-1.4533,-1.4553,-1.4787,-1.4863,-1.4893,-1.4805,-1.4805,-1.4761,-1.4157,-1.415,-1.4467,-1.4181,-1.3814,-1.3518,-1.3865,-1.3136,-1.2101,-1.1841,-1.14,-1.09,-1.0758,-1.0077,-0.9568,-0.9945,-0.9385,-0.873,-0.8816,-0.8857,-0.8865,-0.8885,-0.8873,-0.8913,-0.9096,-0.9112,-0.9104,-0.9129,-0.8978,-0.8848,-0.8824,-0.882,-0.8759,-0.8633,-0.8612,-0.8296,-0.7445,-0.593,-0.4645,-0.3848,-0.233,-0.1391,-0.1391,-0.1391,-0.1391,-0.1391,-0.1391,-0.1391,-0.1391,-0.1406,-0.1392,-0.1396,-0.1321,-0.1319,-0.1389,-0.1318,-0.1318,0.0,0.0,0.0,0.0,0.0,0.0,0.0,0.0,0.0,0.0,0.0,0.0,0.0,0.0,0.0,0.0,0.0,0.0,0.0,0.0,0.0,0.0,0.0,0.0,0.0,0.0,0.0,0.0,0.0,0.0,-1.1628,-1.186,-1.2069,-1.2215,-1.2251,-1.2412,-1.2731,-1.2419,-1.2346,-1.2499,-1.3038,-1.3016,-1.2499,-1.2855,-1.3067,-1.317,-1.3316,-1.3484,-1.3675,-1.3996,-1.4238,-1.4421,-1.4604,-1.4677,-1.4618,-1.4157,-1.407,-1.4218,-1.4071,-1.388,-1.3807,-1.4126,-1.3273,-1.2121,-1.2016,-1.1229,-1.0386,-1.0269,-1.0036,-0.9797,-0.9634,-0.9503,-0.9351,-0.8898,-0.8897,-0.8974,-0.8974,-0.8974,-0.897,-0.8946,-0.8942,-0.8942,-0.8942,-0.8962,-0.8974,-0.8974,-0.9056,-0.9019,-0.8743,-0.871,-0.8354,-0.7367,-0.5933,-0.4643,-0.3803,-0.2285,-0.1391,-0.1391,-0.1391,-0.1391,-0.1391,-0.1391,-0.1391,-0.1391,-0.1422,-0.1415,-0.1415,-0.1359,-0.1359,-0.1415,-0.1359,-0.136,0.0,0.0,0.0,0.0,0.0,0.0,0.0,0.0,0.0,0.0,0.0,0.0,0.0,0.0,0.0,0.0,0.0,0.0,0.0,0.0,0.0,0.0,0.0,0.0,0.0,0.0,0.0,0.0,0.0,0.0,-1.1628,-1.186,-1.204,-1.212,-1.2361,-1.2565,-1.2733,-1.2733,-1.2733,-1.2775,-1.3177,-1.3075,-1.2526,-1.2653,-1.2594,-1.2375,-1.2543,-1.2782,-1.3038,-1.3448,-1.3762,-1.4011,-1.4379,-1.4555,-1.4553,-1.4223,-1.4157,-1.4216,-1.4136,-1.3972,-1.3843,-1.4161,-1.3187,-1.1867,-1.1839,-1.0921,-0.9894,-0.9867,-0.9915,-0.9849,-0.9469,-0.9601,-0.9703,-0.905,-0.8999,-0.9084,-0.9039,-0.9096,-0.9108,-0.8926,-0.8926,-0.8958,-0.8958,-0.9072,-0.9149,-0.9104,-0.9206,-0.9173,-0.8861,-0.882,-0.8452,-0.7567,-0.6281,-0.5068,-0.3967,-0.2617,-0.1717,-0.1447,-0.1446,-0.1398,-0.1391,-0.1397,-0.1398,-0.1391,-0.1391,-0.1391,-0.1391,-0.1391,-0.1391,-0.1391,-0.1391,-0.1391,0.0,0.0,0.0,0.0,0.0,0.0,0.0,0.0,0.0,0.0,0.0,0.0,0.0,0.0,0.0,0.0,0.0,0.0,0.0,0.0,0.0,0.0,0.0,0.0,0.0,0.0,0.0,0.0,0.0,0.0,-1.1613,-1.186,-1.2142,-1.2448,-1.2477,-1.2819,-1.344,-1.3448,-1.3448,-1.344,-1.317,-1.2855,-1.2477,-1.2186,-1.204,-1.2062,-1.2716,-1.2994,-1.306,-1.3697,-1.3967,-1.4011,-1.4379,-1.4655,-1.4842,-1.456,-1.4633,-1.4812,-1.4545,-1.3884,-1.3182,-1.3531,-1.2389,-1.0862,-1.0942,-1.0308,-0.9525,-0.9504,-0.935,-0.9225,-0.9438,-0.9321,-0.9155,-0.9088,-0.9092,-0.9047,-0.8873,-0.9104,-0.9339,-0.9116,-0.9214,-0.9375,-0.9375,-0.9384,-0.9335,-0.912,-0.9104,-0.9039,-0.8844,-0.882,-0.8684,-0.845,-0.7429,-0.6237,-0.4785,-0.3634,-0.2581,-0.157,-0.1478,-0.1466,-0.1391,-0.1463,-0.1465,-0.1391,-0.1391,-0.1391,-0.1391,-0.1391,-0.1391,-0.1391,-0.1391,-0.1391,0.0,0.0,0.0,0.0,0.0,0.0,0.0,0.0,0.0,0.0,0.0,0.0,0.0,0.0,0.0,0.0,0.0,0.0,0.0,0.0,0.0,0.0,0.0,0.0,0.0,0.0,0.0,0.0,0.0,0.0,-1.2197,-1.2482,-1.2716,-1.2833,-1.3038,-1.3258,-1.3492,-1.3492,-1.3492,-1.3492,-1.3375,-1.3038,-1.2492,-1.2587,-1.2397,-1.204,-1.2723,-1.2892,-1.2696,-1.3177,-1.336,-1.3411,-1.3945,-1.4231,-1.434,-1.4474,-1.4406,-1.4311,-1.4194,-1.3825,-1.3312,-1.3044,-1.1986,-1.0738,-1.038,-0.9525,-0.8738,-0.8745,-0.891,-0.9077,-0.8955,-0.9183,-0.9409,-0.9291,-0.9352,-0.9388,-0.9202,-0.9314,-0.9351,-0.9133,-0.9145,-0.919,-0.919,-0.9331,-0.938,-0.9318,-0.9364,-0.9324,-0.8954,-0.893,-0.8699,-0.8173,-0.7219,-0.6098,-0.4746,-0.367,-0.2631,-0.1573,-0.1463,-0.1446,-0.1391,-0.1401,-0.1446,-0.1391,-0.1391,-0.1391,-0.1391,-0.1391,-0.1391,-0.1391,-0.1391,-0.1391,0.0,0.0,0.0,0.0,0.0,0.0,0.0,0.0,0.0,0.0,0.0,0.0,0.0,0.0,0.0,0.0,0.0,0.0,0.0,0.0,0.0,0.0,0.0,0.0,0.0,0.0,0.0,0.0,0.0,0.0,-1.2499,-1.2833,-1.306,-1.317,-1.3382,-1.344,-1.3331,-1.344,-1.344,-1.3331,-1.3331,-1.3045,-1.2492,-1.2594,-1.2412,-1.2032,-1.258,-1.2782,-1.2674,-1.3038,-1.317,-1.3228,-1.377,-1.4048,-1.4225,-1.4509,-1.4487,-1.4318,-1.4428,-1.3992,-1.3335,-1.3023,-1.1866,-1.0517,-1.009,-0.9227,-0.8379,-0.8314,-0.8678,-0.9031,-0.8731,-0.9137,-0.9596,-0.9474,-0.9539,-0.9596,-0.9474,-0.9445,-0.9413,-0.9295,-0.9275,-0.9275,-0.9275,-0.9368,-0.9473,-0.9412,-0.9409,-0.9299,-0.9035,-0.8873,-0.8581,-0.8055,-0.7424,-0.6418,-0.4751,-0.4005,-0.3039,-0.1604,-0.1483,-0.1415,-0.1451,-0.147,-0.1467,-0.1391,-0.14,-0.14,-0.1391,-0.1391,-0.1391,-0.1391,-0.1391,-0.1391,0.0,0.0,0.0,0.0,0.0,0.0,0.0,0.0,0.0,0.0,0.0,0.0,0.0,0.0,0.0,0.0,0.0,0.0,0.0,0.0,0.0,0.0,0.0,0.0,0.0,0.0,0.0,0.0,0.0,-1.2514,-1.2514,-1.2848,-1.317,-1.3484,-1.3484,-1.3331,-1.3009,-1.3323,-1.3323,-1.3009,-1.3016,-1.2848,-1.2477,-1.2171,-1.2018,-1.2018,-1.2346,-1.2674,-1.3031,-1.336,-1.3492,-1.3528,-1.3857,-1.4218,-1.4548,-1.4783,-1.4893,-1.4936,-1.525,-1.4372,-1.3182,-1.3478,-1.2055,-1.0209,-1.0147,-0.9399,-0.8561,-0.8366,-0.8678,-0.906,-0.8889,-0.923,-0.9571,-0.9575,-0.9579,-0.9579,-0.9579,-0.9579,-0.9579,-0.9579,-0.9579,-0.9579,-0.9579,-0.9575,-0.9559,-0.9437,-0.9168,-0.9024,-0.8972,-0.8587,-0.8266,-0.8186,-0.8204,-0.7227,-0.4838,-0.4658,-0.3833,-0.1764,-0.154,-0.1511,-0.1483,-0.1586,-0.1528,-0.1395,-0.1466,-0.1466,-0.1392,-0.1391,-0.1391,-0.1391,-0.1391,-0.1391,-0.8547,0.0,0.0,0.0,0.0,0.0,0.0,0.0,0.0,0.0,0.0,0.0,0.0,0.0,0.0,0.0,0.0,0.0,0.0,0.0,0.0,0.0,0.0,0.0,0.0,0.0,0.0,0.0,-1.3228,-1.3228,-1.3228,-1.3309,-1.3404,-1.3492,-1.3265,-1.3104,-1.3009,-1.3097,-1.3097,-1.3009,-1.325,-1.3067,-1.2526,-1.2672,-1.2448,-1.2018,-1.2346,-1.2674,-1.3031,-1.336,-1.3492,-1.3528,-1.3857,-1.4218,-1.4548,-1.4783,-1.4794,-1.4611,-1.4706,-1.4321,-1.3686,-1.3345,-1.2188,-1.0835,-1.0367,-0.938,-0.8354,-0.8318,-0.8678,-0.9145,-0.9352,-0.9417,-0.9466,-0.9596,-0.9579,-0.9579,-0.9579,-0.9579,-0.9579,-0.9579,-0.9579,-0.9579,-0.9579,-0.9518,-0.9458,-0.9539,-0.9393,-0.9164,-0.8783,-0.8597,-0.8306,-0.7811,-0.7756,-0.7178,-0.5741,-0.4982,-0.3989,-0.2686,-0.1861,-0.143,-0.1512,-0.1508,-0.1504,-0.1454,-0.1487,-0.1476,-0.1468,-0.1446,-0.1391,-0.1391,-0.1391,-0.1391,0.0,0.0,0.0,0.0,0.0,0.0,0.0,-0.9271,0.0,0.0,0.0,0.0,0.0,0.0,0.0,0.0,0.0,0.0,0.0,0.0,0.0,0.0,0.0,0.0,0.0,0.0,0.0,0.0,-1.3418,-1.3492,-1.3492,-1.3236,-1.3148,-1.3287,-1.298,-1.2704,-1.2565,-1.287,-1.2943,-1.2811,-1.3272,-1.3221,-1.2696,-1.2782,-1.2485,-1.201,-1.2207,-1.2397,-1.2602,-1.3104,-1.3448,-1.3733,-1.41,-1.4384,-1.4706,-1.4988,-1.486,-1.4526,-1.4618,-1.4236,-1.3612,-1.3433,-1.2542,-1.1387,-1.0632,-0.9676,-0.8739,-0.8317,-0.8564,-0.9047,-0.9332,-0.9437,-0.9478,-0.9506,-0.9571,-0.9579,-0.9579,-0.9579,-0.9579,-0.9579,-0.9579,-0.9604,-0.9527,-0.9473,-0.9416,-0.9401,-0.9216,-0.8958,-0.8533,-0.8332,-0.8045,-0.7647,-0.7543,-0.7103,-0.6067,-0.512,-0.4087,-0.3046,-0.2068,-0.1502,-0.1477,-0.1534,-0.1534,-0.1478,-0.1521,-0.1506,-0.148,-0.1451,-0.1391,-0.1391,-0.1391,-0.1345,0.0,0.0,0.0,0.0,0.0,0.0,-0.8553,-0.8745,-0.8844,0.0,0.0,0.0,0.0,0.0,0.0,0.0,0.0,0.0,0.0,0.0,0.0,0.0,0.0,0.0,0.0,0.0,-1.2848,-1.2848,-1.3148,-1.3353,-1.3389,-1.284,-1.2658,-1.2943,-1.2602,-1.2295,-1.2003,-1.258,-1.2775,-1.2499,-1.3148,-1.3287,-1.2994,-1.2638,-1.231,-1.2003,-1.1967,-1.1967,-1.2047,-1.2623,-1.3287,-1.3946,-1.4313,-1.4611,-1.4885,-1.5177,-1.4962,-1.454,-1.471,-1.4113,-1.3293,-1.3579,-1.2931,-1.1853,-1.1,-1.0184,-0.9368,-0.8374,-0.8446,-0.8865,-0.9047,-0.9344,-0.9555,-0.9441,-0.9494,-0.9579,-0.9579,-0.9579,-0.9579,-0.9579,-0.9579,-0.9575,-0.9461,-0.94,-0.9326,-0.9145,-0.8897,-0.8586,-0.8311,-0.7954,-0.7689,-0.7583,-0.7428,-0.7034,-0.623,-0.5289,-0.426,-0.3236,-0.2272,-0.1698,-0.1532,-0.1583,-0.1588,-0.1489,-0.1559,-0.1589,-0.148,-0.1451,-0.1391,-0.1391,-0.1391,-0.13,0.0,0.0,0.0,0.0,0.0,0.0,-0.8877,-0.8956,-0.8956,0.0,0.0,0.0,0.0,0.0,0.0,0.0,0.0,0.0,0.0,0.0,0.0,0.0,0.0,0.0,0.0,0.0,-1.1877,-1.1877,-1.2138,-1.2404,-1.2694,-1.2558,-1.2514,-1.2614,-1.2266,-1.2069,-1.2003,-1.2127,-1.2288,-1.2492,-1.2914,-1.3067,-1.2994,-1.2638,-1.231,-1.1989,-1.1765,-1.1794,-1.201,-1.2142,-1.258,-1.3258,-1.385,-1.4275,-1.4607,-1.4633,-1.4614,-1.4443,-1.4084,-1.3775,-1.3593,-1.3499,-1.2859,-1.2143,-1.2168,-1.0944,-0.9386,-0.8792,-0.8739,-0.8865,-0.9047,-0.925,-0.9445,-0.9412,-0.9494,-0.9579,-0.9579,-0.9579,-0.9579,-0.9579,-0.9579,-0.9567,-0.9579,-0.9336,-0.9181,-0.9335,-0.9009,-0.8645,-0.8196,-0.8079,-0.7789,-0.7241,-0.7159,-0.7155,-0.7122,-0.6116,-0.5139,-0.4318,-0.3246,-0.2322,-0.161,-0.1574,-0.1586,-0.1599,-0.1581,-0.1589,-0.148,-0.1451,-0.1391,-0.1391,-0.1391,-0.13,0.0,0.0,0.0,-0.8282,0.0,0.0,0.0,-0.8685,-0.8824,0.0,0.0,0.0,0.0,0.0,0.0,0.0,0.0,0.0,0.0,0.0,0.0,0.0,0.0,0.0,0.0,0.0,-1.1415,-1.1584,-1.1706,-1.1941,-1.2229,-1.2131,-1.2116,-1.2244,-1.197,-1.1794,-1.1794,-1.1923,-1.2164,-1.2492,-1.2855,-1.3097,-1.3236,-1.2745,-1.2397,-1.2215,-1.1804,-1.1743,-1.201,-1.2178,-1.257,-1.306,-1.355,-1.4136,-1.4684,-1.457,-1.4511,-1.4421,-1.3901,-1.3527,-1.328,-1.3056,-1.2656,-1.2235,-1.2215,-1.1039,-0.9661,-0.9429,-0.9046,-0.8735,-0.8913,-0.9092,-0.9294,-0.938,-0.9494,-0.9579,-0.9579,-0.9579,-0.9579,-0.9579,-0.9555,-0.949,-0.949,-0.9271,-0.9096,-0.9088,-0.8865,-0.8516,-0.8068,-0.7979,-0.78,-0.7299,-0.7255,-0.7288,-0.7409,-0.6036,-0.4931,-0.4472,-0.3059,-0.2059,-0.1548,-0.1578,-0.1601,-0.1616,-0.1587,-0.1549,-0.1503,-0.1472,-0.145,-0.1391,-0.1391,-0.1211,0.0,0.0,0.0,0.0,0.0,-0.8037,0.0,0.0,0.0,0.0,0.0,0.0,0.0,0.0,0.0,0.0,0.0,0.0,0.0,0.0,0.0,0.0,0.0,0.0,0.0,0.0,-1.1048,-1.1379,-1.1459,-1.1635,-1.1894,-1.1731,-1.1709,-1.1901,-1.1692,-1.1591,-1.1591,-1.1816,-1.2069,-1.2397,-1.2694,-1.3023,-1.3375,-1.2723,-1.2426,-1.2489,-1.187,-1.1743,-1.2025,-1.2288,-1.2658,-1.3038,-1.3367,-1.4011,-1.4681,-1.4399,-1.4364,-1.4326,-1.3807,-1.3338,-1.2947,-1.2725,-1.2614,-1.2462,-1.2019,-1.1071,-1.0115,-0.9946,-0.9279,-0.8649,-0.8783,-0.8982,-0.9181,-0.9371,-0.9494,-0.9579,-0.9579,-0.9579,-0.9579,-0.9579,-0.9506,-0.9445,-0.9408,-0.9181,-0.8995,-0.8844,-0.8678,-0.8432,-0.7944,-0.79,-0.7771,-0.7361,-0.7326,-0.7291,-0.7135,-0.5686,-0.4593,-0.4098,-0.2691,-0.1735,-0.1519,-0.157,-0.1599,-0.1599,-0.1575,-0.1551,-0.1478,-0.1495,-0.1465,-0.1391,-0.1345,-0.1124,0.0,0.0,0.0,0.0,-0.8699,0.0,0.0,0.0,0.0,0.0,0.0,0.0,0.0,0.0,0.0,0.0,0.0,0.0,0.0,0.0,0.0,0.0,0.0,0.0,0.0,0.0,0.0,-1.0704,-1.0997,-1.1305,-1.1628,-1.1613,-1.1606,-1.1643,-1.1613,-1.1591,-1.1591,-1.1628,-1.1772,-1.2062,-1.2098,-1.2434,-1.3038,-1.2353,-1.2215,-1.2489,-1.187,-1.1743,-1.2003,-1.204,-1.2419,-1.3038,-1.3367,-1.374,-1.4055,-1.3726,-1.3784,-1.3989,-1.3438,-1.3259,-1.3223,-1.3034,-1.317,-1.3298,-1.2499,-1.1713,-1.0977,-1.0115,-0.9376,-0.8796,-0.8816,-0.9072,-0.938,-0.94,-0.9494,-0.9579,-0.9579,-0.9579,-0.9579,-0.9579,-0.9612,-0.9547,-0.9429,-0.9076,-0.8844,-0.8824,-0.8678,-0.8432,-0.7944,-0.79,-0.7683,-0.7211,-0.7122,-0.6857,-0.611,-0.5766,-0.4887,-0.3351,-0.2918,-0.2372,-0.1532,-0.1519,-0.1488,-0.1488,-0.1533,-0.153,-0.1478,-0.1495,-0.1465,-0.1391,-0.1211,-0.0996,0.0,0.0,0.0,0.0,0.0,0.0,0.0,0.0,-0.8203,0.0,0.0,0.0,0.0,0.0,0.0,0.0,0.0,0.0,0.0,0.0,0.0,0.0,0.0,0.0,0.0,0.0,0.0,0.0,0.0,-1.088,-1.1019,-1.1386,-1.1591,-1.1591,-1.1591,-1.1591,-1.1591,-1.1591,-1.1721,-1.2003,-1.2003,-1.2244,-1.2674,-1.2215,-1.2178,-1.2463,-1.2036,-1.2131,-1.2565,-1.2565,-1.2877,-1.3301,-1.344,-1.3697,-1.3945,-1.3616,-1.3704,-1.3931,-1.3388,-1.3131,-1.3042,-1.2913,-1.3232,-1.3518,-1.3184,-1.2619,-1.1929,-1.0982,-1.0048,-0.9279,-0.9034,-0.9011,-0.9125,-0.9437,-0.9571,-0.9579,-0.9579,-0.9579,-0.9579,-0.9579,-0.9462,-0.9295,-0.9218,-0.908,-0.8946,-0.8836,-0.8678,-0.8432,-0.7944,-0.79,-0.7757,-0.731,-0.7275,-0.7115,-0.681,-0.5668,-0.468,-0.3848,-0.2707,-0.1906,-0.1506,-0.1519,-0.1478,-0.1478,-0.1478,-0.1517,-0.15,-0.1487,-0.1465,-0.1391,-0.13,-0.1088,-0.7431,0.0,0.0,0.0,0.0,0.0,0.0,0.0,0.0,0.0,0.0,0.0,0.0,0.0,0.0,0.0,0.0,0.0,0.0,0.0,0.0,0.0,0.0,0.0,0.0,0.0,0.0,0.0,-1.0272,0.0,-1.0719,-1.1202,-1.1503,-1.1591,-1.1591,-1.1591,-1.1591,-1.1591,-1.1709,-1.1904,-1.1904,-1.2072,-1.2339,-1.2018,-1.2047,-1.2339,-1.2105,-1.2324,-1.2884,-1.2972,-1.3199,-1.3492,-1.3492,-1.3638,-1.3821,-1.3587,-1.3704,-1.3945,-1.3556,-1.3369,-1.3251,-1.3169,-1.3407,-1.3726,-1.3726,-1.3233,-1.2577,-1.1886,-1.0775,-0.9774,-0.9457,-0.9142,-0.9007,-0.9449,-0.9551,-0.9567,-0.9567,-0.9587,-0.9567,-0.9616,-0.934,-0.9096,-0.9096,-0.9019,-0.8905,-0.8771,-0.8645,-0.8432,-0.7944,-0.79,-0.7768,-0.734,-0.7309,-0.7218,-0.6944,-0.539,-0.418,-0.3535,-0.2226,-0.1478,-0.1453,-0.1454,-0.1454,-0.1454,-0.1454,-0.1494,-0.148,-0.1472,-0.1461,-0.1447,-0.1349,-0.1088,0.0,0.0,0.0,-0.8715,0.0,0.0,0.0,0.0,-0.7338,0.0,0.0,0.0,0.0,0.0,0.0,0.0,0.0,0.0,0.0,0.0,0.0,0.0,0.0,0.0,0.0,0.0,0.0,-1.0082,-1.0397,-1.0755,-1.107,-1.1107,-1.1269,-1.1584,-1.1591,-1.1591,-1.1591,-1.1591,-1.1599,-1.1606,-1.1606,-1.1743,-1.2003,-1.1753,-1.175,-1.2018,-1.2003,-1.2193,-1.2529,-1.2877,-1.3199,-1.3492,-1.3492,-1.3506,-1.3514,-1.3499,-1.3704,-1.3982,-1.3967,-1.4098,-1.4252,-1.4115,-1.4055,-1.4075,-1.4075,-1.3434,-1.2705,-1.2662,-1.1478,-1.0185,-1.0159,-0.9638,-0.9137,-0.9367,-0.9412,-0.9461,-0.9592,-0.949,-0.9465,-0.9596,-0.934,-0.9096,-0.9096,-0.8812,-0.8624,-0.862,-0.8616,-0.8432,-0.7944,-0.79,-0.768,-0.7146,-0.7102,-0.6748,-0.5813,-0.4875,-0.3489,-0.1614,-0.1436,-0.1392,-0.1393,-0.1393,-0.1393,-0.1393,-0.1393,-0.1452,-0.148,-0.1451,-0.1451,-0.1478,-0.1222,-0.0952,0.0,0.0,-0.9258,-0.8527,0.0,0.0,0.0,0.0,0.0,0.0,0.0,0.0,0.0,0.0,0.0,0.0,0.0,0.0,0.0,0.0,0.0,0.0,0.0,0.0,0.0,0.0,0.0,-0.9756,-1.0082,-1.0309,0.0,-1.0865,-1.1151,-1.1269,-1.1481,-1.1591,-1.1591,-1.1591,-1.1591,-1.1591,-1.1591,-1.165,-1.1721,-1.1643,-1.1885,-1.2324,-1.2324,-1.2665,-1.3177,-1.3287,-1.3397,-1.3492,-1.3492,-1.3492,-1.3499,-1.3346,-1.3474,-1.3739,-1.367,-1.3717,-1.3787,-1.3776,-1.3928,-1.4088,-1.4088,-1.387,-1.3355,-1.21,-1.1381,-1.069,-0.9544,-0.9092,-0.8958,-0.9141,-0.9318,-0.942,-0.9433,-0.9445,-0.942,-0.9482,-0.9161,-0.8913,-0.8913,-0.8723,-0.8612,-0.8612,-0.8612,-0.8432,-0.7944,-0.79,-0.7676,-0.7139,-0.7095,-0.6962,-0.665,-0.5179,-0.3755,-0.2464,-0.1749,-0.1391,-0.1391,-0.1391,-0.1391,-0.1391,-0.1391,-0.1395,-0.1451,-0.1395,-0.1395,-0.1451,-0.135,-0.1088,-0.9348,-0.9492,0.0,-0.8848,-0.8947,0.0,-0.8265,0.0,0.0,0.0,0.0,0.0,0.0,0.0,0.0,0.0,0.0,0.0,0.0,0.0,0.0,0.0,0.0,0.0,0.0,0.0,-0.9439,-0.951,-0.9785,-0.998,0.0,0.0,-1.0982,-1.11,-1.1423,-1.1591,-1.1591,-1.1591,-1.1591,-1.1591,-1.1591,-1.165,-1.1728,-1.1728,-1.2021,-1.2499,-1.2643,-1.2936,-1.3331,-1.3448,-1.3492,-1.3492,-1.3492,-1.3492,-1.3499,-1.3273,-1.339,-1.368,-1.3675,-1.3728,-1.379,-1.3648,-1.3841,-1.4088,-1.4088,-1.4088,-1.3786,-1.2229,-1.1542,-1.0991,-0.966,-0.8996,-0.8792,-0.9039,-0.9133,-0.9245,-0.9375,-0.9302,-0.9249,-0.9375,-0.9019,-0.8747,-0.8808,-0.8678,-0.8612,-0.8612,-0.8612,-0.8476,-0.8072,-0.7944,-0.7724,-0.7275,-0.7143,-0.6962,-0.6653,-0.5492,-0.4247,-0.3001,-0.2286,-0.1793,-0.1436,-0.1391,-0.14,-0.1421,-0.1401,-0.1401,-0.1422,-0.1401,-0.1391,-0.1391,-0.1345,-0.1084]},{"header":{"parameterUnit":"m.s-1","parameterCategory":1,"la1":30.6,"la2":29.2853,"lo1":-89.7004,"lo2":-87.6739,"dx":0.0162,"dy":0.0183,"nx":112,"ny":82,"refTime":"2023-01-26T06:00:00:Z","depth":0,"parameterNumber":3,"parameterNumberName":"V-component_of_WINDS"},"data":[0.0,0.0,0.0,0.0,0.0,0.0,0.0,0.0,0.0,0.0,0.0,0.0,0.0,0.0,0.0,0.0,0.0,0.0,0.0,0.0,0.0,0.0,0.0,0.0,0.0,0.0,0.0,0.0,0.0,0.0,0.0,0.0,0.0,0.0,0.0,0.0,0.0,0.0,0.0,0.0,0.0,0.0,0.0,0.0,0.0,0.0,0.0,0.0,0.0,0.0,0.0,0.0,0.0,0.0,0.0,0.0,0.0,0.0,0.0,0.0,0.0,0.0,0.0,0.0,0.0,0.0,0.0,0.0,0.0,0.0,0.0,0.0,0.0,0.0,0.0,0.0,0.0,0.0,0.0,0.0,0.0,0.0,0.0,0.0,0.0,0.0,0.0,0.0,0.0,0.0,0.0,2.2836,2.7168,2.959,2.8829,2.8976,2.7535,2.3814,0.0,0.0,0.0,0.0,0.0,0.0,0.0,0.0,0.0,0.0,0.0,0.0,0.0,0.0,0.0,0.0,0.0,0.0,0.0,0.0,0.0,0.0,0.0,0.0,0.0,0.0,0.0,0.0,0.0,0.0,0.0,0.0,0.0,0.0,0.0,0.0,0.0,0.0,0.0,0.0,0.0,0.0,0.0,0.0,0.0,0.0,0.0,0.0,0.0,0.0,0.0,0.0,0.0,0.0,0.0,0.0,0.0,0.0,0.0,0.0,0.0,0.0,0.0,0.0,0.0,0.0,0.0,0.0,0.0,0.0,0.0,0.0,0.0,0.0,0.0,0.0,0.0,0.0,0.0,0.0,0.0,0.0,0.0,0.0,0.0,0.0,0.0,0.0,0.0,0.0,0.0,0.0,0.0,0.0,0.0,0.0,0.0,0.0,0.0,0.0,0.0,0.0,0.0,0.0,2.0632,2.5155,2.8199,2.9792,2.955,2.7708,2.5933,2.4422,0.0,0.0,0.0,0.0,0.0,0.0,0.0,0.0,0.0,0.0,0.0,0.0,0.0,0.0,0.0,0.0,0.0,0.0,0.0,0.0,0.0,0.0,0.0,0.0,0.0,0.0,0.0,0.0,0.0,0.0,0.0,0.0,0.0,0.0,0.0,0.0,0.0,0.0,0.0,0.0,0.0,0.0,0.0,0.0,0.0,0.0,0.0,0.0,0.0,0.0,0.0,0.0,0.0,0.0,0.0,0.0,0.0,0.0,0.0,0.0,0.0,0.0,0.0,0.0,0.0,0.0,0.0,0.0,0.0,0.0,0.0,0.0,0.0,0.0,0.0,0.0,0.0,0.0,0.0,0.0,0.0,0.0,0.0,0.0,0.0,0.0,0.0,0.0,0.0,0.0,0.0,0.0,0.0,0.0,0.0,0.0,0.0,0.0,0.0,0.0,0.0,0.0,0.0,2.0941,2.2817,2.6501,2.8711,2.966,2.9053,2.7155,2.5362,2.3886,2.2978,0.0,0.0,0.0,0.0,0.0,0.0,0.0,0.0,0.0,0.0,0.0,0.0,0.0,0.0,0.0,0.0,0.0,0.0,0.0,0.0,0.0,0.0,0.0,0.0,0.0,0.0,0.0,0.0,0.0,0.0,0.0,0.0,0.0,0.0,0.0,0.0,0.0,0.0,0.0,0.0,0.0,0.0,0.0,0.0,0.0,0.0,0.0,0.0,0.0,0.0,0.0,0.0,0.0,0.0,0.0,0.0,0.0,0.0,0.0,0.0,0.0,0.0,0.0,0.0,0.0,0.0,0.0,0.0,0.0,0.0,0.0,0.0,0.0,0.0,0.0,0.0,0.0,0.0,0.0,0.0,0.0,0.0,0.0,0.0,0.0,0.0,0.0,0.0,0.0,0.0,0.0,0.0,0.0,0.0,0.0,0.0,0.0,0.0,0.0,0.0,0.0,0.0,2.3461,2.4605,2.6944,2.8483,2.8998,2.8188,2.6628,2.4979,2.3312,2.168,0.0,0.0,0.0,0.0,0.0,0.0,0.0,0.0,0.0,0.0,0.0,0.0,0.0,0.0,0.0,0.0,0.0,0.0,0.0,0.0,0.0,0.0,0.0,0.0,0.0,0.0,0.0,0.0,0.0,0.0,0.0,0.0,0.0,0.0,0.0,0.0,0.0,0.0,0.0,0.0,0.0,0.0,0.0,0.0,0.0,0.0,0.0,0.0,0.0,0.0,0.0,0.0,0.0,0.0,0.0,0.0,0.0,0.0,0.0,0.0,0.0,0.0,0.0,0.0,0.0,0.0,0.0,0.0,0.0,0.0,0.0,0.0,0.0,0.0,0.0,0.0,0.0,0.0,0.0,0.0,0.0,0.0,0.0,0.0,0.0,0.0,0.0,0.0,0.0,0.0,0.0,0.0,0.0,0.0,0.0,0.0,0.0,0.0,0.0,0.0,0.0,0.0,2.2741,2.4378,2.6103,2.7126,2.7551,2.7315,2.5756,2.4334,2.3267,2.168,0.0,0.0,0.0,0.0,0.0,0.0,0.0,0.0,0.0,0.0,0.0,0.0,0.0,0.0,0.0,0.0,0.0,0.0,0.0,0.0,0.0,0.0,0.0,0.0,0.0,0.0,0.0,0.0,0.0,0.0,0.0,0.0,0.0,0.0,0.0,0.0,0.0,0.0,0.0,0.0,0.0,0.0,0.0,0.0,0.0,0.0,0.0,0.0,0.0,0.0,0.0,0.0,0.0,0.0,0.0,0.0,0.0,0.0,0.0,0.0,0.0,0.0,0.0,0.0,0.0,0.0,0.0,0.0,0.0,0.0,0.0,0.0,0.0,0.0,0.0,0.0,0.0,0.0,0.0,0.0,0.0,0.0,0.0,0.0,0.0,0.0,0.0,0.0,0.0,0.0,0.0,0.0,0.0,0.0,0.0,0.0,0.0,0.0,0.0,0.0,0.0,0.0,2.3007,2.434,0.0,2.6982,2.7233,2.6561,2.4941,2.354,2.2562,0.0,0.0,0.0,0.0,0.0,0.0,0.0,0.0,0.0,0.0,0.0,0.0,0.0,0.0,0.0,0.0,0.0,0.0,0.0,0.0,0.0,0.0,0.0,0.0,0.0,0.0,0.0,0.0,0.0,0.0,0.0,0.0,0.0,0.0,0.0,0.0,0.0,0.0,0.0,0.0,0.0,0.0,0.0,0.0,0.0,0.0,0.0,0.0,0.0,0.0,0.0,0.0,0.0,0.0,0.0,0.0,0.0,0.0,0.0,0.0,0.0,0.0,0.0,0.0,0.0,0.0,0.0,0.0,0.0,0.0,0.0,0.0,0.0,0.0,0.0,0.0,0.0,0.0,0.0,0.0,0.0,0.0,0.0,0.0,0.0,0.0,0.0,0.0,0.0,0.0,0.0,0.0,0.0,0.0,0.0,0.0,0.0,0.0,0.0,0.0,0.0,0.0,2.2286,2.2969,2.3961,0.0,2.6349,2.6434,2.5752,2.4117,2.2954,2.2548,0.0,0.0,0.0,0.0,0.0,0.0,0.0,0.0,0.0,0.0,0.0,0.0,0.0,0.0,0.0,0.0,0.0,0.0,0.0,0.0,0.0,0.0,0.0,0.0,0.0,0.0,0.0,0.0,0.0,0.0,0.0,0.0,0.0,0.0,0.0,0.0,0.0,0.0,0.0,0.0,0.0,0.0,0.0,0.0,0.0,0.0,0.0,0.0,0.0,0.0,0.0,0.0,0.0,0.0,0.0,0.0,0.0,0.0,0.0,0.0,0.0,0.0,0.0,0.0,0.0,0.0,0.0,0.0,0.0,0.0,0.0,0.0,0.0,0.0,0.0,0.0,0.0,0.0,0.0,0.0,0.0,0.0,0.0,0.0,0.0,0.0,0.0,0.0,0.0,0.0,0.0,0.0,0.0,0.0,0.0,0.0,0.0,0.0,0.0,0.0,0.0,0.0,2.2292,2.2495,2.3146,2.4814,2.5003,2.495,2.4801,2.3263,2.2609,0.0,0.0,0.0,0.0,0.0,0.0,0.0,0.0,0.0,0.0,0.0,0.0,0.0,0.0,0.0,0.0,0.0,0.0,0.0,0.0,0.0,0.0,0.0,0.0,0.0,0.0,0.0,0.0,0.0,0.0,0.0,0.0,0.0,0.0,0.0,0.0,0.0,0.0,0.0,0.0,0.0,0.0,0.0,0.0,0.0,0.0,0.0,0.0,0.0,0.0,0.0,0.0,0.0,0.0,0.0,0.0,0.0,0.0,0.0,0.0,0.0,0.0,0.0,0.0,0.0,0.0,0.0,0.0,0.0,0.0,0.0,0.0,0.0,0.0,0.0,0.0,0.0,0.0,0.0,0.0,0.0,0.0,0.0,0.0,0.0,0.0,0.0,0.0,0.0,0.0,0.0,0.0,0.0,0.0,0.0,0.0,0.0,0.0,0.0,0.0,0.0,0.0,0.0,2.2351,2.2524,2.3139,2.4828,2.4998,2.4977,2.495,2.3316,2.2637,2.3427,0.0,0.0,0.0,0.0,0.0,0.0,0.0,0.0,0.0,0.0,0.0,0.0,0.0,0.0,0.0,0.0,0.0,0.0,0.0,0.0,0.0,0.0,0.0,0.0,0.0,0.0,0.0,0.0,0.0,0.0,0.0,0.0,0.0,0.0,0.0,0.0,0.0,0.0,0.0,0.0,0.0,0.0,0.0,0.0,0.0,0.0,0.0,0.0,0.0,0.0,0.0,0.0,0.0,0.0,0.0,0.0,0.0,0.0,0.0,0.0,0.0,0.0,0.0,0.0,0.0,0.0,0.0,0.0,0.0,0.0,0.0,0.0,0.0,0.0,0.0,0.0,0.0,0.0,0.0,0.0,0.0,0.0,0.0,0.0,0.0,0.0,0.0,0.0,0.0,0.0,0.0,0.0,0.0,0.0,0.0,0.0,0.0,0.0,0.0,0.0,0.0,0.0,2.2818,2.2737,2.3132,2.4822,2.5004,2.4852,2.451,2.3168,2.2672,2.3449,0.0,0.0,0.0,0.0,0.0,0.0,0.0,0.0,0.0,0.0,0.0,0.0,0.0,0.0,0.0,0.0,0.0,0.0,0.0,0.0,0.0,0.0,0.0,0.0,0.0,0.0,0.0,0.0,0.0,0.0,0.0,0.0,0.0,0.0,0.0,0.0,0.0,0.0,0.0,0.0,0.0,0.0,0.0,0.0,0.0,0.0,0.0,0.0,0.0,0.0,0.0,0.0,0.0,0.0,0.0,0.0,0.0,0.0,0.0,0.0,0.0,0.0,0.0,0.0,0.0,0.0,0.0,0.0,0.0,0.0,0.0,0.0,0.0,0.0,0.0,0.0,0.0,0.0,0.0,0.0,0.0,0.0,0.0,0.0,0.0,0.0,0.0,0.0,0.0,0.0,0.0,0.0,0.0,0.0,0.0,0.0,0.0,0.0,0.0,0.0,0.0,0.0,2.349,2.3042,2.3132,2.4822,2.5004,2.4681,2.3878,2.3019,2.2833,2.3562,0.0,0.0,0.0,0.0,0.0,0.0,0.0,0.0,0.0,0.0,0.0,0.0,0.0,0.0,0.0,0.0,0.0,0.0,0.0,0.0,0.0,0.0,0.0,0.0,0.0,0.0,0.0,0.0,0.0,0.0,0.0,0.0,0.0,0.0,0.0,0.0,0.0,0.0,0.0,0.0,0.0,0.0,0.0,0.0,0.0,0.0,0.0,0.0,0.0,0.0,0.0,0.0,0.0,0.0,0.0,0.0,0.0,0.0,0.0,0.0,1.7657,0.0,0.0,0.0,0.0,0.0,0.0,0.0,0.0,0.0,0.0,0.0,0.0,0.0,0.0,0.0,0.0,0.0,0.0,0.0,0.0,0.0,0.0,0.0,0.0,0.0,0.0,0.0,0.0,0.0,0.0,0.0,0.0,0.0,0.0,0.0,0.0,0.0,0.0,0.0,0.0,0.0,2.3633,2.3065,2.3144,2.4822,2.5004,2.4927,2.4738,2.3882,2.367,2.447,0.0,0.0,0.0,0.0,0.0,0.0,0.0,0.0,0.0,0.0,0.0,0.0,0.0,0.0,0.0,0.0,0.0,0.0,0.0,0.0,0.0,0.0,0.0,0.0,0.0,0.0,0.0,0.0,0.0,0.0,0.0,0.0,0.0,0.0,0.0,0.0,0.0,0.0,0.0,0.0,0.0,0.0,0.0,0.0,0.0,0.0,0.0,0.0,0.0,0.0,0.0,0.0,0.0,0.0,0.0,0.0,0.0,0.0,0.0,0.0,0.0,1.7484,0.0,0.0,0.0,0.0,0.0,0.0,0.0,0.0,0.0,0.0,0.0,0.0,0.0,0.0,0.0,0.0,0.0,0.0,0.0,0.0,0.0,0.0,0.0,0.0,0.0,0.0,0.0,0.0,0.0,0.0,0.0,0.0,0.0,0.0,0.0,0.0,0.0,0.0,0.0,0.0,2.4246,2.333,2.3156,2.4867,2.5011,2.4833,2.4416,2.3928,2.3812,2.4205,2.3775,0.0,0.0,0.0,0.0,0.0,0.0,0.0,0.0,0.0,0.0,0.0,0.0,0.0,0.0,0.0,0.0,0.0,0.0,0.0,0.0,0.0,0.0,0.0,0.0,0.0,0.0,0.0,0.0,0.0,0.0,0.0,0.0,0.0,0.0,0.0,0.0,0.0,0.0,0.0,0.0,0.0,0.0,0.0,0.0,0.0,0.0,0.0,0.0,0.0,0.0,0.0,0.0,0.0,0.0,2.0486,2.1051,2.1358,2.129,2.0886,1.9528,1.8228,1.7138,0.0,0.0,0.0,0.0,0.0,0.0,0.0,0.0,0.0,0.0,0.0,0.0,0.0,0.0,0.0,0.0,0.0,0.0,0.0,0.0,0.0,0.0,0.0,0.0,0.0,2.5333,2.6091,0.0,0.0,0.0,0.0,0.0,0.0,0.0,0.0,0.0,0.0,0.0,0.0,2.4711,2.3681,2.3425,2.5133,2.5252,2.4934,2.4207,2.4144,2.4048,2.3855,2.369,2.3902,0.0,0.0,0.0,0.0,0.0,0.0,0.0,0.0,0.0,0.0,0.0,0.0,0.0,0.0,0.0,0.0,0.0,0.0,0.0,0.0,0.0,0.0,0.0,0.0,0.0,0.0,0.0,0.0,0.0,0.0,0.0,0.0,2.1641,2.1705,0.0,0.0,0.0,0.0,0.0,0.0,0.0,0.0,0.0,0.0,0.0,0.0,0.0,0.0,2.2347,2.2444,2.2537,2.2614,2.3376,2.3398,2.2829,2.4332,2.4194,2.2787,2.3313,0.0,1.8792,1.913,0.0,0.0,0.0,0.0,0.0,0.0,0.0,0.0,0.0,0.0,0.0,0.0,0.0,0.0,0.0,0.0,0.0,0.0,0.0,0.0,0.0,0.0,2.3149,2.4122,2.5113,2.5948,0.0,2.6371,2.608,2.549,0.0,0.0,0.0,0.0,0.0,0.0,0.0,0.0,2.4139,2.3956,2.4402,2.5969,2.6132,2.6062,2.5894,2.5875,2.5565,2.4857,2.4039,2.3952,2.4746,2.3933,0.0,0.0,0.0,0.0,0.0,0.0,0.0,0.0,0.0,0.0,0.0,0.0,0.0,0.0,0.0,0.0,0.0,0.0,0.0,0.0,0.0,0.0,0.0,0.0,0.0,0.0,0.0,0.0,0.0,2.2307,2.2961,2.2438,2.2704,2.2757,0.0,0.0,0.0,0.0,0.0,0.0,0.0,0.0,0.0,2.3021,2.3059,2.3476,2.4341,2.4394,2.4678,2.5186,2.5603,2.5848,2.5938,2.6734,2.6698,2.5956,2.5898,2.4972,2.3393,2.1527,2.0213,1.9452,0.0,0.0,0.0,0.0,0.0,2.1318,2.2261,0.0,0.0,0.0,0.0,0.0,0.0,0.0,0.0,0.0,0.0,0.0,0.0,0.0,0.0,2.6947,2.7551,2.792,2.8291,2.8294,2.7843,0.0,2.5876,2.5534,2.5463,0.0,0.0,0.0,0.0,0.0,2.4741,2.4799,2.5192,2.6305,2.6816,2.6855,2.6296,2.6264,2.5896,2.5041,2.4616,2.4518,2.4794,2.437,2.4293,0.0,0.0,0.0,0.0,0.0,0.0,0.0,0.0,0.0,0.0,0.0,0.0,0.0,0.0,0.0,0.0,0.0,0.0,0.0,0.0,0.0,0.0,0.0,0.0,0.0,0.0,0.0,0.0,2.2624,2.3285,2.2645,2.2762,2.2655,0.0,0.0,0.0,0.0,0.0,0.0,2.2196,2.2238,2.3029,2.4718,2.4776,2.5187,2.6029,2.6091,2.6446,2.7112,2.7382,2.7712,2.8121,2.8613,2.8608,2.8142,2.7789,2.7499,2.703,2.3846,2.2298,2.1865,2.1413,2.1487,2.1875,2.2305,2.2617,2.2987,2.4275,2.3883,2.2828,2.3062,0.0,2.2337,2.152,0.0,0.0,0.0,0.0,2.4463,2.7506,0.0,2.7759,2.9435,2.9824,2.9824,2.9824,2.9668,2.906,0.0,2.6755,2.6238,2.5904,0.0,0.0,0.0,0.0,2.5011,2.5386,2.5812,2.6373,2.7103,2.7704,2.7661,2.6746,2.6635,2.6138,2.5067,2.4795,2.473,2.4849,2.4412,2.4309,2.4645,0.0,0.0,0.0,0.0,0.0,0.0,0.0,0.0,0.0,0.0,0.0,0.0,0.0,0.0,0.0,0.0,0.0,0.0,0.0,0.0,0.0,0.0,0.0,0.0,0.0,0.0,0.0,0.0,0.0,2.1671,2.24,0.0,0.0,0.0,0.0,2.2677,2.2677,2.3058,2.3936,2.3977,2.4776,2.6516,2.6573,2.6959,2.7774,2.7774,2.784,2.7943,2.8788,2.8796,2.8162,2.981,2.9664,2.8149,2.8935,2.8818,2.7848,2.5311,2.4743,2.529,2.3629,2.3981,2.5348,2.4567,2.4799,2.552,2.5597,2.5575,2.5647,2.6468,2.7268,2.7755,2.6878,2.6645,0.0,0.0,2.6246,2.599,2.7819,2.8267,2.8655,3.0331,3.0719,3.0719,3.0719,3.0078,2.9237,0.0,2.8092,2.7815,2.6963,0.0,2.6299,2.4699,2.5771,2.6454,2.5601,2.6938,2.8248,2.8989,2.8981,2.8583,2.7693,2.7514,2.6745,2.5098,2.4226,2.4125,2.4959,2.3339,2.3172,2.4768,2.3839,0.0,0.0,0.0,0.0,0.0,0.0,0.0,0.0,0.0,0.0,0.0,0.0,0.0,0.0,0.0,0.0,0.0,0.0,0.0,0.0,0.0,0.0,0.0,0.0,0.0,0.0,0.0,0.0,2.4043,2.4771,0.0,0.0,2.4284,2.4236,2.4093,2.4087,2.4467,2.5336,2.5381,2.6162,2.7865,2.7923,2.837,2.9308,2.9352,2.9448,2.9554,2.9907,2.9916,2.9662,3.0327,3.0295,2.9735,3.0036,3.0019,2.9662,2.8214,2.7169,2.6364,2.5214,2.5153,2.5739,2.5973,2.6616,2.7453,2.8021,2.7844,2.7235,2.6435,2.6374,2.6566,2.6253,2.6156,2.639,2.752,2.7618,2.7753,2.9468,3.0321,3.0895,3.1481,3.164,3.164,3.1638,3.0953,3.0245,2.9931,2.9005,2.8163,2.7846,2.7807,2.7592,2.7009,2.7417,2.7663,2.7288,2.8279,2.9088,2.9311,2.9741,2.9627,2.8614,2.7981,2.6874,2.5119,2.4176,2.3613,2.3411,2.3272,2.346,2.4016,2.4177,2.3984,0.0,0.0,0.0,0.0,0.0,0.0,0.0,0.0,0.0,0.0,0.0,0.0,0.0,0.0,0.0,0.0,0.0,0.0,0.0,0.0,0.0,0.0,0.0,0.0,0.0,0.0,2.5697,2.57,2.663,2.6892,2.5931,2.583,2.5903,2.6038,2.6076,2.645,2.7305,2.7343,2.7869,2.9006,2.9044,2.9372,3.0037,3.0085,3.0148,3.0235,3.0322,3.0383,3.0394,3.0482,3.0534,3.0563,3.0568,3.0582,3.0584,3.004,2.9318,2.8448,2.7059,2.6871,2.7418,2.7711,2.8357,2.9199,2.9765,2.9589,2.8926,2.7754,2.7383,2.7383,2.7383,2.7383,2.7637,2.8788,2.9101,2.9433,3.0877,3.168,3.2164,3.2438,3.2507,3.2501,3.2494,3.2047,3.1561,3.1287,3.0102,2.9048,2.8754,2.8694,2.8616,2.8345,2.8538,2.8691,2.864,2.9398,2.9927,2.9877,3.0315,3.0083,2.8797,2.8352,2.7265,2.5202,2.4759,2.4201,2.3386,2.3872,2.4237,2.448,2.4717,2.4662,2.4318,0.0,0.0,0.0,0.0,0.0,0.0,0.0,0.0,0.0,0.0,0.0,0.0,0.0,0.0,0.0,0.0,0.0,0.0,0.0,0.0,0.0,0.0,0.0,2.2865,2.4903,2.6384,2.6447,2.7786,2.8377,2.7528,2.745,2.7768,2.8544,2.8652,2.8998,2.9771,2.979,2.9826,2.9878,2.9886,2.9886,2.9894,2.9894,2.9894,2.9902,3.0037,3.0122,3.0208,3.0328,3.0422,3.0469,3.0513,3.0509,3.0496,3.0617,3.1169,3.1658,2.9174,2.9279,3.0689,2.9808,2.999,3.0704,3.0735,3.0739,3.0739,3.0719,3.0719,3.0739,3.07,3.07,3.0702,3.0731,3.0734,3.0968,3.1889,3.2164,3.2377,3.3156,3.3331,3.3331,3.3332,3.3313,3.306,3.2262,3.1426,3.056,2.9692,2.9533,2.9279,2.8501,2.9045,0.0,2.9537,3.0275,3.0798,3.0804,3.0675,2.9952,2.8327,2.8686,2.7934,2.5414,2.5895,2.5854,2.4961,2.4947,2.5344,2.6178,2.5371,2.4794,2.4529,0.0,0.0,0.0,0.0,0.0,0.0,0.0,0.0,0.0,0.0,0.0,0.0,0.0,0.0,0.0,0.0,0.0,0.0,0.0,0.0,0.0,0.0,2.5108,2.5189,2.6797,2.8419,2.9647,3.0675,3.1146,3.0819,3.0772,3.0818,3.0891,3.0368,3.0146,3.038,2.9838,2.9531,2.954,2.954,2.957,2.9689,2.9689,2.976,2.9902,2.9942,2.9954,2.9988,3.0026,3.0056,3.0109,3.0833,3.0817,3.04,3.1774,3.2099,3.1695,3.1138,3.1615,3.2472,3.1617,3.1037,3.0791,3.1421,3.1638,3.154,3.0901,3.112,3.1515,3.0895,3.07,3.0837,3.1461,3.1636,3.1851,3.2746,3.3402,3.3902,3.4127,3.416,3.4182,3.4233,3.3758,3.307,3.2259,3.1903,3.1463,3.0584,3.0437,3.0367,3.0152,0.0,0.0,3.0435,3.0643,3.081,3.0798,3.0774,3.0528,2.9952,2.9493,2.8391,0.0,2.58,2.4839,2.3313,2.3764,2.4738,2.6178,2.5917,2.6324,0.0,0.0,0.0,0.0,0.0,0.0,0.0,0.0,0.0,0.0,0.0,0.0,0.0,0.0,0.0,0.0,0.0,0.0,0.0,0.0,0.0,0.0,2.6681,2.8342,2.9345,2.9813,3.0639,3.2335,3.286,3.3068,3.2988,3.2678,3.2429,3.2295,3.1552,3.0957,3.0623,3.0158,2.9739,2.9365,2.9702,2.9932,2.9987,3.0343,3.0591,3.0688,3.0413,3.0278,3.0268,3.0013,3.0083,0.0,3.1023,3.1211,3.1211,3.2382,3.2788,0.0,0.0,0.0,0.0,0.0,3.2139,3.1773,3.2285,3.223,3.188,3.1744,3.1793,3.1897,3.1741,3.1453,3.1339,3.2214,3.2218,3.224,3.3485,3.4155,3.4595,3.4967,3.5041,3.5064,3.5086,3.4692,3.4101,3.3281,0.0,0.0,3.1525,3.1015,3.0794,3.0794,3.0807,3.0799,0.0,3.0807,3.0799,3.0802,3.0793,3.0621,3.0172,2.9966,0.0,0.0,0.0,2.5696,2.4241,2.4934,0.0,0.0,0.0,2.7991,0.0,0.0,0.0,0.0,2.6946,2.7119,0.0,0.0,0.0,0.0,0.0,0.0,0.0,0.0,0.0,0.0,0.0,0.0,0.0,0.0,0.0,0.0,2.9378,3.1719,3.4141,3.3276,3.2983,3.4559,3.4428,3.4234,3.4327,3.3528,3.3001,3.3001,3.2165,3.1348,3.0641,0.0,0.0,0.0,0.0,3.0527,3.0368,3.1221,3.1626,3.1515,3.0932,3.0648,3.0639,3.0185,3.032,3.0916,3.1218,3.167,3.2255,3.2751,3.3398,3.4052,3.3493,3.3263,3.3252,3.3343,3.3256,0.0,0.0,0.0,0.0,3.2856,3.2585,3.2082,3.2875,3.2565,3.2126,3.3001,3.274,3.2551,3.4216,3.4647,3.4827,3.5596,3.5799,3.5784,3.581,3.5795,3.5542,3.4672,3.4545,3.4077,3.2425,3.1482,3.0918,3.08,3.0797,0.0,3.0799,3.0795,3.0806,3.0808,0.0,0.0,2.9713,3.025,2.9946,2.8356,2.8059,2.7528,2.66,2.7247,2.7631,2.7663,2.9057,2.9437,2.876,2.9458,2.9773,2.9692,2.9212,2.9056,0.0,0.0,0.0,0.0,0.0,0.0,0.0,0.0,0.0,0.0,0.0,0.0,0.0,0.0,0.0,3.0456,3.1794,3.341,3.5882,3.5405,3.5188,3.6155,3.5051,3.4488,3.5175,3.3875,3.3001,3.3001,3.1645,3.0753,3.0604,2.9973,0.0,2.9386,3.0177,3.0288,2.9628,3.0418,3.0511,2.9861,0.0,0.0,2.9682,3.0207,3.019,2.9856,3.1954,3.2202,3.1271,3.3544,3.4575,3.4742,3.5012,3.4685,3.415,3.4861,3.4254,3.3191,3.39,3.3576,3.2875,3.3049,3.2991,3.2875,3.3049,3.2991,0.0,3.3891,3.4031,3.4167,3.5198,3.5468,3.5498,3.5684,3.5713,3.5727,3.5786,3.5795,3.5542,3.4672,3.4509,3.4209,3.3218,3.2381,3.1606,3.0904,3.08,3.08,3.08,3.0808,3.0791,3.0807,3.0792,3.0722,3.0564,3.0682,3.0319,2.9287,2.8486,2.7927,2.762,2.7705,2.8052,2.8619,2.8927,2.927,2.9645,2.9796,2.9849,2.9773,2.9626,2.956,0.0,0.0,0.0,0.0,0.0,0.0,0.0,0.0,0.0,0.0,0.0,2.5448,0.0,0.0,3.1236,3.3317,3.4339,3.5566,3.7615,3.6532,3.5659,3.6049,3.5361,3.486,3.486,3.4086,3.328,3.2462,3.1645,3.1013,3.0623,3.0214,3.0166,3.0542,3.1363,3.1597,3.1155,3.1578,3.1608,3.1199,3.0381,2.9991,3.001,3.0418,3.0604,3.0708,3.2411,3.2892,3.2611,3.4131,3.4821,3.4917,3.5155,3.4975,3.4665,3.5134,3.451,3.3576,3.4455,3.3974,3.3147,3.399,3.403,3.3828,3.4272,3.4098,3.3924,3.4819,3.4742,3.4607,3.5477,3.5704,3.5695,3.5698,3.5708,3.5723,3.5788,3.5797,3.5666,3.5231,3.5158,3.4886,3.4031,3.3566,3.303,3.2175,3.1719,3.1617,3.2051,3.1345,3.0965,3.1399,3.1058,3.0794,3.0802,3.0808,3.0431,2.9554,2.906,2.8369,2.7385,2.8111,2.83,2.7767,2.8962,2.9524,2.9391,2.9798,2.9956,2.9849,2.9825,2.9755,0.0,0.0,0.0,0.0,0.0,0.0,0.0,0.0,2.554,2.5856,2.7074,2.8542,3.0047,3.2184,3.4209,3.5733,3.6513,3.7318,3.8469,3.6907,3.5527,3.5211,3.5212,3.5002,3.4402,3.4117,3.3405,3.2048,3.1853,3.1515,3.0864,3.0827,3.1103,3.1695,3.2539,3.2892,3.2696,3.2892,3.2927,3.276,3.144,3.0827,3.0846,3.0995,3.1329,3.1849,3.2648,3.3466,3.4221,3.442,3.4626,3.4772,3.4772,3.4754,3.4775,3.4933,3.4573,3.414,3.4833,3.4217,3.3346,3.4891,3.4911,3.4516,3.5427,3.5206,3.48,3.5491,3.5187,3.4819,3.5516,3.5704,3.5695,3.5702,3.5707,3.5703,3.5766,3.5775,3.578,3.5806,3.581,3.5577,3.4866,3.475,3.4423,3.3445,3.2756,3.2595,3.3295,3.2167,3.1503,3.2035,3.148,3.098,3.0804,3.0791,3.0492,2.9808,2.9749,2.9107,2.765,2.8854,2.8807,2.715,2.907,2.9629,2.869,2.9485,2.9827,2.9741,2.9741,2.9645,2.4953,2.381,0.0,2.5875,2.5438,2.541,0.0,0.0,2.9248,3.0697,3.1701,3.2581,3.3491,3.5101,3.6588,3.7466,3.7708,3.7578,3.7052,3.6486,3.5584,3.4154,3.4209,3.45,3.4862,3.3821,3.295,3.2537,3.2063,3.1756,3.1663,3.1663,3.1701,3.1782,3.2581,3.2655,3.1931,3.2637,3.2648,3.1924,3.1756,3.1663,3.1682,3.2407,3.2388,3.1849,3.2648,3.3466,3.4209,3.4233,3.4257,3.4281,3.4281,3.4274,3.4333,3.4746,3.4886,3.4873,3.4973,3.447,3.3968,3.5042,3.4821,3.4334,3.538,3.5626,3.5568,3.5665,3.5626,3.5568,3.5665,3.5704,3.5695,3.5702,3.5707,3.5698,3.5704,3.5708,3.5737,3.578,3.5803,3.5773,3.5674,3.5659,3.5119,3.3538,3.3225,3.3205,3.331,3.319,3.2851,3.2168,3.2019,3.1643,3.0862,3.08,3.0754,3.0665,3.0645,3.0565,3.0363,3.0475,3.0066,2.9028,2.9216,2.8859,2.7917,2.8724,2.9116,2.9098,2.9098,2.9003,2.6451,0.0,0.0,0.0,2.817,2.9192,3.0902,3.1403,3.1831,3.2953,3.4246,3.5398,3.6203,3.7299,3.8209,0.0,3.8039,3.7483,3.7146,3.6007,3.4798,3.3696,3.3259,3.3291,3.3941,3.3511,3.2939,3.2347,3.2109,3.2056,3.225,3.2705,3.2963,3.2963,3.3938,3.3969,3.2963,3.2993,3.2834,3.25,3.2017,3.1794,3.1831,3.263,3.3076,3.3224,3.3559,3.3881,3.4197,3.4197,3.4197,3.4197,3.4197,3.4197,3.4233,3.4461,3.4308,3.4021,3.4534,3.4283,3.3885,3.48,3.4928,3.4783,3.5213,3.535,3.535,3.535,3.5438,3.5521,3.5521,3.5614,3.5709,3.5701,3.5706,3.5697,3.5699,3.5708,3.5718,3.5793,3.5801,3.5961,3.6474,3.6144,3.5736,3.5546,3.4641,3.4208,3.4734,3.3953,3.3224,3.289,3.2862,3.2702,3.2344,3.2311,3.2108,3.1595,3.1568,3.1096,3.01,3.0499,3.0094,2.8693,2.9127,2.8896,2.7911,2.8246,2.8371,2.8302,2.8307,2.798,2.7111,0.0,0.0,2.8951,3.0809,3.2593,3.3057,3.3782,3.4569,3.5386,3.6519,3.7541,3.8116,3.8711,0.0,3.897,3.8269,3.7598,3.7281,3.5587,3.4104,3.3322,3.2274,3.1912,3.2637,3.2892,3.2806,3.2328,3.2383,3.2541,3.278,3.3355,3.3707,3.3807,3.4607,3.4665,3.3926,3.3525,3.3324,3.3324,3.2741,3.2462,3.2481,3.3076,3.364,3.4197,3.4197,3.4197,3.4197,3.4197,3.4197,3.4197,3.4197,3.4197,3.4209,3.4257,3.3962,3.362,3.4267,3.4233,3.3989,3.468,3.4963,3.5047,3.5089,3.5106,3.5106,3.5106,3.5201,3.5316,3.5316,3.5431,3.5553,3.5589,3.562,3.5623,3.5679,3.5694,3.5713,3.5797,3.598,3.6354,3.6984,3.6789,3.6653,3.7042,3.6032,3.5376,3.5817,3.4589,3.3674,3.3725,3.3533,3.3402,3.3401,3.3402,3.3132,3.2502,3.224,3.1529,3.0278,3.0587,3.01,2.858,2.9185,2.9018,2.8058,2.8066,2.8001,2.7874,2.7644,2.7181,0.0,0.0,2.8672,3.1087,3.2927,3.455,3.6179,3.7169,3.7968,3.8785,3.899,3.9027,3.9064,3.9082,3.8984,3.8673,3.8576,3.8159,3.6993,3.5256,3.3788,3.2934,3.1245,3.0454,0.0,3.1843,3.2386,3.2753,3.3087,3.327,3.3284,3.3302,3.3465,3.3775,3.3839,3.397,3.4185,3.416,3.416,3.416,3.4141,3.4123,3.4123,3.4141,3.4179,3.4197,3.4197,3.4197,3.4197,3.4197,3.4197,3.4197,3.4197,3.4197,3.4197,3.4209,3.4262,3.4379,3.4484,3.452,3.4618,3.4821,3.4889,3.4936,3.5056,3.5106,3.5106,3.5106,3.5087,3.5114,3.5114,3.5122,3.517,3.5371,3.5405,3.5451,3.5662,3.5707,3.5723,3.5794,3.6483,3.7074,3.7096,3.778,3.8037,3.7217,3.7042,3.6731,3.5915,3.5081,3.4555,3.4563,3.3863,3.3398,3.3398,3.3404,3.3381,3.336,3.2578,3.2086,3.2014,3.1232,3.0373,2.9476,2.9496,2.9075,2.8196,2.819,2.8151,2.8078,2.722,2.6828,0.0,0.0,3.25,3.3893,3.5473,3.6928,3.8042,3.8488,3.8618,3.8358,3.7303,3.6283,3.5747,3.5469,3.5447,3.5881,3.6612,3.6815,3.5872,3.5012,3.3811,3.1957,3.1207,0.0,0.0,0.0,0.0,3.3176,3.3366,3.3533,3.3761,3.4779,3.4918,3.397,3.5129,3.5462,3.4793,3.47,3.4668,3.4668,3.434,3.4197,3.4197,3.4197,3.4197,3.4197,3.4197,3.4197,3.4197,3.4197,3.4197,3.4197,3.4197,3.4197,3.4209,3.4245,3.4293,3.434,3.4416,3.4484,3.455,3.4668,3.5095,3.5463,3.4932,3.5179,3.5519,3.4933,3.487,3.4963,3.4963,3.5041,3.5256,3.5905,3.6055,3.6263,3.6999,3.7154,3.7223,3.7424,3.77,3.8079,3.8727,3.8596,3.8095,3.7236,3.6615,3.6125,3.5834,3.559,3.5466,3.5463,3.5227,3.5054,3.5058,3.5052,3.4825,3.4306,3.3434,3.2706,3.2125,3.1256,3.0665,3.0373,2.9223,2.85,2.8201,2.7089,2.6539,2.651,2.6162,2.5998,0.0,3.2221,3.4952,3.6067,3.7336,3.8451,3.8971,3.8878,3.8432,3.7634,3.5972,3.4428,3.3618,3.2985,3.2619,3.273,3.3391,3.3971,3.416,3.33,3.2581,3.2458,3.1703,0.0,0.0,0.0,0.0,3.3055,3.3617,3.39,3.3825,3.5066,3.5367,3.4421,3.5567,3.5887,3.5284,3.5181,3.5067,3.4889,3.4315,3.4111,3.4197,3.4197,3.4197,3.4197,3.4197,3.4197,3.4197,3.4197,3.4197,3.4197,3.4197,3.4197,3.4209,3.4245,3.4281,3.4305,3.4397,3.4461,3.4506,3.4591,3.5184,3.5747,3.4864,3.5202,3.5728,3.4846,3.4689,3.4858,3.5169,3.5324,3.5609,3.651,3.6719,3.6932,3.7735,3.7901,3.799,3.8257,3.8549,3.8952,3.9568,3.9213,3.8576,3.7702,3.6828,3.6144,3.5834,3.5845,3.5853,3.5853,3.5887,3.5908,3.5891,3.5898,3.568,3.5152,3.4041,3.3148,3.2593,3.1432,3.0645,3.0334,2.9243,2.8502,2.8191,2.6809,2.6128,2.6128,2.5782,2.5641,3.2277,3.4376,3.6049,3.7578,3.8544,3.9082,3.9031,3.8363,3.7509,3.6642,3.4953,3.3359,0.0,0.0,3.0663,2.9671,2.9583,3.0345,3.2299,3.0668,3.0615,0.0,0.0,0.0,0.0,0.0,0.0,3.2564,0.0,3.4425,3.367,3.439,3.4923,3.5135,3.5188,3.5359,3.5674,3.5654,3.5393,3.4934,3.4202,3.3989,3.4228,3.4216,3.4197,3.4197,3.4197,3.4197,3.4197,3.4197,3.4197,3.4197,3.4197,3.4197,3.4197,3.4209,3.4245,3.4316,3.4461,3.4495,3.4506,3.4591,3.5184,3.5747,3.4921,3.5277,3.5784,3.4958,3.4744,3.4921,3.5747,3.5953,3.6197,3.7137,3.7349,3.748,3.7921,3.8022,3.8104,3.836,3.9102,3.9665,3.967,3.9723,3.947,3.86,3.7761,3.6887,3.5911,3.5834,3.5853,3.5795,3.5905,3.5945,3.5892,3.5892,3.5897,3.5895,3.4325,3.3409,3.3407,3.1683,3.0375,2.9576,2.9438,2.8989,2.8191,2.7275,2.6846,2.6827,2.6069,2.5699,3.4469,3.6495,3.8284,3.8692,3.8952,3.8878,3.8032,3.68,3.5353,3.3684,3.1428,2.9483,0.0,0.0,0.0,3.0598,3.2207,0.0,3.4776,3.4406,0.0,0.0,0.0,3.395,3.4354,3.4898,0.0,0.0,3.4986,3.5443,3.5232,3.5969,3.6167,3.5644,3.6209,3.6547,3.6641,3.6292,3.5887,3.5413,3.4867,3.4656,3.4701,3.4358,3.4197,3.4197,3.4197,3.4197,3.4197,3.4197,3.4197,3.4197,3.4197,3.4197,3.4209,3.4257,3.4281,3.4316,3.4461,3.4495,3.4506,3.4591,3.5184,3.5859,3.5634,3.6141,3.6753,3.6528,3.6453,3.6509,3.6753,3.6791,3.7009,3.7845,3.8044,3.8286,3.9191,3.9509,3.9676,3.9904,4.0285,4.0563,4.0563,4.0572,4.0325,3.9489,3.9179,3.8242,3.6086,3.6377,3.6518,3.5872,3.6398,3.6521,3.588,3.5823,3.5856,3.5898,3.4277,3.3356,3.3408,3.1106,3.004,3.0451,2.8556,2.7762,2.8191,2.6712,2.6011,2.5991,2.5796,2.5699,3.6315,3.8079,3.9584,3.9194,3.8822,3.8192,3.6707,3.517,3.3406,3.1136,2.9119,0.0,0.0,0.0,0.0,0.0,0.0,0.0,3.3582,3.3792,3.4266,0.0,3.539,0.0,3.569,3.6075,3.6162,0.0,3.6092,3.618,3.581,3.6549,3.6796,3.6338,3.6761,3.7007,3.7007,3.6389,3.6025,3.5906,3.4948,3.4629,3.4889,3.4132,3.3954,3.4197,0.0,3.4086,3.4197,3.4197,3.4197,3.4197,3.4197,3.4197,3.4209,3.4245,3.4511,3.4838,3.4558,3.4697,3.4974,3.4685,3.5184,3.5841,3.5446,3.616,3.7035,3.6678,3.6828,3.7185,3.753,3.7624,3.7831,3.8657,3.8863,3.9048,3.9754,3.9979,4.0158,4.0442,4.0681,4.0863,4.0883,4.0907,4.0635,3.9815,3.9699,3.8883,3.6649,3.6809,3.6906,3.6416,3.6479,3.6328,3.5837,3.5836,3.57,3.536,3.4077,3.3183,3.2849,3.1045,3.0123,3.0221,2.8405,2.7532,2.7668,2.635,2.5699,2.5699,2.5699,2.5699,3.8005,3.9287,4.023,3.9454,3.8581,3.7376,3.5344,3.3548,3.1543,2.8827,0.0,0.0,2.5028,0.0,2.642,2.538,0.0,2.9141,3.1475,3.1809,3.309,3.6586,3.6373,3.6233,3.6937,3.7007,3.7007,3.7007,3.7007,3.6708,3.6004,3.6619,3.7007,3.7007,3.7007,3.7007,3.7007,3.6303,3.605,3.6221,3.4814,3.4373,3.4743,3.3738,3.3602,3.4136,0.0,0.0,3.4197,3.4197,3.4271,3.4364,3.4364,3.4364,3.4364,3.4376,3.4908,3.5478,3.4692,3.5049,3.5731,3.4891,3.5108,3.5615,3.4958,3.5871,3.6979,3.6385,3.6798,3.7598,3.8281,3.8469,3.8657,3.942,3.9589,3.965,3.9815,3.9892,4.0032,4.0453,4.0661,4.0818,4.0898,4.0907,4.0655,3.9951,3.9854,3.9276,3.7644,3.7333,3.7178,3.6945,3.6339,3.5931,3.5814,3.5853,3.5577,3.4817,3.3898,3.3058,3.2304,3.1229,3.0349,2.9686,2.8602,2.7753,2.7169,2.6172,2.5692,2.5691,2.5707,2.5705,3.9733,4.0193,4.0346,4.0211,3.9027,3.7155,3.4343,3.1982,0.0,0.0,0.0,2.4892,2.5231,0.0,0.0,2.9736,0.0,0.0,0.0,0.0,3.5495,0.0,0.0,0.0,0.0,0.0,0.0,0.0,0.0,0.0,3.6814,3.6919,3.7007,3.7007,3.7007,3.7007,3.7007,3.6867,3.6482,3.5888,3.5226,3.463,3.4153,3.3563,3.3508,3.3855,0.0,0.0,3.4197,3.4197,3.4606,3.5268,3.5268,3.5268,3.5268,3.5349,3.5466,3.5491,3.4749,3.5495,3.6536,3.5068,3.4695,3.4921,3.5503,3.6329,3.7223,3.7737,3.8488,3.9195,3.9345,3.9364,3.942,3.9552,3.9589,3.9602,3.9631,3.9818,4.012,4.057,4.07,4.0767,4.0874,4.0907,4.0849,4.0713,4.0694,4.0344,3.9368,3.8615,3.7625,3.6183,3.6537,3.6576,3.5853,3.5803,3.5772,3.5687,3.4194,3.3265,3.3173,3.1009,3.0058,3.0566,2.8358,2.7494,2.8079,2.6477,2.5695,2.5695,2.5702,2.5693,4.029,4.0416,4.0416,4.0416,3.8507,3.5877,3.2889,0.0,0.0,0.0,0.0,2.4857,2.4835,0.0,0.0,0.0,0.0,0.0,0.0,0.0,0.0,0.0,0.0,0.0,0.0,0.0,0.0,0.0,0.0,0.0,3.7007,3.7007,3.7007,3.7007,3.7007,3.7007,3.7007,3.7007,3.6814,3.6408,3.5769,3.5155,3.4562,3.3762,3.3461,3.3522,3.3361,0.0,3.3998,3.3998,3.4592,3.5491,3.5547,3.582,3.6174,3.6249,3.6534,3.6733,3.5577,3.6255,3.7372,3.5781,3.5559,3.5908,3.5897,3.6742,3.7793,3.8188,3.8932,3.9589,3.9589,3.9589,3.9589,3.9589,3.9589,3.9614,3.9637,3.9832,4.011,4.0427,4.0609,4.0718,4.0832,4.0878,4.0907,4.0907,4.0907,4.0616,3.9796,3.8946,3.792,3.6615,3.644,3.6241,3.5834,3.5795,3.5446,3.461,3.3767,3.292,3.2083,3.0872,3.0415,3.0793,2.9198,2.834,2.8301,2.701,2.6149,2.57,2.5696,2.5693,4.0661,4.0661,4.0661,4.0661,3.8074,3.4778,3.1989,2.9349,0.0,0.0,0.0,2.5085,2.4835,0.0,0.0,0.0,0.0,0.0,0.0,0.0,0.0,0.0,0.0,0.0,0.0,0.0,0.0,0.0,0.0,0.0,3.7007,3.7007,3.7007,3.7007,3.7007,3.7007,3.7007,3.7007,3.6919,3.6744,3.611,3.5433,3.4728,3.3882,3.3399,3.3187,3.3102,0.0,0.0,3.4256,3.5032,3.6062,3.6112,3.6516,3.7088,3.715,3.7555,3.7904,3.6543,3.7117,3.8215,3.6663,3.6573,3.6979,3.6348,3.7155,3.83,3.83,3.8932,3.9589,3.9589,3.9589,3.9589,3.9589,3.9589,3.9638,3.9724,3.9865,4.0051,4.0279,4.0515,4.0707,4.0788,4.0853,4.0907,4.0907,4.0907,4.0616,3.9796,3.9101,3.8343,3.7469,3.644,3.5795,3.5795,3.5795,3.5244,3.3913,3.3677,3.2909,3.1393,3.117,3.0986,3.08,3.0011,2.9175,2.8297,2.7422,2.6543,2.5703,2.5702,2.5702,4.1479,4.1479,4.1479,4.1479,3.8483,3.4914,3.2693,0.0,0.0,0.0,2.4783,2.4818,2.6139,2.6616,0.0,0.0,0.0,0.0,0.0,0.0,0.0,0.0,0.0,0.0,0.0,0.0,0.0,0.0,0.0,0.0,0.0,3.7007,3.7007,3.7007,3.7007,3.7007,3.7007,3.7007,3.6619,3.5897,3.5827,3.504,3.3635,3.3547,3.3263,3.2878,0.0,0.0,0.0,3.5759,3.6771,3.786,3.786,3.7916,3.7972,3.7985,3.8041,3.7978,3.7161,3.799,3.9114,3.7519,3.7035,3.7091,3.7016,3.7606,3.83,3.83,3.8932,3.9589,3.9589,3.9589,3.9589,3.9589,3.9589,3.965,3.9834,3.9892,4.001,4.0339,4.0508,4.0655,4.0782,4.0853,4.0907,4.0907,4.0907,4.0616,3.9796,3.9621,3.9256,3.8367,3.6789,3.5795,3.5795,3.5795,3.5736,3.5585,3.4873,3.4049,3.3103,3.2365,3.1601,3.082,3.0003,2.9164,2.8305,2.7429,2.6551,2.5692,2.5701,2.5703,4.0341,4.0494,4.0215,4.0736,3.7312,3.343,3.1931,0.0,0.0,2.4892,2.487,2.5419,2.6981,2.7262,2.7631,0.0,0.0,0.0,0.0,0.0,0.0,0.0,0.0,0.0,0.0,0.0,0.0,0.0,0.0,0.0,0.0,3.7007,3.7007,3.7007,3.7007,3.7007,3.7007,3.7007,3.6849,3.6513,3.6513,3.5706,3.4232,3.4232,3.3618,3.2591,0.0,0.0,0.0,3.4948,3.6215,3.792,3.7973,3.8363,3.8945,3.8983,3.9008,3.8896,3.8076,3.8564,3.9364,3.8194,3.8181,3.8519,3.7981,3.8413,3.9082,3.9082,3.9326,3.9589,3.9589,3.9589,3.9589,3.9589,3.9589,3.9662,3.9856,3.99,3.9996,4.029,4.0408,4.0523,4.0655,4.0775,4.0853,4.0878,4.0907,4.0771,4.0461,3.9994,3.9567,3.9217,3.7625,3.6576,3.6576,3.6105,3.5581,3.5041,3.4722,3.3955,3.263,3.2262,3.1698,3.082,3.0489,2.965,2.8303,2.7952,2.7054,2.5707,2.624,2.6477,3.8687,3.938,3.9565,3.9918,3.6358,3.2489,0.0,0.0,0.0,2.465,2.5112,2.5896,2.7154,2.7616,2.7994,0.0,0.0,0.0,0.0,0.0,0.0,0.0,0.0,0.0,0.0,0.0,0.0,0.0,0.0,0.0,0.0,3.7007,3.7007,3.7007,3.7007,3.7007,3.7007,3.7007,3.7007,3.7007,3.6761,3.6075,3.5021,3.4793,3.3968,3.2757,0.0,0.0,0.0,3.4835,3.6091,3.7776,3.7894,3.8548,3.9425,3.9552,3.9589,3.9514,3.8901,3.9101,3.9495,3.8882,3.9101,3.9495,3.8863,3.912,3.9589,3.9589,3.9589,3.9589,3.9589,3.9589,3.9589,3.9589,3.9589,3.9662,3.9856,3.99,3.9984,4.0244,4.0342,4.043,4.0523,4.0675,4.0818,4.0863,4.0893,4.0907,4.0907,4.0402,4.0053,4.0053,3.8732,3.7664,3.7139,3.6537,3.5818,3.4944,3.4902,3.4292,3.2903,3.262,3.2077,3.1191,3.0937,3.0099,2.8674,2.8674,2.7913,2.6488,2.7094,2.7387,3.6736,3.852,4.0193,3.9324,3.6036,3.2661,0.0,0.0,2.5077,2.5328,2.5604,2.5969,2.6497,2.7429,2.8006,2.776,0.0,0.0,0.0,0.0,0.0,0.0,0.0,0.0,0.0,0.0,0.0,0.0,0.0,0.0,0.0,3.7007,3.7007,3.7007,3.7007,3.7007,3.7007,3.7007,3.7007,3.6989,3.6197,3.5792,3.5757,3.5021,3.4266,0.0,0.0,0.0,0.0,3.6051,3.7091,3.7715,3.7928,3.8497,3.9237,3.9496,3.9589,3.9589,3.9589,3.9589,3.9589,3.9589,3.9589,3.9589,3.9589,3.9589,3.9589,3.9589,3.9589,3.9589,3.9589,3.9589,3.9589,3.9589,3.9589,3.9662,3.9856,3.99,3.9984,4.0244,4.0342,4.0406,4.0406,4.0621,4.0794,4.08,4.0858,4.0907,4.0907,4.0888,4.0888,4.0888,4.0169,3.8965,3.7256,3.7081,3.6712,3.5834,3.5857,3.5486,3.4617,3.3804,3.2989,3.2109,3.1231,3.0392,2.9592,2.9592,2.9124,2.8264,2.8283,2.8283,3.289,3.393,3.4469,3.4191,3.1765,2.9299,2.8761,0.0,2.4144,2.474,2.4919,2.5531,2.7297,2.7885,2.8195,2.8466,2.9614,0.0,0.0,0.0,0.0,0.0,0.0,0.0,0.0,0.0,0.0,0.0,0.0,0.0,0.0,3.7007,3.7007,3.7007,3.7007,3.7007,3.7007,3.7007,3.7007,3.7007,3.6744,3.6338,3.5792,3.5547,0.0,0.0,0.0,0.0,0.0,3.4926,3.591,3.7452,3.7697,3.8363,3.9224,3.9496,3.9589,3.9589,3.9589,3.9589,3.9589,3.9589,3.9589,3.9589,3.9589,3.9589,3.9589,3.9589,3.9589,3.9589,3.9589,3.9589,3.9589,3.9589,3.9589,3.9662,3.9856,3.99,3.9984,4.0244,4.0319,4.0353,4.0389,4.0545,4.0681,4.0788,4.0853,4.0907,4.0907,4.0907,4.0907,4.0907,4.0674,4.0072,3.8965,3.778,3.6984,3.6712,3.6141,3.5456,3.4634,3.4352,3.3559,3.2129,3.1836,3.0997,2.9592,2.9592,2.9456,2.9182,2.9182,2.9474,0.0,3.1117,3.176,3.1422,2.9627,0.0,0.0,0.0,0.0,2.4197,2.4794,2.5619,2.6987,2.7786,2.8298,2.8428,2.9755,0.0,0.0,0.0,0.0,0.0,0.0,0.0,0.0,0.0,0.0,0.0,0.0,0.0,0.0,0.0,3.7007,3.7007,3.7007,3.7046,3.7105,3.7124,3.7124,3.7124,3.6807,3.6362,3.5792,3.5513,0.0,0.0,0.0,0.0,0.0,3.4562,3.5571,3.7204,3.7569,3.8308,3.9224,3.9496,3.9589,3.9589,3.9589,3.9589,3.9589,3.9589,3.9589,3.9589,3.9589,3.9589,3.9589,3.9589,3.9589,3.9589,3.9589,3.9833,4.0059,4.0059,4.0059,4.0196,4.0727,4.0355,4.0059,4.0645,4.0511,4.031,4.037,4.0457,4.0545,4.0635,4.0761,4.0863,4.0863,4.0888,4.0907,4.0907,4.0907,4.0694,4.0208,3.8576,3.745,3.712,3.628,3.5597,3.5104,3.4773,3.396,3.2617,3.2265,3.1427,3.004,3.004,3.004,3.004,3.004,3.0313,0.0,0.0,0.0,0.0,0.0,0.0,0.0,0.0,0.0,0.0,0.0,2.6023,2.5875,2.7257,2.8265,2.7797,2.9103,0.0,0.0,0.0,0.0,0.0,0.0,0.0,0.0,0.0,0.0,0.0,0.0,0.0,0.0,0.0,3.7007,3.7027,3.7027,3.7105,3.7278,3.7297,3.7297,3.7297,3.6554,3.6072,3.5813,3.5181,0.0,0.0,0.0,0.0,0.0,3.492,3.5954,3.7064,3.754,3.834,3.9224,3.9496,3.9589,3.9589,3.9589,3.9589,3.9589,3.9589,3.9589,3.9589,3.9589,3.9589,3.9589,3.9589,3.9646,3.9683,3.9683,4.0247,4.0816,4.0872,4.0848,4.1092,4.2089,4.1086,4.029,4.1227,4.0807,4.0301,4.0301,4.037,4.0406,4.0406,4.0628,4.0794,4.0794,4.0858,4.0907,4.0907,4.0907,4.0907,4.0907,3.9412,3.8115,3.7256,3.6377,3.5892,3.5906,3.5126,3.4311,3.3513,3.2636,3.1797,3.0976,3.0917,3.0898,3.0898,3.0839,3.08,0.0,0.0,0.0,0.0,0.0,0.0,0.0,0.0,0.0,0.0,0.0,2.5002,2.614,2.7017,2.7673,2.7972,0.0,0.0,0.0,0.0,0.0,0.0,0.0,0.0,0.0,0.0,0.0,0.0,0.0,0.0,0.0,0.0,3.7066,3.722,3.722,3.7182,3.7066,3.722,3.7297,3.7297,3.727,3.6897,3.6256,3.6719,0.0,0.0,0.0,0.0,3.6,3.5814,3.6324,3.7284,3.7748,3.8444,3.9224,3.9496,3.9589,3.9589,3.9589,3.9589,3.9589,3.9589,3.9589,3.9589,3.9589,3.9589,3.9589,3.9589,4.004,4.0516,4.0516,4.0666,4.0966,4.1573,4.1324,4.1045,4.1336,4.1171,4.0878,4.0626,4.0435,4.0301,4.0301,4.037,4.0406,4.0406,4.0628,4.0794,4.0794,4.0858,4.0907,4.0907,4.0907,4.0907,4.0907,3.9975,3.9023,3.8154,3.7275,3.6534,3.5925,3.5694,3.5212,3.4413,3.3534,3.2986,3.2791,3.2129,3.1797,3.1777,3.1114,3.08,0.0,0.0,0.0,0.0,0.0,0.0,0.0,0.0,0.0,0.0,0.0,0.0,2.6313,0.0,0.0,0.0,0.0,0.0,0.0,0.0,0.0,0.0,0.0,0.0,0.0,0.0,0.0,0.0,0.0,0.0,0.0,0.0,3.7334,3.7428,3.7447,3.7428,3.741,3.7521,3.7594,3.7594,3.7703,3.7077,3.5882,3.6684,0.0,0.0,0.0,0.0,3.6556,3.6358,3.69,3.794,3.828,3.8806,3.9406,3.9552,3.9589,3.9589,3.9589,3.9589,3.9589,3.9589,3.9589,3.9589,3.9589,3.9589,3.9589,3.9589,4.019,4.0797,4.0797,4.136,4.1961,4.1986,4.1713,4.16,4.2169,4.1426,4.0809,4.1351,4.0817,4.0301,4.0301,4.0336,4.0342,4.0342,4.0549,4.0713,4.0713,4.0812,4.0907,4.0907,4.0907,4.0907,4.0907,4.0499,3.9887,3.9053,3.7809,3.6913,3.6511,3.6104,3.5516,3.4725,3.3846,3.3396,3.3396,3.2929,3.2695,3.2675,3.1797,3.1407,0.0,0.0,0.0,0.0,0.0,0.0,0.0,0.0,0.0,0.0,0.0,0.0,0.0,0.0,0.0,0.0,0.0,0.0,0.0,0.0,0.0,0.0,0.0,0.0,0.0,0.0,0.0,0.0,0.0,0.0,0.0,0.0,0.0,3.7631,3.7649,3.7739,3.7934,3.7916,3.7899,3.7899,3.7916,3.7091,3.5503,3.6308,3.5896,0.0,0.0,0.0,3.6504,3.6709,3.7451,3.8489,3.8689,3.9122,3.9589,3.9589,3.9589,3.9589,3.9589,3.9589,3.9627,3.9739,3.9777,3.9815,3.9927,3.989,3.9815,3.9927,4.0365,4.0797,4.0797,4.1849,4.2769,4.2155,4.1924,4.2121,4.3097,4.162,4.0566,4.2124,4.1266,4.0301,4.0301,4.0396,4.0435,4.032,4.0567,4.0728,4.0607,4.0773,4.0893,4.0907,4.0907,4.0907,4.0907,4.0907,4.0619,3.9949,3.8252,3.7212,3.7019,3.6302,3.5588,3.4901,3.4177,3.3806,3.3806,3.365,3.3591,3.3572,3.2695,3.2304,0.0,0.0,0.0,0.0,0.0,0.0,0.0,0.0,0.0,0.0,0.0,0.0,0.0,0.0,0.0,0.0,0.0,0.0,0.0,0.0,0.0,0.0,0.0,0.0,0.0,0.0,0.0,0.0,0.0,0.0,0.0,0.0,0.0,3.7846,3.7846,3.7951,3.8158,3.8004,3.7899,3.7899,3.8055,3.7653,3.675,3.7564,3.7419,0.0,0.0,3.7419,3.6911,3.7132,3.7466,3.7872,3.8061,3.8732,3.9589,3.9589,3.9589,3.9589,3.9589,3.9589,3.9702,4.0384,4.0609,4.0741,4.1423,4.1173,4.076,4.1441,4.1229,4.0797,4.0797,4.0985,4.1323,4.1873,4.1563,4.1227,4.145,4.1277,4.1002,4.074,4.0473,4.0301,4.0301,4.0864,4.1074,4.0396,4.1001,4.1316,4.0677,4.0732,4.0846,4.0878,4.0907,4.0907,4.0907,4.0907,4.0866,4.0805,3.9162,3.756,3.6159,3.602,3.5931,3.5797,3.566,3.5602,3.5602,3.4861,3.4491,3.4471,3.3612,3.3201,2.47,2.6182,0.0,0.0,0.0,0.0,0.0,0.0,0.0,0.0,0.0,0.0,0.0,0.0,0.0,0.0,0.0,0.0,0.0,0.0,0.0,0.0,0.0,0.0,0.0,0.0,0.0,0.0,0.0,0.0,0.0,0.0,0.0,0.0,3.7405,3.724,3.6906,3.724,3.7622,3.8055,3.8158,3.7774,3.7031,3.7828,3.7756,3.7049,0.0,3.7738,3.7047,3.7578,3.7658,3.7548,3.822,3.8853,3.9406,3.9552,3.9589,3.9589,3.9589,3.9589,3.9664,4.004,4.0153,4.0215,4.0591,4.044,4.0228,4.0591,4.0741,4.091,4.1329,4.1441,4.1423,4.1366,4.1161,4.1043,4.1139,4.0889,4.0718,4.0903,4.0597,4.0301,4.0301,4.0979,4.1361,4.0998,4.1386,4.1591,4.1338,4.1003,4.0834,4.0898,4.0907,4.0907,4.0907,4.093,4.0583,3.9698,3.9332,3.84,3.6723,3.6692,3.6696,3.6696,3.6246,3.5992,3.5992,3.5602,3.5154,3.4686,3.3806,3.3143,2.47,2.5928,0.0,0.0,0.0,0.0,0.0,0.0,0.0,0.0,0.0,0.0,0.0,0.0,0.0,0.0,0.0,0.0,0.0,0.0,0.0,0.0,0.0,0.0,0.0,0.0,0.0,0.0,0.0,0.0,0.0,0.0,0.0,0.0,3.7104,3.6705,3.6091,3.6705,3.7303,3.7919,3.8118,3.7883,3.7303,3.7919,3.7865,3.7303,3.7738,3.7466,3.6759,3.7178,3.7212,3.7076,3.7713,3.8345,3.8963,3.937,3.9552,3.9627,3.9815,3.9758,3.9664,4.004,4.0171,4.0247,4.0641,4.0472,4.0209,4.0416,4.0491,4.0666,4.1285,4.1441,4.1285,4.0666,4.0615,4.0729,4.0866,4.0471,4.0318,4.1074,4.0731,4.0358,4.0559,4.1266,4.18,4.18,4.2048,4.2145,4.189,4.1389,4.1013,4.0888,4.0898,4.0912,4.0921,4.0964,4.036,3.8892,3.9254,3.8843,3.736,3.7301,3.7204,3.7009,3.6344,3.5992,3.5992,3.5992,3.566,3.4998,3.4314,3.3534,2.47,2.5928,0.0,0.0,0.0,0.0,0.0,0.0,0.0,0.0,0.0,0.0,0.0,0.0,0.0,0.0,0.0,0.0,0.0,0.0,0.0,0.0,0.0,0.0,0.0,0.0,0.0,0.0,0.0,0.0,0.0,0.0,0.0,0.0,0.0,3.6977,3.6904,3.6977,3.7031,3.7104,3.7846,3.8172,3.8118,3.8172,3.8172,3.8082,3.7393,3.6616,3.5822,3.5134,3.5375,3.6124,3.5461,3.6385,3.8193,3.9035,3.9432,3.9702,4.044,4.0215,3.9852,4.1329,4.1835,4.2117,4.3675,4.3055,4.2004,4.2806,4.143,3.9702,3.9758,3.9777,3.9758,3.9702,3.9743,3.9822,3.9954,4.0053,4.0156,4.0339,4.0339,4.054,4.1285,4.2125,4.2717,4.2717,4.3348,4.3312,4.1906,4.1786,4.1563,4.0872,4.0863,4.0926,4.0988,4.1006,4.0632,3.9765,3.9068,3.8279,3.734,3.7301,3.6911,3.6109,3.6031,3.5992,3.5992,3.5992,3.5973,3.5895,3.5836,3.5348,2.47,2.5928,0.0,0.0,0.0,0.0,0.0,0.0,0.0,0.0,0.0,0.0,0.0,0.0,0.0,0.0,0.0,0.0,0.0,0.0,0.0,0.0,0.0,0.0,0.0,0.0,0.0,0.0,0.0,0.0,0.0,0.0,0.0,0.0,0.0,3.5258,3.4769,3.5258,3.5512,3.5512,3.6327,3.6707,3.6707,3.6707,3.6979,3.7412,3.6598,3.6091,3.5768,3.546,3.5268,3.5208,3.5535,3.6527,3.7932,3.8931,3.9328,3.9548,4.1046,4.1022,4.0534,4.1629,4.2004,4.2023,4.2168,4.1755,4.1229,4.1054,4.0322,3.9721,4.0215,3.9984,3.9589,3.9589,3.9708,3.9826,3.9889,4.0466,4.0835,4.0396,4.0711,4.1132,4.1437,4.2221,4.2966,4.3472,4.3386,4.3053,4.253,4.1572,4.0911,4.0821,4.0858,4.0939,4.0986,4.1003,4.0897,4.0627,4.0325,3.9548,3.8162,3.8103,3.7692,3.6833,3.6285,3.5992,3.5992,3.5992,3.5719,3.5193,3.5193,3.4725,2.47,2.574,0.0,0.0,0.0,0.0,0.0,0.0,0.0,0.0,0.0,0.0,0.0,0.0,0.0,0.0,0.0,0.0,0.0,0.0,0.0,0.0,0.0,0.0,0.0,0.0,0.0,0.0,0.0,0.0,0.0,0.0,0.0,0.0,0.0,0.0,3.3791,3.432,3.4464,3.4226,3.4787,3.5315,3.5804,3.5804,3.6236,3.6959,3.6164,3.5804,3.5768,3.5532,3.495,3.435,3.553,3.6337,3.7026,3.8771,3.9338,3.9517,4.1576,4.1633,4.0929,4.1742,4.1835,4.1573,4.1272,4.1004,4.0741,4.044,3.9984,3.9808,4.0641,4.0252,3.9644,3.9679,3.9841,4.003,4.0287,4.0947,4.1418,4.1151,4.1533,4.1991,4.2259,4.2775,4.3463,4.4303,4.394,4.3502,4.3273,4.2042,4.1097,4.0834,4.0858,4.0924,4.0984,4.099,4.1039,4.1106,4.1109,4.0348,3.8669,3.8591,3.8064,3.6911,3.6305,3.5992,3.5992,3.5992,3.568,3.5115,3.5115,3.4647,2.47,0.0,0.0,0.0,0.0,0.0,0.0,0.0,0.0,0.0,0.0,0.0,0.0,0.0,0.0,0.0,0.0,0.0,0.0,0.0,0.0,0.0,0.0,0.0,0.0,0.0,0.0,0.0,0.0,0.0,0.0,0.0,0.0,0.0,0.0,0.0,3.4591,3.4591,3.419,3.3411,3.3411,3.4262,3.5786,3.5786,3.6236,3.6959,3.6164,3.5804,3.5731,3.4932,3.4117,3.3556,3.5152,3.543,3.5286,3.8507,3.9508,3.9624,4.206,4.1964,4.0929,4.1742,4.146,4.0966,4.1742,4.1423,4.0966,4.1742,4.0835,3.9833,4.0764,4.0365,3.9747,3.9878,4.0005,4.0335,4.1136,4.1426,4.1781,4.2622,4.2813,4.3061,4.3854,4.4006,4.4293,4.5163,4.5288,4.4953,4.4083,4.3321,4.234,4.0951,4.0858,4.0928,4.0984,4.099,4.1039,4.1106,4.1109,4.0348,3.8689,3.8611,3.7809,3.6051,3.6012,3.6012,3.6012,3.6012,3.6012,3.5992,3.5992,3.5543,2.47,0.0,0.0,0.0,0.0,0.0,0.0,0.0,0.0,0.0,0.0,0.0,0.0,0.0,0.0,0.0,0.0,0.0,0.0,0.0,0.0,0.0,0.0,0.0,0.0,0.0,0.0,0.0,0.0,0.0,0.0,0.0,0.0,0.0,0.0,0.0,3.3755,3.3755,3.3918,3.4244,3.4244,3.4482,3.4953,3.4953,3.5693,3.6959,3.6164,3.5804,3.5695,3.4317,3.3628,3.3447,3.3936,3.4362,3.496,3.7235,3.8006,3.8298,4.1084,4.1376,4.0675,4.1683,4.1835,4.1573,4.1267,4.0985,4.0722,4.0403,3.9989,3.9908,4.0886,4.0975,4.0677,4.0044,4.0433,4.1011,4.125,4.2342,4.3176,4.287,4.3271,4.372,4.3968,4.4006,4.4293,4.5163,4.4303,4.3023,4.1581,4.1319,4.1118,4.0706,4.0839,4.098,4.1007,4.1031,4.1079,4.1108,4.1109,4.0602,3.9488,3.9449,3.8921,3.7849,3.783,3.7536,3.6911,3.6911,3.6597,3.5992,3.5992,3.5856,0.0,0.0,0.0,0.0,0.0,0.0,0.0,0.0,0.0,0.0,0.0,0.0,0.0,0.0,0.0,0.0,0.0,0.0,0.0,0.0,0.0,0.0,0.0,0.0,0.0,0.0,0.0,0.0,0.0,0.0,0.0,0.0,0.0,0.0,0.0,0.0,3.3393,3.3393,3.381,3.4606,3.4606,3.4932,3.553,3.5222,3.5783,3.6977,3.649,3.6272,3.6146,3.4534,3.3882,3.3882,3.3882,3.3991,3.4386,3.6477,3.7275,3.7671,4.0074,4.0669,4.0505,4.1151,4.1207,4.0966,4.0459,4.0309,4.029,4.0115,3.9881,4.0011,4.1329,4.125,4.0848,4.1018,4.1222,4.1463,4.1826,4.2487,4.3061,4.3252,4.3663,4.4102,4.4456,4.4236,4.4178,4.4704,4.3654,4.2316,4.096,4.0927,4.0923,4.0626,4.0793,4.0945,4.1007,4.1059,4.1105,4.1108,4.1109,4.0855,4.0346,3.9976,3.9429,3.8611,3.8259,3.8006,3.7809,3.7126,3.6696,3.65,3.6168,3.5992,0.0,0.0,0.0,0.0,0.0,0.0,0.0,0.0,0.0,0.0,0.0,0.0,0.0,0.0,0.0,0.0,0.0,0.0,0.0,0.0,0.0,0.0,0.0,0.0,0.0,0.0,0.0,0.0,0.0,0.0,0.0,0.0,0.0,0.0,0.0,0.0,3.3284,3.3212,3.3592,0.0,3.4389,3.5222,3.6759,3.6109,3.6236,3.6995,3.6995,3.6995,3.6886,3.5349,3.47,3.4715,3.4643,3.4154,3.3773,3.598,3.6973,3.7464,3.8965,3.9825,4.0277,4.0272,3.9986,3.9589,3.9589,3.9589,3.9758,4.0478,4.0232,4.0117,4.1828,4.1269,4.068,4.2487,4.224,4.1839,4.2622,4.224,4.2183,4.3701,4.4006,4.4255,4.5048,4.4532,4.3949,4.3796,4.3157,4.2374,4.1495,4.1501,4.133,4.0677,4.0734,4.0848,4.0984,4.1061,4.1107,4.1108,4.1109,4.1109,4.1109,4.0346,3.9566,3.8845,3.7965,3.7887,3.8591,3.6931,3.6539,3.7282,3.6402,3.6031,0.0,0.0,0.0,0.0,0.0,0.0,0.0,0.0,0.0,0.0,0.0,0.0,0.0,0.0,0.0,0.0,0.0,0.0,0.0,0.0,0.0,0.0,0.0,0.0,0.0,0.0,0.0,0.0,0.0,0.0,0.0,0.0,0.0,0.0,0.0,3.2451,3.2451,3.1818,3.1908,0.0,3.2723,3.3556,3.5131,3.5587,3.6236,3.6995,3.6995,3.6995,3.6922,3.5946,3.5532,3.5478,3.486,3.4482,3.4407,3.4932,3.5543,3.6308,3.7439,3.8431,3.9252,3.9403,3.9524,3.9589,3.9589,3.9589,3.9646,3.9815,3.9859,4.0105,4.1181,4.1324,4.1618,4.3338,4.3119,4.2565,4.2756,4.3157,4.3567,4.393,4.4006,4.4064,4.4255,4.4121,4.3548,4.224,4.1896,4.1476,4.0673,4.0628,4.0665,4.0619,4.0768,4.0902,4.0987,4.1061,4.1104,4.1109,4.1109,4.1109,4.1109,4.0914,4.0738,4.0563,3.9702,3.9039,3.8591,3.7536,3.7126,3.7282,3.6402,3.6363,0.0,0.0,0.0,0.0,0.0,0.0,0.0,0.0,0.0,0.0,0.0,0.0,0.0,0.0,0.0,0.0,0.0,0.0,0.0,0.0,0.0,0.0,0.0,0.0,0.0,0.0,0.0,0.0,0.0,0.0,0.0,0.0,0.0,0.0,3.1618,3.1618,3.1618,3.1202,3.16,3.2777,3.2379,3.2832,3.4081,3.5261,3.6021,3.6435,3.6435,3.6651,3.6941,3.6127,3.6021,3.6254,3.5059,3.4826,3.508,3.4317,3.4787,3.5856,3.6412,3.7266,3.821,3.8715,3.9115,3.9419,3.9419,3.9514,3.9589,3.9589,3.9703,4.0015,4.0953,4.1303,4.1741,4.3099,4.3119,4.2908,4.3291,4.3395,4.3529,4.393,4.3682,4.3548,4.393,4.3682,4.2985,4.1686,4.1495,4.1208,4.0396,4.0336,4.0419,4.0574,4.0721,4.0857,4.0984,4.1066,4.1109,4.1109,4.1109,4.1109,4.1109,4.1109,4.1109,4.1109,4.0249,3.98,3.9782,3.8533,3.8121,3.8473,3.7633,3.7497,0.0,0.0,0.0,0.0,0.0,0.0,0.0,0.0,0.0,0.0,0.0,0.0,0.0,0.0,0.0,0.0,0.0,0.0,0.0,0.0,0.0,0.0,0.0,0.0,0.0,0.0,0.0,0.0,0.0,0.0,0.0,0.0,3.0871,3.0998,3.0871,3.0926,3.1202,3.0926,3.1528,3.2977,3.2451,3.2469,3.3049,3.4516,3.5315,3.5605,3.5731,3.6182,3.6759,3.6218,3.6399,3.6868,3.553,3.5421,3.582,3.4208,3.4552,3.5768,3.5641,3.6245,3.7226,3.8016,3.8516,3.8811,3.9131,3.9307,3.9414,3.9557,3.9696,3.9955,4.0772,4.1043,4.1367,4.2335,4.2584,4.2756,4.3414,4.3061,4.2813,4.3624,4.3271,4.3004,4.3682,4.3119,4.2335,4.1609,4.1495,4.1208,4.0396,4.0301,4.0372,4.0557,4.0648,4.0772,4.097,4.1042,4.1109,4.1109,4.1109,4.1109,4.1109,4.1109,4.1109,4.1109,4.0249,4.0151,4.0875,3.9333,3.9001,3.978,3.8962,3.8669,0.0,0.0,0.0,0.0,0.0,0.0,0.0,0.0,0.0,0.0,0.0,0.0,0.0,0.0,0.0,0.0,0.0,0.0,0.0,0.0,0.0,0.0,0.0,0.0,0.0,0.0,0.0,0.0,0.0,0.0,0.0,2.9572,3.0273,3.098,3.0328,3.0636,3.2035,3.0672,3.0418,3.1329,3.1908,3.189,3.1347,3.2252,3.3447,3.4806,3.5496,3.5858,3.6019,3.6598,3.6904,3.6977,3.6759,3.6759,3.6651,3.5041,3.5023,3.5695,3.4989,3.5408,3.6399,3.7208,3.7223,3.7243,3.8881,3.8952,3.8649,3.9458,3.9859,4.0045,4.0073,4.0248,4.0635,4.1476,4.1667,4.1705,4.18,4.1743,4.1934,4.2794,4.287,4.2832,4.2947,4.224,4.1628,4.1514,4.1495,4.1208,4.0396,4.0301,4.0327,4.0414,4.0585,4.0771,4.0894,4.1028,4.1109,4.1109,4.1109,4.1109,4.1109,4.1109,4.1109,4.1109,4.0249,3.9858,3.9976,3.906,3.9001,3.978,3.8962,3.8962,0.0,0.0,0.0,0.0,0.0,0.0,0.0,0.0,0.0,0.0,0.0,0.0,0.0,0.0,0.0,0.0,0.0,0.0,0.0,0.0,0.0,0.0,0.0,0.0,0.0,0.0,0.0,0.0,0.0,0.0,2.869,2.9355,2.9965,3.0328,3.0418,3.0817,3.151,3.0835,3.0654,3.1034,3.227,3.2216,3.1034,3.1818,3.2343,3.2596,3.2958,3.3375,3.3846,3.4643,3.524,3.5693,3.6146,3.6327,3.6182,3.5041,3.4824,3.508,3.4718,3.49,3.539,3.6209,3.6842,3.7442,3.8255,3.8839,3.9275,3.9709,4.0252,4.0612,4.0129,4.1163,4.2179,4.1638,4.1858,4.2221,4.2221,4.2221,4.2202,4.2087,4.2068,4.2068,4.2068,4.2163,4.2221,4.2221,4.2603,4.2431,4.1132,4.0979,4.0834,4.0487,4.0604,4.0752,4.0898,4.103,4.1109,4.1109,4.1109,4.1109,4.1109,4.1109,4.1109,4.1109,4.0717,4.0522,4.0522,4.0172,4.0172,4.0522,4.0172,4.0192,0.0,0.0,0.0,0.0,0.0,0.0,0.0,0.0,0.0,0.0,0.0,0.0,0.0,0.0,0.0,0.0,0.0,0.0,0.0,0.0,0.0,0.0,0.0,0.0,0.0,0.0,0.0,0.0,0.0,0.0,2.869,2.9355,2.9893,3.0092,3.069,3.1197,3.1614,3.1614,3.1614,3.1618,3.2614,3.2361,3.1003,3.1415,3.127,3.0726,3.1143,3.1636,3.227,3.3284,3.4063,3.4679,3.5478,3.5912,3.6019,3.5204,3.5041,3.5186,3.4987,3.48,3.4809,3.5608,3.6354,3.7073,3.7983,3.8886,3.9683,4.0133,4.0905,4.1423,4.061,4.2003,4.3321,4.2125,4.2335,4.2737,4.2526,4.2794,4.2851,4.1991,4.1991,4.2144,4.2144,4.2679,4.3042,4.2832,4.331,4.3157,4.1686,4.1495,4.1312,4.0828,4.1105,4.1272,4.1196,4.1304,4.139,4.1439,4.142,4.1324,4.1109,4.1304,4.1324,4.1109,4.1109,4.1109,4.1109,4.1109,4.1109,4.1109,4.1109,4.1109,0.0,0.0,0.0,0.0,0.0,0.0,0.0,0.0,0.0,0.0,0.0,0.0,0.0,0.0,0.0,0.0,0.0,0.0,0.0,0.0,0.0,0.0,0.0,0.0,0.0,0.0,0.0,0.0,0.0,0.0,2.8654,2.9355,3.0147,3.0908,3.098,3.1727,3.3266,3.3284,3.3284,3.3266,3.2596,3.1818,3.098,3.0255,2.9893,2.9947,3.1473,3.2162,3.2325,3.39,3.457,3.4679,3.5478,3.6272,3.685,3.6037,3.6218,3.6777,3.6001,3.536,3.5023,3.5831,3.5353,3.5116,3.8474,3.9154,3.9111,4.0762,4.1959,4.2487,4.1499,4.2045,4.2841,4.2756,4.2775,4.2565,4.1743,4.2832,4.3701,4.2889,4.3348,4.3873,4.3873,4.3911,4.3682,4.2908,4.2832,4.2526,4.1609,4.1495,4.1523,4.1532,4.2401,4.2691,4.1994,4.207,4.2206,4.2315,4.2337,4.1967,4.1129,4.1888,4.1947,4.1129,4.1109,4.1109,4.1109,4.1109,4.1109,4.1109,4.1109,4.1109,0.0,0.0,0.0,0.0,0.0,0.0,0.0,0.0,0.0,0.0,0.0,0.0,0.0,0.0,0.0,0.0,0.0,0.0,0.0,0.0,0.0,0.0,0.0,0.0,0.0,0.0,0.0,0.0,0.0,0.0,3.0188,3.0894,3.1473,3.1763,3.227,3.2814,3.3393,3.3393,3.3393,3.3393,3.3103,3.227,3.1016,3.1252,3.0781,2.9893,3.1492,3.1908,3.1524,3.2614,3.3067,3.3194,3.4516,3.5222,3.5494,3.5713,3.5657,3.5421,3.5131,3.4543,3.4011,3.4428,3.4811,3.5399,3.6806,3.8024,3.9014,3.9652,4.1256,4.2478,4.1026,4.2516,4.4265,4.3711,4.3997,4.4169,4.3291,4.3586,4.3758,4.2966,4.3023,4.3233,4.3233,4.3663,4.3892,4.3605,4.4055,4.4103,4.3283,4.3168,4.2996,4.2542,4.2853,4.3047,4.2902,4.2478,4.2262,4.2393,4.1888,4.142,4.1109,4.1402,4.142,4.1109,4.1109,4.1109,4.1109,4.1109,4.1109,4.1109,4.1109,4.1109,0.0,0.0,0.0,0.0,0.0,0.0,0.0,0.0,0.0,0.0,0.0,0.0,0.0,0.0,0.0,0.0,0.0,0.0,0.0,0.0,0.0,0.0,0.0,0.0,0.0,0.0,0.0,0.0,0.0,0.0,3.1034,3.1763,3.2325,3.2596,3.3121,3.3266,3.2995,3.3266,3.3266,3.2995,3.2995,3.2288,3.1016,3.127,3.0817,2.9875,3.1234,3.1636,3.1469,3.227,3.2596,3.2741,3.4081,3.4769,3.5098,3.591,3.5856,3.5439,3.5711,3.496,3.396,3.4373,3.4831,3.5364,3.6076,3.7354,3.8593,3.8907,4.0826,4.2488,4.1074,4.2985,4.5144,4.4571,4.4876,4.5144,4.4571,4.4437,4.4284,4.373,4.3634,4.3634,4.3634,4.4074,4.4331,4.4045,4.4504,4.4707,4.4163,4.3857,4.3637,4.3459,4.3492,4.3593,4.3825,4.3076,4.2783,4.3232,4.2454,4.1831,4.1557,4.2103,4.2006,4.1129,4.1382,4.1382,4.1109,4.1109,4.1109,4.1109,4.1109,4.1109,0.0,0.0,0.0,0.0,0.0,0.0,0.0,0.0,0.0,0.0,0.0,0.0,0.0,0.0,0.0,0.0,0.0,0.0,0.0,0.0,0.0,0.0,0.0,0.0,0.0,0.0,0.0,0.0,0.0,3.1071,3.1071,3.1799,3.2596,3.3375,3.3375,3.2995,3.2198,3.2977,3.2977,3.2198,3.2216,3.1799,3.098,3.0219,2.9839,2.9839,3.0654,3.1469,3.2252,3.3067,3.3393,3.3484,3.4298,3.508,3.5894,3.6705,3.6977,3.7085,3.7865,3.6721,3.5023,3.5809,3.5386,3.4884,3.6588,3.7351,3.7833,3.8736,4.0826,4.2622,4.182,4.3424,4.5269,4.5288,4.5307,4.5307,4.5307,4.5307,4.5307,4.5307,4.5307,4.5307,4.5307,4.5288,4.4972,4.4159,4.4076,4.4106,4.4097,4.3417,4.328,4.417,4.4266,4.4376,4.4621,4.3855,4.3817,4.4887,4.4114,4.3274,4.2474,4.4034,4.3743,4.1226,4.1986,4.1986,4.1148,4.1109,4.1109,4.1109,4.1109,4.1109,2.422,0.0,0.0,0.0,0.0,0.0,0.0,0.0,0.0,0.0,0.0,0.0,0.0,0.0,0.0,0.0,0.0,0.0,0.0,0.0,0.0,0.0,0.0,0.0,0.0,0.0,0.0,0.0,3.2741,3.2741,3.2741,3.294,3.3176,3.3393,3.2832,3.2433,3.2198,3.2415,3.2415,3.2198,3.2795,3.2343,3.1003,3.1365,3.0908,2.9839,3.0654,3.1469,3.2252,3.3067,3.3393,3.3484,3.4298,3.508,3.5894,3.6705,3.6616,3.6164,3.6399,3.567,3.4745,3.5108,3.565,3.6288,3.6912,3.7799,3.8678,3.8926,4.0826,4.3023,4.3997,4.4303,4.4532,4.5144,4.5307,4.5307,4.5307,4.5307,4.5307,4.5307,4.5307,4.5307,4.5307,4.4781,4.4494,4.4876,4.4428,4.4057,4.4154,4.3972,4.375,4.3464,4.3434,4.3474,4.3608,4.2895,4.2901,4.3922,4.2616,4.228,4.3294,4.3196,4.3079,4.2983,4.2591,4.2279,4.2045,4.14,4.1109,4.1109,4.1109,4.1109,0.0,0.0,0.0,0.0,0.0,0.0,0.0,2.4391,0.0,0.0,0.0,0.0,0.0,0.0,0.0,0.0,0.0,0.0,0.0,0.0,0.0,0.0,0.0,0.0,0.0,0.0,0.0,0.0,3.3212,3.3393,3.3393,3.2759,3.2542,3.2886,3.2125,3.1542,3.1197,3.1854,3.2035,3.1709,3.285,3.2723,3.1524,3.1636,3.0998,2.9821,3.031,3.0781,3.1288,3.2433,3.3284,3.3991,3.479,3.5602,3.6399,3.7212,3.6779,3.584,3.6182,3.5346,3.4228,3.4655,3.5174,3.5709,3.6328,3.7079,3.7852,3.8307,4.0291,4.2565,4.3902,4.4399,4.459,4.4723,4.5029,4.5307,4.5307,4.5307,4.5307,4.5307,4.5307,4.5182,4.4819,4.4331,4.4064,4.4227,4.3827,4.3541,4.3646,4.3367,4.3143,4.3096,4.2777,4.2734,4.3169,4.2859,4.2931,4.3565,4.3056,4.3021,4.3666,4.3918,4.3918,4.3705,4.3567,4.3138,4.2396,4.1537,4.1109,4.1109,4.1109,4.1091,0.0,0.0,0.0,0.0,0.0,0.0,2.4238,2.419,2.4134,0.0,0.0,0.0,0.0,0.0,0.0,0.0,0.0,0.0,0.0,0.0,0.0,0.0,0.0,0.0,0.0,0.0,3.1799,3.1799,3.2542,3.3049,3.314,3.1781,3.1329,3.2035,3.1288,3.0527,2.9802,3.1234,3.1618,3.1034,3.2542,3.2886,3.2162,3.1379,3.0563,2.9802,2.9712,2.9712,2.9911,3.1342,3.2886,3.441,3.5315,3.6164,3.6959,3.7683,3.7033,3.5876,3.6524,3.5374,3.3746,3.4473,3.4471,3.4423,3.5564,3.6111,3.6553,3.7774,3.9737,4.1705,4.2565,4.3959,4.4953,4.4178,4.4666,4.5307,4.5307,4.5307,4.5307,4.5307,4.5307,4.5048,4.4274,4.3987,4.3643,4.3023,4.2776,4.268,4.2754,4.2147,4.1997,4.2731,4.2124,4.2033,4.2969,4.3075,4.3248,4.3552,4.4278,4.444,4.386,4.5324,4.546,4.4018,4.4641,4.4131,4.2396,4.1537,4.1109,4.1109,4.1109,4.1093,0.0,0.0,0.0,0.0,0.0,0.0,2.4142,2.4113,2.4113,0.0,0.0,0.0,0.0,0.0,0.0,0.0,0.0,0.0,0.0,0.0,0.0,0.0,0.0,0.0,0.0,0.0,2.9306,2.9306,3.0043,3.0799,3.1419,3.1179,3.1071,3.122,3.0455,2.9965,2.9802,3.011,3.0509,3.1016,3.1962,3.2343,3.2162,3.1379,3.0563,2.9766,2.9119,2.9192,2.9821,3.0147,3.1234,3.2814,3.428,3.5331,3.6039,3.6218,3.6057,3.5747,3.5302,3.4857,3.4509,3.4714,3.533,3.616,3.7037,3.7701,3.8541,4.0282,4.1113,4.1705,4.2565,4.352,4.4197,4.4045,4.4666,4.5307,4.5307,4.5307,4.5307,4.5307,4.5307,4.525,4.5067,4.3921,4.3195,4.3682,4.2613,4.1791,4.1921,4.1805,4.1522,4.1066,4.0862,4.1101,4.1998,4.1544,4.1854,4.336,4.3042,4.3395,4.4697,4.507,4.5421,4.5792,4.5265,4.4131,4.2396,4.1537,4.1109,4.1109,4.1109,4.1093,0.0,0.0,0.0,2.4311,0.0,0.0,0.0,2.4191,2.4162,0.0,0.0,0.0,0.0,0.0,0.0,0.0,0.0,0.0,0.0,0.0,0.0,0.0,0.0,0.0,0.0,0.0,2.8165,2.8582,2.8974,2.9554,3.0364,3.0025,2.9989,3.04,2.9626,2.9192,2.9192,2.9603,3.0201,3.1016,3.1818,3.2415,3.2759,3.1546,3.0781,3.0328,2.9125,2.9065,2.9821,3.0237,3.1111,3.2325,3.3538,3.4987,3.6345,3.5949,3.5804,3.5693,3.4954,3.4451,3.4149,3.4235,3.4656,3.5407,3.6774,3.8182,3.948,4.0439,4.0806,4.1094,4.1934,4.2775,4.3491,4.3892,4.4666,4.5307,4.5307,4.5307,4.5307,4.5307,4.4953,4.4647,4.4647,4.3615,4.2794,4.2756,4.1705,4.094,4.1031,4.1048,4.1082,4.1135,4.1143,4.1335,4.175,4.1951,4.2056,4.2107,4.3075,4.3858,4.4328,4.5187,4.5851,4.628,4.5441,4.4367,4.304,4.2162,4.1518,4.1109,4.1109,4.1095,0.0,0.0,0.0,0.0,0.0,2.4373,0.0,0.0,0.0,0.0,0.0,0.0,0.0,0.0,0.0,0.0,0.0,0.0,0.0,0.0,0.0,0.0,0.0,0.0,0.0,0.0,2.726,2.8075,2.8274,2.8708,2.9531,2.8944,2.8889,2.9549,2.8938,2.86,2.86,2.9246,2.9965,3.0781,3.1419,3.2234,3.3103,3.1492,3.0853,3.0912,2.9287,2.9065,2.9857,3.0509,3.1329,3.227,3.3085,3.4679,3.6451,3.5639,3.5442,3.5457,3.4718,3.4189,3.3838,3.3922,3.4193,3.483,3.6448,3.8295,3.9829,3.9892,4.0193,4.0692,4.1323,4.2259,4.3195,4.3854,4.4666,4.5307,4.5307,4.5307,4.5307,4.5307,4.4723,4.4197,4.4025,4.3195,4.2316,4.1609,4.0826,4.0319,4.0398,4.0407,4.069,4.1481,4.1546,4.1612,4.1798,4.2473,4.2369,4.1144,4.3217,4.4165,4.3489,4.4953,4.5792,4.5792,4.5109,4.4406,4.3705,4.2825,4.1947,4.1109,4.1091,4.1196,0.0,0.0,0.0,0.0,2.4228,0.0,0.0,0.0,0.0,0.0,0.0,0.0,0.0,0.0,0.0,0.0,0.0,0.0,0.0,0.0,0.0,0.0,0.0,0.0,0.0,0.0,0.0,2.6409,2.7133,2.7894,2.869,2.8654,2.8636,2.8726,2.8654,2.86,2.86,2.869,2.9137,2.9947,3.0038,3.0871,3.227,3.0672,3.0328,3.0912,2.9287,2.9065,2.9802,2.9893,3.0835,3.227,3.3085,3.4009,3.4787,3.3973,3.4117,3.4624,3.3898,3.4095,3.4673,3.4745,3.5819,3.7165,3.7627,3.8614,3.958,3.9829,4.0611,4.138,4.1476,4.2679,4.3892,4.3987,4.4666,4.5307,4.5307,4.5307,4.5307,4.5307,4.522,4.4914,4.4121,4.2698,4.1609,4.1514,4.0826,4.0319,4.0398,4.0407,4.0468,4.0635,4.065,4.0973,4.1821,4.1358,4.1294,4.1995,4.24,4.259,4.255,4.3489,4.3998,4.3998,4.3899,4.3801,4.3705,4.2825,4.1947,4.1109,4.1095,4.1511,0.0,0.0,0.0,0.0,0.0,0.0,0.0,0.0,2.4338,0.0,0.0,0.0,0.0,0.0,0.0,0.0,0.0,0.0,0.0,0.0,0.0,0.0,0.0,0.0,0.0,0.0,0.0,0.0,0.0,2.6844,2.7188,2.8093,2.86,2.86,2.86,2.86,2.86,2.86,2.9011,2.9802,2.9802,3.04,3.1469,3.0328,3.0237,3.0944,2.9789,3.0025,3.1197,3.1197,3.1872,3.2922,3.3266,3.39,3.4516,3.3701,3.3918,3.448,3.3771,3.3767,3.4199,3.4769,3.6109,3.7522,3.762,3.841,3.9324,3.9599,3.9746,4.0193,4.1828,4.2393,4.2928,4.4399,4.5029,4.5307,4.5307,4.5307,4.5307,4.5307,4.4513,4.373,4.3367,4.2717,4.2087,4.1571,4.0826,4.0319,4.0398,4.0407,4.0613,4.1192,4.1258,4.1405,4.1812,4.1647,4.1475,4.1384,4.2003,4.2594,4.3138,4.3509,4.3705,4.3705,4.3705,4.345,4.2942,4.2572,4.1947,4.1109,4.1093,4.1568,2.7024,0.0,0.0,0.0,0.0,0.0,0.0,0.0,0.0,0.0,0.0,0.0,0.0,0.0,0.0,0.0,0.0,0.0,0.0,0.0,0.0,0.0,0.0,0.0,0.0,0.0,0.0,0.0,2.5425,0.0,2.653,2.764,2.8382,2.86,2.86,2.86,2.86,2.86,2.8889,2.9463,2.9463,2.988,3.0636,2.9839,2.9911,3.0636,3.0056,3.06,3.189,3.2107,3.2669,3.3393,3.3393,3.3755,3.4208,3.3628,3.3918,3.4516,3.3978,3.4157,3.4746,3.5695,3.6835,3.7841,3.7841,3.843,3.9142,3.9337,3.9352,3.9754,4.1795,4.2105,4.2374,4.4456,4.4934,4.501,4.525,4.5105,4.501,4.5239,4.394,4.2794,4.2794,4.2431,4.1896,4.1266,4.0673,4.0319,4.0398,4.0407,4.0671,4.1365,4.145,4.1466,4.1493,4.1645,4.1509,4.0922,4.1601,4.2337,4.2964,4.2983,4.2983,4.2983,4.2983,4.2786,4.2396,4.2162,4.1849,4.1439,4.1208,4.1568,0.0,0.0,0.0,2.6823,0.0,0.0,0.0,0.0,2.6685,0.0,0.0,0.0,0.0,0.0,0.0,0.0,0.0,0.0,0.0,0.0,0.0,0.0,0.0,0.0,0.0,0.0,0.0,2.4954,2.5733,2.6536,2.7314,2.7405,2.7803,2.8582,2.86,2.86,2.86,2.86,2.8618,2.8636,2.8636,2.9065,2.9802,2.8998,2.9083,2.9839,2.9802,3.0273,3.1107,3.1872,3.2669,3.3393,3.3393,3.3429,3.3447,3.3411,3.3918,3.4606,3.457,3.5675,3.7249,3.8261,3.8615,3.867,3.867,3.8877,3.9101,3.9115,4.0027,4.104,4.1127,4.1954,4.2985,4.3834,4.4045,4.4274,4.5125,4.4647,4.4293,4.5144,4.394,4.2794,4.2794,4.1457,4.0358,4.0339,4.032,4.0319,4.0398,4.0407,4.0449,4.0527,4.0535,4.0595,4.072,4.0804,4.0906,4.1081,4.1127,4.1148,4.1187,4.1187,4.1187,4.1187,4.1187,4.1576,4.2396,4.1557,4.1557,4.2337,4.1486,4.1571,0.0,0.0,2.7569,2.7783,0.0,0.0,0.0,0.0,0.0,0.0,0.0,0.0,0.0,0.0,0.0,0.0,0.0,0.0,0.0,0.0,0.0,0.0,0.0,0.0,0.0,0.0,0.0,2.4222,2.4954,2.5516,0.0,2.6808,2.7514,2.7803,2.8328,2.86,2.86,2.86,2.86,2.86,2.86,2.8744,2.9011,2.8726,2.9324,3.06,3.06,3.1347,3.2614,3.2886,3.3158,3.3393,3.3393,3.3393,3.3411,3.3452,3.3989,3.4767,3.5381,3.5969,3.6632,3.7594,3.8267,3.8707,3.8707,3.8765,3.8925,3.9272,3.969,4.0245,4.1134,4.1656,4.2144,4.3004,4.3605,4.4083,4.438,4.4197,4.4083,4.4369,4.31,4.1934,4.1934,4.1036,4.0301,4.0301,4.0301,4.0319,4.0398,4.0407,4.043,4.0489,4.0496,4.0519,4.0552,4.0707,4.0863,4.102,4.1076,4.1109,4.1109,4.1109,4.1109,4.1109,4.1109,4.1246,4.1537,4.1246,4.1246,4.1537,4.1247,4.1568,2.9204,2.8891,0.0,2.8604,2.8594,0.0,2.7679,0.0,0.0,0.0,0.0,0.0,0.0,0.0,0.0,0.0,0.0,0.0,0.0,0.0,0.0,0.0,0.0,0.0,0.0,0.0,2.3886,2.3837,2.4295,2.4701,0.0,0.0,2.7097,2.7387,2.8183,2.86,2.86,2.86,2.86,2.86,2.86,2.8744,2.9029,2.9029,2.9753,3.1034,3.1292,3.2017,3.2995,3.3284,3.3393,3.3393,3.3393,3.3393,3.3411,3.3481,3.4211,3.5293,3.6215,3.6717,3.7006,3.7371,3.8028,3.8707,3.8707,3.8707,3.8795,3.9232,3.9439,3.9799,4.1026,4.1217,4.1361,4.2526,4.2966,4.3261,4.3873,4.3529,4.3281,4.3873,4.2431,4.1151,4.1437,4.0826,4.0301,4.0301,4.0301,4.031,4.0353,4.0398,4.0441,4.0484,4.0508,4.0519,4.0571,4.0686,4.0834,4.0984,4.105,4.1074,4.1108,4.1109,4.1382,4.2007,4.1422,4.1402,4.2027,4.1402,4.1109,4.1109,4.1091,4.1392]}]]